[[{"header":{"parameterUnit":"m.s-1","parameterCategory":1,"la1":31.0,"la2":29.5877,"lo1":-88.7671,"lo2":-86.6584,"dy":0.0162,"dx":0.0185,"nx":115,"ny":88,"refTime":"2023-03-12T12:00:00:Z","depth":0,"parameterNumber":2,"parameterNumberName":"U-component_of_WINDS"},"data":[0.0,0.0,0.0,0.0,0.0,0.0,0.0,0.0,0.0,0.0,0.0,0.0,0.0,0.0,0.0,0.0,0.0,0.0,0.0,0.0,0.0,0.0,0.0,0.0,0.0,0.0,0.0,0.0,0.0,0.0,0.0,0.0,0.0,0.0,0.0,0.0,0.0,0.0,0.0,0.0,0.0,0.0,0.0,0.0,0.0,0.0,0.0,0.0,0.0,0.0,0.0,0.0,0.0,0.0,0.0,0.0,0.0,0.0,0.0,0.0,0.0,0.0,0.0,0.0,0.0,0.0,0.0,0.0,0.0,0.0,0.0,0.0,0.0,0.0,0.0,0.0,0.0,0.0,0.0,0.0,0.0,0.0,0.0,0.0,0.0,0.0,0.0,0.0,0.0,0.0,0.0,0.0,0.0,0.0,0.0,0.0,0.0,0.0,0.0,0.0,0.0,0.0,0.0,0.0,0.0,0.0,0.0,0.0,0.0,0.0,0.0,0.0,0.0,0.0,0.0,0.0,0.0,0.0,0.0,0.0,0.0,0.0,0.0,0.0,0.0,0.0,0.0,0.0,0.0,0.0,0.0,0.0,0.0,0.0,0.0,0.0,0.0,0.0,0.0,0.0,0.0,0.0,0.0,0.0,0.0,0.0,0.0,0.0,0.0,0.0,0.0,0.0,0.0,0.0,0.0,0.0,0.0,0.0,0.0,0.0,0.0,0.0,0.0,0.0,0.0,0.0,0.0,0.0,0.0,0.0,0.0,0.0,0.0,0.0,0.0,0.0,0.0,0.0,0.0,0.0,0.0,0.0,0.0,0.0,0.0,0.0,0.0,0.0,0.0,0.0,0.0,0.0,0.0,0.0,0.0,0.0,0.0,0.0,0.0,0.0,0.0,0.0,0.0,0.0,0.0,0.0,0.0,0.0,0.0,0.0,0.0,0.0,0.0,0.0,0.0,0.0,0.0,0.0,0.0,0.0,0.0,0.0,0.0,0.0,0.0,0.0,0.0,0.0,0.0,0.0,0.0,0.0,0.0,0.0,0.0,0.0,0.0,0.0,0.0,0.0,0.0,0.0,0.0,0.0,0.0,0.0,0.0,0.0,0.0,0.0,0.0,0.0,0.0,0.0,0.0,0.0,0.0,0.0,0.0,0.0,0.0,0.0,0.0,0.0,0.0,0.0,0.0,0.0,0.0,0.0,0.0,0.0,0.0,0.0,0.0,0.0,0.0,0.0,0.0,0.0,0.0,0.0,0.0,0.0,0.0,0.0,0.0,0.0,0.0,0.0,0.0,0.0,0.0,0.0,0.0,0.0,0.0,0.0,0.0,0.0,0.0,0.0,0.0,0.0,0.0,0.0,0.0,0.0,0.0,0.0,0.0,0.0,0.0,0.0,0.0,0.0,0.0,0.0,0.0,0.0,0.0,0.0,0.0,0.0,0.0,0.0,0.0,0.0,0.0,0.0,0.0,0.0,0.0,0.0,0.0,0.0,0.0,0.0,0.0,0.0,0.0,0.0,0.0,0.0,0.0,0.0,0.0,0.0,0.0,0.0,0.0,0.0,0.0,0.0,0.0,0.0,0.0,0.0,0.0,0.0,0.0,0.0,0.0,0.0,0.0,0.0,0.0,0.0,0.0,0.0,0.0,0.0,0.0,0.0,0.0,0.0,0.0,0.0,0.0,0.0,0.0,0.0,0.0,0.0,0.0,0.0,0.0,0.0,0.0,0.0,0.0,0.0,0.0,0.0,0.0,0.0,0.0,0.0,0.0,0.0,0.0,0.0,0.0,0.0,0.0,0.0,0.0,0.0,0.0,0.0,0.0,0.0,0.0,0.0,0.0,0.0,0.0,0.0,0.0,0.0,0.0,0.0,0.0,0.0,0.0,0.0,0.0,0.0,0.0,0.0,0.0,0.0,0.0,0.0,0.0,0.0,0.0,0.0,0.0,0.0,0.0,0.0,0.0,0.0,0.0,0.0,0.0,0.0,0.0,0.0,0.0,0.0,0.0,0.0,0.0,0.0,0.0,0.0,0.0,0.0,0.0,0.0,0.0,0.0,0.0,0.0,0.0,0.0,0.0,0.0,0.0,0.0,0.0,0.0,0.0,0.0,0.0,0.0,0.0,0.0,0.0,0.0,0.0,0.0,0.0,0.0,0.0,0.0,0.0,0.0,0.0,0.0,0.0,0.0,0.0,0.0,0.0,0.0,0.0,0.0,0.0,0.0,0.0,0.0,0.0,0.0,0.0,0.0,0.0,0.0,0.0,0.0,0.0,0.0,0.0,0.0,0.0,0.0,0.0,0.0,0.0,0.0,0.0,0.0,0.0,0.0,0.0,0.0,0.0,0.0,0.0,0.0,0.0,0.0,0.0,0.0,0.0,0.0,0.0,0.0,0.0,0.0,0.0,0.0,0.0,0.0,0.0,0.0,0.0,0.0,0.0,0.0,0.0,0.0,0.0,0.0,0.0,0.0,0.0,0.0,0.0,0.0,0.0,0.0,0.0,0.0,0.0,0.0,0.0,0.0,0.0,0.0,0.0,0.0,0.0,0.0,0.0,0.0,0.0,0.0,0.0,0.0,0.0,0.0,0.0,0.0,0.0,0.0,0.0,0.0,0.0,0.0,0.0,0.0,0.0,0.0,0.0,0.0,0.0,0.0,0.0,0.0,0.0,0.0,0.0,0.0,0.0,0.0,0.0,0.0,0.0,0.0,0.0,0.0,0.0,0.0,0.0,0.0,0.0,0.0,0.0,0.0,0.0,0.0,0.0,0.0,0.0,0.0,0.0,0.0,0.0,0.0,0.0,0.0,0.0,0.0,0.0,0.0,0.0,0.0,0.0,0.0,0.0,0.0,0.0,0.0,0.0,0.0,0.0,0.0,0.0,0.0,0.0,0.0,0.0,0.0,0.0,0.0,0.0,0.0,0.0,0.0,0.0,0.0,0.0,0.0,0.0,0.0,0.0,0.0,0.0,0.0,0.0,0.0,0.0,0.0,0.0,0.0,0.0,0.0,0.0,0.0,0.0,0.0,0.0,0.0,0.0,0.0,0.0,0.0,0.0,0.0,0.0,0.0,0.0,0.0,0.0,0.0,0.0,0.0,0.0,0.0,0.0,0.0,0.0,0.0,0.0,0.0,0.0,0.0,0.0,0.0,0.0,0.0,0.0,0.0,0.0,0.0,0.0,0.0,0.0,0.0,0.0,0.0,0.0,0.0,0.0,0.0,0.0,0.0,0.0,0.0,0.0,0.0,0.0,0.0,0.0,0.0,0.0,0.0,0.0,0.0,0.0,0.0,0.0,0.0,0.0,0.0,0.0,0.0,0.0,0.0,0.0,0.0,0.0,0.0,0.0,0.0,0.0,0.0,0.0,0.0,0.0,0.0,0.0,0.0,0.0,0.0,0.0,0.0,0.0,0.0,0.0,0.0,0.0,0.0,0.0,0.0,0.0,0.0,0.0,0.0,0.0,0.0,0.0,0.0,0.0,0.0,0.0,0.0,0.0,0.0,0.0,0.0,0.0,0.0,0.0,0.0,0.0,0.0,0.0,0.0,0.0,0.0,0.0,0.0,0.0,0.0,0.0,0.0,0.0,0.0,0.0,0.0,0.0,0.0,0.0,0.0,0.0,0.0,0.0,0.0,0.0,0.0,0.0,0.0,0.0,0.0,0.0,0.0,0.0,0.0,0.0,0.0,0.0,0.0,0.0,0.0,0.0,0.0,0.0,0.0,0.0,0.0,0.0,0.0,0.0,0.0,0.0,0.0,0.0,0.0,0.0,0.0,0.0,0.0,0.0,0.0,0.0,0.0,0.0,0.0,0.0,0.0,0.0,0.0,0.0,0.0,0.0,0.0,0.0,0.0,0.0,0.0,0.0,0.0,0.0,0.0,0.0,0.0,0.0,0.0,0.0,0.0,0.0,0.0,0.0,0.0,0.0,0.0,0.0,0.0,0.0,0.0,0.0,0.0,0.0,0.0,0.0,0.0,0.0,0.0,0.0,0.0,0.0,0.0,0.0,0.0,0.0,0.0,0.0,0.0,0.0,0.0,0.0,0.0,0.0,0.0,0.0,0.0,0.0,0.0,0.0,0.0,0.0,0.0,0.0,0.0,0.0,0.0,0.0,0.0,0.0,0.0,0.0,0.0,0.0,0.0,0.0,0.0,0.0,0.0,0.0,0.0,0.0,0.0,0.0,0.0,0.0,0.0,0.0,0.0,0.0,0.0,0.0,0.0,0.0,0.0,0.0,0.0,0.0,0.0,0.0,0.0,0.0,0.0,3.1766,0.0,0.0,0.0,0.0,0.0,0.0,0.0,0.0,0.0,0.0,0.0,0.0,0.0,0.0,0.0,0.0,0.0,0.0,0.0,0.0,0.0,0.0,0.0,0.0,0.0,0.0,0.0,0.0,0.0,0.0,0.0,0.0,0.0,0.0,0.0,0.0,0.0,0.0,0.0,0.0,0.0,0.0,0.0,0.0,0.0,0.0,0.0,0.0,0.0,0.0,0.0,0.0,0.0,0.0,0.0,0.0,0.0,0.0,0.0,0.0,0.0,0.0,0.0,0.0,0.0,0.0,0.0,0.0,0.0,0.0,0.0,0.0,0.0,0.0,0.0,0.0,0.0,0.0,0.0,0.0,0.0,0.0,0.0,0.0,0.0,0.0,0.0,0.0,0.0,0.0,0.0,0.0,0.0,0.0,0.0,0.0,0.0,0.0,0.0,0.0,0.0,0.0,0.0,0.0,0.0,0.0,0.0,0.0,0.0,0.0,3.5285,3.4407,3.3552,3.27,3.1889,0.0,0.0,0.0,0.0,0.0,0.0,0.0,0.0,0.0,0.0,0.0,0.0,0.0,0.0,0.0,0.0,0.0,0.0,0.0,0.0,0.0,0.0,0.0,0.0,0.0,0.0,0.0,0.0,0.0,0.0,0.0,0.0,0.0,0.0,0.0,0.0,0.0,0.0,0.0,0.0,0.0,0.0,0.0,0.0,0.0,0.0,0.0,0.0,0.0,0.0,0.0,0.0,0.0,0.0,0.0,0.0,0.0,0.0,0.0,0.0,0.0,0.0,0.0,0.0,0.0,0.0,0.0,0.0,0.0,0.0,0.0,0.0,0.0,0.0,0.0,0.0,0.0,0.0,0.0,0.0,0.0,0.0,0.0,0.0,0.0,0.0,0.0,0.0,0.0,0.0,0.0,0.0,0.0,0.0,0.0,0.0,0.0,0.0,0.0,0.0,0.0,0.0,0.0,0.0,0.0,0.0,0.0,0.0,0.0,0.0,0.0,0.0,3.4503,3.3456,3.2454,0.0,0.0,0.0,0.0,0.0,0.0,0.0,0.0,0.0,0.0,0.0,0.0,0.0,0.0,0.0,0.0,0.0,0.0,0.0,0.0,0.0,0.0,0.0,0.0,0.0,0.0,0.0,0.0,0.0,0.0,0.0,0.0,0.0,0.0,0.0,0.0,0.0,0.0,0.0,0.0,0.0,0.0,0.0,0.0,0.0,0.0,0.0,0.0,0.0,0.0,0.0,0.0,0.0,0.0,0.0,0.0,0.0,0.0,0.0,0.0,0.0,0.0,0.0,0.0,0.0,0.0,0.0,0.0,0.0,0.0,0.0,0.0,0.0,0.0,0.0,0.0,0.0,0.0,0.0,0.0,0.0,0.0,0.0,0.0,0.0,0.0,0.0,0.0,0.0,0.0,0.0,0.0,0.0,0.0,0.0,0.0,0.0,0.0,0.0,0.0,0.0,0.0,0.0,0.0,0.0,0.0,0.0,0.0,0.0,0.0,3.6752,3.8922,3.7404,0.0,3.4278,0.0,0.0,0.0,0.0,0.0,0.0,0.0,0.0,0.0,0.0,0.0,0.0,0.0,0.0,0.0,0.0,0.0,0.0,0.0,0.0,0.0,0.0,0.0,0.0,0.0,0.0,0.0,0.0,0.0,0.0,0.0,0.0,0.0,0.0,0.0,0.0,0.0,0.0,0.0,0.0,0.0,0.0,0.0,0.0,0.0,0.0,0.0,0.0,0.0,0.0,0.0,0.0,0.0,0.0,0.0,0.0,0.0,0.0,0.0,0.0,0.0,0.0,0.0,0.0,0.0,0.0,0.0,0.0,0.0,0.0,0.0,0.0,0.0,0.0,0.0,0.0,0.0,0.0,0.0,0.0,0.0,0.0,0.0,0.0,0.0,0.0,0.0,0.0,0.0,0.0,0.0,0.0,0.0,0.0,0.0,0.0,0.0,0.0,0.0,0.0,0.0,0.0,0.0,0.0,0.0,0.0,0.0,0.0,0.0,0.0,3.7123,3.8649,3.7024,3.51,0.0,0.0,0.0,0.0,0.0,0.0,0.0,0.0,0.0,0.0,0.0,0.0,0.0,0.0,0.0,0.0,0.0,0.0,0.0,0.0,0.0,0.0,0.0,0.0,0.0,0.0,0.0,0.0,0.0,0.0,0.0,0.0,0.0,0.0,0.0,0.0,0.0,0.0,0.0,0.0,0.0,0.0,0.0,0.0,0.0,0.0,0.0,0.0,0.0,0.0,0.0,0.0,0.0,0.0,0.0,0.0,0.0,0.0,0.0,0.0,0.0,0.0,0.0,0.0,0.0,0.0,0.0,0.0,0.0,0.0,0.0,0.0,0.0,0.0,0.0,0.0,0.0,0.0,0.0,0.0,0.0,0.0,0.0,0.0,0.0,0.0,0.0,0.0,0.0,0.0,0.0,0.0,0.0,0.0,0.0,0.0,0.0,0.0,0.0,0.0,0.0,0.0,0.0,0.0,0.0,0.0,0.0,0.0,0.0,0.0,3.7678,3.8127,3.9024,3.7323,3.5211,3.2952,0.0,0.0,0.0,0.0,0.0,0.0,0.0,0.0,0.0,0.0,0.0,0.0,0.0,0.0,0.0,0.0,0.0,0.0,0.0,0.0,0.0,0.0,0.0,0.0,0.0,0.0,0.0,0.0,0.0,0.0,0.0,0.0,0.0,0.0,0.0,0.0,0.0,0.0,0.0,0.0,0.0,0.0,0.0,0.0,0.0,0.0,0.0,0.0,0.0,0.0,0.0,0.0,0.0,0.0,0.0,0.0,0.0,0.0,0.0,0.0,0.0,0.0,0.0,0.0,0.0,0.0,0.0,0.0,0.0,0.0,0.0,0.0,0.0,0.0,0.0,0.0,0.0,0.0,0.0,0.0,0.0,0.0,0.0,0.0,0.0,0.0,0.0,0.0,0.0,0.0,0.0,0.0,0.0,0.0,0.0,0.0,0.0,0.0,0.0,0.0,0.0,0.0,0.0,0.0,0.0,0.0,0.0,0.0,4.251,4.0544,4.0154,4.1619,3.9376,3.7287,0.0,0.0,0.0,0.0,0.0,0.0,0.0,0.0,0.0,0.0,0.0,0.0,0.0,0.0,0.0,0.0,0.0,0.0,0.0,0.0,0.0,0.0,0.0,0.0,0.0,0.0,0.0,0.0,0.0,0.0,0.0,0.0,0.0,0.0,0.0,0.0,0.0,0.0,0.0,0.0,0.0,0.0,0.0,0.0,0.0,0.0,0.0,0.0,0.0,0.0,0.0,0.0,0.0,0.0,0.0,0.0,0.0,0.0,0.0,0.0,0.0,0.0,0.0,0.0,0.0,0.0,0.0,0.0,0.0,0.0,0.0,0.0,0.0,0.0,0.0,0.0,0.0,0.0,0.0,0.0,0.0,0.0,0.0,0.0,0.0,0.0,0.0,0.0,0.0,0.0,0.0,0.0,0.0,0.0,0.0,0.0,0.0,0.0,0.0,0.0,0.0,0.0,0.0,0.0,0.0,0.0,0.0,0.0,0.0,3.8333,3.8541,3.9199,4.0271,3.8426,3.6838,0.0,0.0,0.0,0.0,0.0,0.0,0.0,0.0,0.0,0.0,0.0,0.0,0.0,0.0,0.0,0.0,0.0,0.0,0.0,0.0,0.0,0.0,0.0,0.0,0.0,0.0,0.0,0.0,0.0,0.0,0.0,0.0,0.0,0.0,0.0,0.0,0.0,0.0,0.0,0.0,0.0,0.0,0.0,0.0,0.0,0.0,0.0,0.0,0.0,0.0,0.0,0.0,0.0,0.0,0.0,0.0,0.0,0.0,0.0,0.0,0.0,0.0,0.0,0.0,0.0,0.0,0.0,0.0,0.0,0.0,0.0,0.0,0.0,0.0,0.0,0.0,0.0,0.0,0.0,0.0,0.0,0.0,0.0,0.0,0.0,0.0,0.0,0.0,0.0,0.0,0.0,0.0,0.0,0.0,0.0,0.0,0.0,0.0,0.0,0.0,0.0,0.0,0.0,0.0,0.0,0.0,0.0,0.0,0.0,3.7714,0.0,4.024,4.0233,3.8661,3.6993,0.0,0.0,0.0,0.0,0.0,0.0,0.0,0.0,0.0,0.0,0.0,0.0,0.0,0.0,0.0,0.0,0.0,0.0,0.0,0.0,0.0,0.0,0.0,0.0,0.0,0.0,0.0,0.0,0.0,0.0,0.0,0.0,0.0,0.0,0.0,0.0,0.0,0.0,0.0,0.0,0.0,0.0,0.0,0.0,0.0,0.0,0.0,0.0,0.0,0.0,0.0,0.0,0.0,0.0,0.0,0.0,0.0,0.0,0.0,0.0,0.0,0.0,0.0,0.0,0.0,0.0,0.0,0.0,0.0,0.0,0.0,0.0,0.0,0.0,0.0,0.0,0.0,0.0,0.0,0.0,0.0,0.0,0.0,0.0,0.0,0.0,0.0,0.0,0.0,0.0,0.0,0.0,0.0,0.0,0.0,0.0,0.0,0.0,0.0,0.0,0.0,0.0,0.0,0.0,0.0,0.0,0.0,0.0,3.7698,4.1659,4.3439,4.3474,4.2048,4.0271,3.7914,0.0,0.0,0.0,0.0,0.0,0.0,0.0,0.0,0.0,0.0,0.0,0.0,0.0,0.0,0.0,0.0,0.0,0.0,0.0,0.0,0.0,0.0,0.0,0.0,0.0,0.0,0.0,0.0,0.0,0.0,0.0,0.0,0.0,0.0,0.0,0.0,0.0,0.0,0.0,0.0,0.0,0.0,0.0,0.0,0.0,0.0,0.0,0.0,0.0,0.0,0.0,0.0,0.0,0.0,0.0,0.0,0.0,0.0,0.0,0.0,0.0,0.0,0.0,0.0,0.0,0.0,0.0,0.0,0.0,0.0,0.0,0.0,0.0,0.0,0.0,0.0,0.0,0.0,0.0,0.0,0.0,0.0,0.0,0.0,0.0,0.0,0.0,0.0,0.0,0.0,0.0,0.0,0.0,0.0,0.0,0.0,0.0,0.0,0.0,0.0,0.0,0.0,0.0,0.0,0.0,0.0,0.0,0.0,0.0,3.8525,4.0771,4.2589,4.3593,4.0421,3.8955,0.0,0.0,0.0,0.0,0.0,0.0,0.0,0.0,0.0,0.0,0.0,0.0,0.0,0.0,0.0,0.0,0.0,0.0,0.0,0.0,0.0,0.0,0.0,0.0,0.0,0.0,0.0,0.0,0.0,0.0,0.0,0.0,0.0,0.0,0.0,0.0,0.0,0.0,0.0,0.0,0.0,0.0,0.0,0.0,0.0,0.0,0.0,0.0,0.0,0.0,0.0,0.0,0.0,0.0,0.0,0.0,0.0,0.0,0.0,0.0,0.0,0.0,0.0,0.0,0.0,0.0,0.0,0.0,0.0,0.0,0.0,0.0,0.0,0.0,0.0,0.0,0.0,0.0,0.0,0.0,0.0,0.0,0.0,0.0,0.0,0.0,0.0,0.0,0.0,0.0,0.0,0.0,0.0,0.0,0.0,0.0,0.0,0.0,0.0,0.0,0.0,0.0,0.0,0.0,0.0,0.0,0.0,0.0,0.0,4.0354,4.2408,4.4044,4.5023,4.1798,4.0209,4.0497,0.0,0.0,0.0,0.0,0.0,0.0,0.0,0.0,0.0,0.0,0.0,0.0,0.0,0.0,0.0,0.0,0.0,0.0,0.0,0.0,0.0,0.0,0.0,0.0,0.0,0.0,0.0,0.0,0.0,0.0,0.0,0.0,0.0,0.0,0.0,0.0,0.0,0.0,0.0,0.0,0.0,0.0,0.0,0.0,0.0,0.0,0.0,0.0,0.0,0.0,0.0,0.0,0.0,0.0,0.0,0.0,0.0,0.0,0.0,0.0,0.0,0.0,0.0,0.0,0.0,0.0,0.0,0.0,0.0,0.0,0.0,0.0,0.0,0.0,0.0,0.0,0.0,0.0,0.0,0.0,0.0,0.0,0.0,0.0,0.0,0.0,0.0,0.0,0.0,0.0,0.0,0.0,0.0,0.0,0.0,0.0,0.0,0.0,0.0,0.0,0.0,0.0,0.0,0.0,0.0,0.0,0.0,0.0,4.599,4.777,4.7907,4.6257,4.4358,4.1836,0.0,0.0,0.0,0.0,0.0,0.0,0.0,0.0,0.0,0.0,0.0,0.0,0.0,0.0,0.0,0.0,0.0,0.0,0.0,0.0,0.0,0.0,0.0,0.0,0.0,0.0,0.0,0.0,0.0,0.0,0.0,0.0,0.0,0.0,0.0,0.0,0.0,0.0,0.0,0.0,0.0,0.0,0.0,0.0,0.0,0.0,0.0,0.0,0.0,0.0,0.0,0.0,0.0,0.0,0.0,0.0,0.0,0.0,0.0,0.0,0.0,0.0,0.0,0.0,0.0,0.0,0.0,0.0,0.0,0.0,0.0,0.0,0.0,0.0,0.0,0.0,0.0,0.0,0.0,0.0,0.0,0.0,0.0,0.0,0.0,0.0,0.0,0.0,0.0,0.0,0.0,0.0,0.0,0.0,0.0,0.0,0.0,0.0,0.0,0.0,0.0,0.0,0.0,0.0,0.0,0.0,0.0,0.0,0.0,4.8621,5.2033,5.2752,5.0493,4.6988,4.4416,0.0,0.0,0.0,0.0,0.0,0.0,0.0,0.0,0.0,0.0,0.0,0.0,0.0,0.0,0.0,0.0,0.0,0.0,0.0,0.0,0.0,0.0,0.0,0.0,0.0,0.0,0.0,0.0,0.0,0.0,0.0,0.0,0.0,0.0,0.0,0.0,0.0,0.0,0.0,0.0,0.0,0.0,0.0,0.0,0.0,0.0,0.0,0.0,0.0,0.0,0.0,0.0,0.0,0.0,0.0,0.0,0.0,0.0,0.0,0.0,0.0,0.0,0.0,0.0,0.0,0.0,0.0,0.0,0.0,0.0,0.0,0.0,0.0,0.0,0.0,0.0,0.0,0.0,0.0,0.0,0.0,0.0,0.0,0.0,0.0,0.0,0.0,0.0,0.0,0.0,0.0,0.0,0.0,0.0,0.0,0.0,0.0,0.0,0.0,0.0,0.0,0.0,0.0,0.0,0.0,0.0,0.0,0.0,4.8773,5.1618,5.5399,5.6339,5.4217,5.0774,4.7333,0.0,0.0,0.0,0.0,0.0,0.0,0.0,0.0,0.0,0.0,0.0,0.0,0.0,0.0,0.0,0.0,0.0,0.0,0.0,0.0,0.0,0.0,0.0,0.0,0.0,0.0,0.0,0.0,0.0,0.0,0.0,0.0,0.0,0.0,0.0,0.0,0.0,0.0,0.0,0.0,0.0,0.0,0.0,0.0,0.0,0.0,0.0,0.0,0.0,0.0,0.0,0.0,0.0,0.0,0.0,0.0,0.0,0.0,0.0,0.0,0.0,0.0,0.0,0.0,0.0,0.0,0.0,0.0,0.0,0.0,0.0,0.0,0.0,0.0,0.0,0.0,0.0,0.0,0.0,0.0,0.0,0.0,0.0,0.0,0.0,0.0,0.0,0.0,0.0,0.0,0.0,0.0,0.0,0.0,0.0,0.0,0.0,0.0,0.0,0.0,0.0,0.0,0.0,0.0,0.0,0.0,0.0,0.0,5.1338,5.4577,5.7918,5.8822,5.7135,5.4508,4.9998,0.0,0.0,0.0,0.0,0.0,0.0,0.0,0.0,0.0,0.0,0.0,0.0,0.0,0.0,0.0,0.0,0.0,0.0,0.0,0.0,0.0,0.0,0.0,0.0,0.0,0.0,0.0,0.0,0.0,0.0,0.0,0.0,0.0,0.0,0.0,0.0,0.0,0.0,0.0,0.0,0.0,0.0,0.0,0.0,0.0,0.0,0.0,0.0,0.0,0.0,0.0,0.0,0.0,0.0,0.0,0.0,0.0,0.0,0.0,0.0,0.0,0.0,0.0,0.0,0.0,0.0,0.0,0.0,0.0,0.0,0.0,0.0,0.0,0.0,0.0,0.0,0.0,0.0,0.0,0.0,0.0,0.0,0.0,0.0,0.0,0.0,0.0,0.0,0.0,0.0,0.0,0.0,0.0,0.0,0.0,0.0,0.0,0.0,0.0,0.0,0.0,0.0,0.0,0.0,0.0,0.0,0.0,0.0,5.2774,5.5504,5.8809,5.9742,5.8047,5.428,4.9724,0.0,0.0,0.0,0.0,0.0,0.0,0.0,0.0,0.0,0.0,0.0,0.0,0.0,0.0,0.0,0.0,0.0,0.0,0.0,0.0,0.0,0.0,0.0,0.0,0.0,0.0,0.0,0.0,0.0,0.0,0.0,0.0,0.0,0.0,0.0,0.0,0.0,0.0,0.0,0.0,0.0,0.0,0.0,0.0,0.0,0.0,0.0,0.0,3.7891,0.0,0.0,0.0,0.0,0.0,0.0,0.0,0.0,0.0,0.0,0.0,0.0,0.0,0.0,0.0,0.0,0.0,0.0,0.0,0.0,0.0,0.0,0.0,0.0,0.0,0.0,0.0,0.0,0.0,0.0,0.0,0.0,0.0,0.0,0.0,0.0,0.0,0.0,0.0,0.0,0.0,0.0,0.0,0.0,0.0,0.0,0.0,0.0,0.0,0.0,0.0,0.0,0.0,0.0,0.0,0.0,0.0,0.0,0.0,5.2988,5.6284,5.8874,5.9586,5.8242,5.4955,5.0582,0.0,0.0,0.0,0.0,0.0,0.0,0.0,0.0,0.0,0.0,0.0,0.0,0.0,0.0,0.0,0.0,0.0,0.0,0.0,0.0,0.0,0.0,0.0,0.0,0.0,0.0,0.0,0.0,0.0,0.0,0.0,0.0,0.0,0.0,0.0,0.0,0.0,0.0,0.0,0.0,0.0,0.0,0.0,0.0,0.0,0.0,0.0,0.0,0.0,0.0,0.0,0.0,0.0,0.0,0.0,0.0,0.0,0.0,0.0,0.0,0.0,0.0,0.0,0.0,0.0,0.0,0.0,0.0,0.0,0.0,0.0,0.0,0.0,0.0,0.0,0.0,0.0,0.0,0.0,0.0,0.0,0.0,0.0,0.0,0.0,0.0,0.0,0.0,0.0,0.0,0.0,0.0,0.0,0.0,0.0,0.0,0.0,0.0,0.0,0.0,0.0,0.0,0.0,0.0,0.0,0.0,0.0,4.8992,5.2928,5.7058,5.8704,5.9124,5.8278,5.5857,5.1705,4.5862,0.0,0.0,0.0,0.0,0.0,0.0,0.0,0.0,0.0,0.0,0.0,0.0,0.0,0.0,0.0,0.0,0.0,0.0,0.0,0.0,0.0,0.0,0.0,0.0,0.0,0.0,0.0,0.0,0.0,0.0,0.0,0.0,0.0,0.0,0.0,0.0,0.0,0.0,3.6719,3.8281,0.0,0.0,0.0,0.0,0.0,0.0,0.0,0.0,3.9273,0.0,0.0,0.0,0.0,0.0,0.0,0.0,0.0,0.0,0.0,0.0,0.0,0.0,0.0,0.0,0.0,0.0,0.0,0.0,0.0,0.0,0.0,0.0,0.0,0.0,0.0,0.0,0.0,0.0,0.0,0.0,0.0,0.0,0.0,0.0,0.0,0.0,0.0,0.0,0.0,0.0,0.0,0.0,0.0,0.0,0.0,0.0,0.0,0.0,0.0,0.0,0.0,0.0,0.0,0.0,0.0,4.9569,5.1022,5.378,5.797,5.9009,5.9124,5.8278,5.5857,5.1707,4.5936,0.0,0.0,0.0,0.0,0.0,0.0,0.0,0.0,0.0,0.0,0.0,0.0,0.0,0.0,0.0,0.0,0.0,0.0,0.0,0.0,0.0,0.0,0.0,0.0,0.0,0.0,0.0,0.0,0.0,0.0,0.0,0.0,0.0,0.0,0.0,0.0,0.0,0.0,0.0,4.1797,4.2617,0.0,0.0,0.0,0.0,0.0,0.0,0.0,0.0,3.869,0.0,0.0,0.0,0.0,0.0,0.0,0.0,0.0,0.0,0.0,0.0,0.0,0.0,0.0,0.0,0.0,0.0,0.0,0.0,0.0,0.0,0.0,0.0,0.0,0.0,0.0,0.0,0.0,0.0,0.0,0.0,0.0,0.0,0.0,0.0,0.0,0.0,0.0,0.0,0.0,0.0,0.0,0.0,0.0,0.0,0.0,0.0,0.0,0.0,0.0,0.0,0.0,0.0,0.0,0.0,4.8537,5.1246,5.4428,5.8121,5.8662,5.8701,5.8236,5.4967,5.101,0.0,0.0,0.0,0.0,0.0,0.0,0.0,0.0,0.0,0.0,0.0,0.0,0.0,0.0,0.0,0.0,0.0,0.0,0.0,0.0,0.0,0.0,0.0,0.0,0.0,0.0,0.0,0.0,0.0,0.0,0.0,0.0,0.0,0.0,0.0,0.0,0.0,0.0,0.0,0.0,4.3281,4.4219,4.3828,0.0,0.0,0.0,0.0,0.0,0.0,4.0365,3.9977,0.0,0.0,0.0,0.0,0.0,0.0,0.0,0.0,0.0,0.0,0.0,0.0,0.0,0.0,0.0,0.0,0.0,0.0,0.0,0.0,0.0,0.0,0.0,0.0,0.0,0.0,0.0,0.0,0.0,0.0,0.0,0.0,0.0,0.0,0.0,0.0,0.0,0.0,0.0,0.0,0.0,0.0,0.0,0.0,0.0,0.0,0.0,0.0,0.0,0.0,0.0,0.0,0.0,0.0,0.0,4.7122,5.0981,5.4582,5.7855,5.805,5.805,5.797,5.4041,5.031,0.0,0.0,0.0,0.0,0.0,0.0,0.0,0.0,0.0,0.0,0.0,0.0,0.0,0.0,0.0,0.0,0.0,0.0,0.0,0.0,0.0,0.0,0.0,0.0,0.0,0.0,0.0,0.0,0.0,0.0,0.0,0.0,0.0,0.0,0.0,0.0,0.0,0.0,0.0,0.0,0.0,4.5781,4.5078,4.4687,0.0,0.0,0.0,0.0,4.2745,4.2631,0.0,0.0,0.0,0.0,0.0,0.0,0.0,0.0,0.0,0.0,0.0,0.0,0.0,0.0,0.0,0.0,0.0,0.0,0.0,0.0,0.0,0.0,0.0,0.0,0.0,0.0,0.0,0.0,0.0,0.0,0.0,0.0,0.0,0.0,0.0,0.0,0.0,0.0,0.0,0.0,0.0,0.0,0.0,0.0,0.0,0.0,0.0,0.0,0.0,0.0,0.0,0.0,0.0,0.0,0.0,0.0,4.786,5.0661,5.37,5.694,5.7173,5.7132,5.7096,5.3739,5.031,0.0,0.0,0.0,0.0,0.0,0.0,0.0,0.0,0.0,0.0,0.0,0.0,0.0,0.0,0.0,0.0,0.0,0.0,0.0,0.0,0.0,0.0,0.0,0.0,0.0,0.0,0.0,0.0,0.0,0.0,0.0,0.0,0.0,0.0,0.0,0.0,0.0,0.0,0.0,0.0,0.0,4.8476,4.543,4.6243,4.5992,0.0,0.0,4.4465,4.4696,4.591,0.0,0.0,0.0,0.0,0.0,0.0,0.0,0.0,0.0,0.0,0.0,0.0,0.0,0.0,0.0,0.0,0.0,0.0,0.0,0.0,0.0,0.0,0.0,0.0,0.0,0.0,0.0,0.0,0.0,0.0,0.0,0.0,0.0,0.0,0.0,0.0,0.0,0.0,0.0,0.0,0.0,0.0,0.0,0.0,0.0,0.0,0.0,0.0,0.0,0.0,0.0,0.0,0.0,0.0,0.0,4.4389,4.8043,5.1082,5.4049,5.6865,5.7019,5.6788,5.6247,5.251,4.9353,0.0,0.0,0.0,0.0,0.0,0.0,0.0,0.0,0.0,0.0,0.0,0.0,0.0,0.0,0.0,0.0,0.0,0.0,0.0,0.0,0.0,0.0,0.0,0.0,0.0,0.0,0.0,0.0,0.0,0.0,0.0,0.0,0.0,0.0,0.0,0.0,0.0,0.0,0.0,0.0,0.0,0.0,4.6758,4.753,0.0,0.0,0.0,4.6066,4.7001,0.0,0.0,0.0,0.0,0.0,0.0,0.0,0.0,0.0,0.0,0.0,0.0,0.0,0.0,0.0,0.0,0.0,0.0,0.0,0.0,0.0,0.0,0.0,0.0,0.0,0.0,0.0,0.0,0.0,0.0,0.0,0.0,0.0,0.0,0.0,0.0,0.0,0.0,0.0,0.0,0.0,0.0,0.0,0.0,0.0,0.0,0.0,0.0,0.0,0.0,0.0,0.0,0.0,0.0,0.0,0.0,0.0,4.8082,5.1274,5.4126,5.6558,5.667,5.6285,5.5362,5.1512,0.0,0.0,0.0,0.0,0.0,0.0,0.0,0.0,0.0,0.0,0.0,0.0,0.0,0.0,0.0,0.0,0.0,0.0,0.0,0.0,0.0,0.0,0.0,0.0,0.0,0.0,0.0,3.328,0.0,0.0,0.0,0.0,0.0,0.0,0.0,0.0,0.0,0.0,0.0,0.0,0.0,0.0,4.8592,4.7695,4.8858,4.9465,0.0,0.0,4.7862,4.8682,4.8876,4.8212,0.0,0.0,0.0,0.0,0.0,0.0,0.0,0.0,0.0,0.0,0.0,0.0,0.0,0.0,0.0,0.0,0.0,0.0,0.0,0.0,0.0,0.0,0.0,0.0,0.0,0.0,0.0,0.0,0.0,0.0,0.0,0.0,0.0,0.0,0.0,0.0,0.0,0.0,0.0,0.0,0.0,0.0,0.0,0.0,0.0,0.0,0.0,0.0,0.0,0.0,0.0,0.0,0.0,0.0,4.5509,4.8084,5.0659,5.3236,5.5667,5.5783,5.5401,5.4552,5.1205,4.8622,0.0,0.0,0.0,0.0,0.0,0.0,0.0,0.0,0.0,0.0,0.0,0.0,0.0,0.0,0.0,0.0,0.0,0.0,0.0,0.0,0.0,0.0,0.0,0.0,0.0,0.0,0.0,0.0,0.0,0.0,0.0,0.0,0.0,0.0,0.0,0.0,0.0,0.0,0.0,0.0,0.0,4.8577,4.7656,5.0341,5.1845,0.0,5.0557,5.0557,4.9032,5.079,5.0712,4.587,0.0,0.0,0.0,0.0,0.0,0.0,0.0,0.0,0.0,0.0,0.0,0.0,0.0,0.0,0.0,0.0,0.0,0.0,0.0,0.0,0.0,0.0,0.0,0.0,0.0,0.0,0.0,0.0,0.0,0.0,0.0,0.0,0.0,0.0,0.0,0.0,0.0,0.0,0.0,0.0,0.0,0.0,0.0,0.0,0.0,0.0,0.0,0.0,0.0,0.0,0.0,0.0,0.0,4.5047,4.8045,5.0125,5.2628,5.5552,5.5708,5.5049,5.3703,5.1342,4.881,0.0,0.0,0.0,0.0,0.0,0.0,0.0,0.0,0.0,0.0,0.0,0.0,0.0,0.0,0.0,0.0,0.0,0.0,0.0,0.0,0.0,0.0,0.0,0.0,0.0,0.0,0.0,0.0,3.555,3.6293,3.6864,0.0,0.0,0.0,0.0,0.0,0.0,0.0,0.0,0.0,0.0,4.8881,4.9007,5.1089,0.0,0.0,5.1456,5.1305,5.1171,5.0636,4.9435,4.6939,4.5042,0.0,0.0,0.0,0.0,0.0,0.0,0.0,0.0,0.0,0.0,0.0,0.0,0.0,0.0,0.0,0.0,0.0,0.0,0.0,0.0,0.0,0.0,0.0,0.0,0.0,0.0,0.0,0.0,0.0,0.0,0.0,0.0,0.0,0.0,0.0,0.0,0.0,0.0,0.0,0.0,0.0,0.0,0.0,0.0,0.0,0.0,0.0,0.0,0.0,0.0,0.0,0.0,4.4739,4.8086,4.982,5.2323,5.5629,5.5708,5.4882,5.3192,5.117,4.8626,0.0,0.0,0.0,0.0,0.0,0.0,0.0,0.0,0.0,0.0,0.0,0.0,0.0,0.0,0.0,0.0,0.0,0.0,0.0,0.0,0.0,0.0,0.0,0.0,0.0,0.0,0.0,0.0,3.7017,3.7526,3.793,0.0,0.0,0.0,0.0,0.0,0.0,0.0,0.0,0.0,0.0,4.8966,4.9515,5.1067,5.2112,5.1825,5.1094,5.0645,5.0976,4.9541,4.7913,4.6559,0.0,0.0,0.0,0.0,0.0,0.0,0.0,0.0,0.0,0.0,0.0,0.0,0.0,0.0,0.0,0.0,0.0,0.0,0.0,0.0,0.0,0.0,0.0,0.0,0.0,0.0,0.0,3.4922,0.0,0.0,3.5206,0.0,0.0,0.0,0.0,0.0,0.0,0.0,0.0,0.0,0.0,0.0,0.0,0.0,0.0,0.0,0.0,0.0,0.0,0.0,0.0,0.0,0.0,4.4735,4.8082,4.9817,5.232,5.5552,5.5706,5.4844,5.3009,5.0585,4.8007,4.537,0.0,0.0,0.0,0.0,0.0,0.0,0.0,0.0,0.0,0.0,0.0,0.0,0.0,0.0,0.0,0.0,0.0,0.0,0.0,0.0,0.0,0.0,0.0,0.0,0.0,0.0,3.8067,3.8179,3.7904,0.0,0.0,0.0,0.0,0.0,0.0,0.0,0.0,0.0,4.341,4.6493,4.8674,4.8674,5.0152,5.1015,5.0108,4.9325,4.8519,4.7772,4.7524,4.6546,0.0,0.0,0.0,0.0,0.0,0.0,0.0,0.0,0.0,0.0,0.0,0.0,0.0,0.0,0.0,0.0,0.0,0.0,0.0,0.0,0.0,0.0,0.0,0.0,0.0,0.0,0.0,3.7055,3.647,0.0,0.0,0.0,0.0,0.0,0.0,0.0,0.0,0.0,0.0,0.0,4.0934,4.105,0.0,0.0,0.0,0.0,0.0,0.0,0.0,0.0,0.0,0.0,0.0,0.0,4.4931,4.8757,5.0038,5.2272,5.5492,5.5075,5.4227,5.3143,5.1051,4.8168,4.4503,0.0,0.0,0.0,0.0,0.0,0.0,0.0,0.0,0.0,0.0,0.0,0.0,0.0,0.0,0.0,0.0,0.0,0.0,0.0,0.0,0.0,0.0,0.0,0.0,0.0,3.8041,0.0,0.0,0.0,0.0,0.0,0.0,0.0,0.0,0.0,0.0,0.0,4.2731,4.4069,4.6222,4.7867,4.841,4.9519,5.0174,0.0,0.0,0.0,0.0,0.0,0.0,0.0,0.0,0.0,0.0,0.0,0.0,0.0,0.0,4.6333,4.4761,4.3779,4.309,4.2816,0.0,0.0,0.0,0.0,0.0,0.0,0.0,0.0,0.0,0.0,0.0,0.0,0.0,0.0,3.8297,0.0,3.7639,0.0,0.0,0.0,0.0,0.0,0.0,0.0,0.0,4.0932,4.2156,4.287,4.3327,4.3482,0.0,4.2343,4.1132,0.0,0.0,0.0,0.0,0.0,0.0,0.0,0.0,4.5151,4.8705,4.966,5.157,5.4481,5.4087,5.3418,5.2562,5.0165,4.7431,4.4337,4.2338,4.1021,0.0,0.0,0.0,0.0,0.0,0.0,0.0,0.0,0.0,0.0,0.0,0.0,0.0,0.0,0.0,0.0,0.0,0.0,0.0,0.0,0.0,0.0,0.0,3.8802,0.0,0.0,0.0,0.0,0.0,0.0,0.0,0.0,0.0,4.2019,4.2383,4.3177,4.479,4.6256,4.736,4.7825,0.0,0.0,0.0,0.0,0.0,0.0,0.0,4.7811,4.6621,4.6209,4.5939,4.5668,4.6809,4.7897,4.8423,0.0,0.0,4.6857,4.541,4.4529,4.484,4.4362,4.4002,4.431,4.4325,4.433,0.0,0.0,0.0,0.0,0.0,0.0,0.0,0.0,3.9114,3.9493,0.0,3.8585,0.0,0.0,0.0,0.0,0.0,4.0082,0.0,0.0,4.3231,4.4344,4.3604,4.4562,4.495,4.4865,4.4995,4.4539,4.3497,4.0393,0.0,0.0,0.0,0.0,0.0,0.0,4.5508,4.8048,4.884,5.0418,5.2871,5.2821,5.2309,5.1332,4.8083,4.5883,4.4923,4.2602,4.1257,4.1171,4.0589,0.0,0.0,0.0,0.0,0.0,0.0,0.0,0.0,0.0,0.0,0.0,0.0,0.0,0.0,0.0,0.0,0.0,0.0,0.0,0.0,3.959,0.0,0.0,0.0,0.0,0.0,0.0,0.0,0.0,0.0,0.0,4.222,4.2928,4.397,4.5624,0.0,0.0,0.0,0.0,4.7189,4.7186,4.7942,4.8535,4.8495,4.9165,4.9114,4.7475,0.0,0.0,4.7439,4.8005,4.861,4.8594,4.8646,4.8844,4.9626,4.7733,4.6369,4.7071,4.5985,4.5204,4.5818,4.6014,4.5975,4.4718,0.0,0.0,0.0,0.0,4.1305,4.1841,4.1948,4.2824,4.2655,4.1638,4.0884,0.0,0.0,0.0,0.0,0.0,0.0,4.274,4.3042,4.4729,4.5957,4.6815,4.7208,4.7102,4.6501,4.5884,4.4911,4.3536,4.1941,4.135,4.1849,0.0,0.0,0.0,0.0,4.6451,4.9507,4.9967,5.1277,5.3714,5.2558,5.1457,5.051,4.8348,4.6815,4.5978,4.4013,4.2389,4.128,4.0962,0.0,0.0,0.0,0.0,0.0,0.0,0.0,0.0,0.0,0.0,0.0,0.0,0.0,0.0,0.0,0.0,0.0,0.0,0.0,3.9742,4.0246,4.0196,0.0,0.0,0.0,0.0,0.0,0.0,0.0,0.0,0.0,4.3577,4.4455,4.541,0.0,0.0,4.7169,4.7758,4.7418,4.7223,4.7806,4.8712,0.0,4.8504,4.9197,4.9362,4.8236,4.8764,4.9418,4.9759,5.0049,5.02,5.0196,5.0236,5.0315,5.0398,4.9096,4.7974,4.8055,4.769,4.7401,4.763,4.7678,4.7689,4.7843,4.5044,4.342,4.2645,4.2612,4.343,4.3867,4.402,4.4541,4.4273,4.3439,4.2626,4.1434,4.0014,3.9817,0.0,0.0,0.0,4.3959,4.4673,4.5986,4.709,4.7955,4.8502,4.8517,4.7972,4.7181,4.6306,4.5331,4.4519,4.4177,4.4263,0.0,0.0,4.4327,4.5144,4.7085,5.0061,5.0197,5.1081,5.2798,5.1586,5.045,4.9559,4.8229,4.7121,4.6298,4.457,4.3149,4.213,4.1478,4.0909,0.0,0.0,0.0,0.0,0.0,0.0,0.0,0.0,0.0,0.0,0.0,3.6998,3.6544,0.0,0.0,0.0,3.878,3.9629,4.04,4.0514,0.0,0.0,0.0,0.0,0.0,0.0,0.0,4.1528,4.2329,4.3201,4.4234,4.5426,4.6469,4.7251,4.7369,4.7679,4.8559,0.0,4.7774,4.8569,4.9538,4.9954,4.9469,5.014,5.04,4.9558,4.9515,4.9979,5.0747,5.09,5.09,5.09,5.09,5.09,5.09,5.0087,4.9459,4.9423,4.9174,4.9005,4.9311,4.9374,4.9395,4.9853,4.9637,4.8039,4.6457,4.5104,4.5769,4.5663,4.4993,4.4993,4.4961,4.486,4.4061,4.3302,4.268,4.2242,0.0,4.3203,4.4087,4.4788,4.5333,4.7053,4.7784,4.773,4.8754,4.9171,4.9048,4.8521,4.8183,4.8025,4.7425,4.7115,4.7024,4.4949,4.4313,4.5004,4.5969,4.7628,4.9941,4.9941,5.0205,5.0865,5.0174,4.9453,4.8808,4.7902,4.7004,4.6186,4.4641,4.3683,4.3361,4.2106,4.1242,4.1026,0.0,0.0,0.0,0.0,0.0,0.0,0.0,0.0,0.0,0.0,0.0,0.0,0.0,0.0,0.0,3.8971,0.0,4.0512,4.0629,0.0,0.0,0.0,4.1842,4.1894,4.2605,4.312,4.3162,0.0,0.0,4.4395,4.5853,4.7154,4.7914,4.8012,4.8361,4.9273,4.8662,4.8488,4.9183,5.0166,5.0703,5.033,5.0945,5.1179,5.0471,5.0113,4.9954,5.0625,5.0898,5.0898,5.0894,5.0896,5.0892,5.089,5.0811,5.0892,5.0813,5.0281,5.0014,5.0587,5.0778,5.0739,5.1867,5.1363,5.0357,4.8962,4.7452,4.7636,4.7604,4.7452,4.7416,4.7164,4.664,4.579,4.4674,4.3431,4.3447,4.38,4.4605,4.6087,4.6808,4.6913,4.7915,4.8391,4.8364,4.863,4.8513,4.8066,4.7905,4.7612,4.7128,4.6891,4.6755,4.6775,4.6248,4.6232,4.6755,4.8043,4.9406,5.0809,5.0687,5.0424,5.0023,4.9825,4.9615,4.9485,4.806,4.7242,4.6998,4.5374,4.4134,4.3498,4.3146,4.2362,4.1092,4.1013,0.0,0.0,0.0,0.0,0.0,0.0,0.0,0.0,0.0,3.8721,3.8072,0.0,3.8994,0.0,4.0354,4.1275,4.1468,4.1468,0.0,0.0,4.1701,4.2065,4.2723,4.2953,4.3316,4.3932,4.4203,4.4549,4.5208,4.624,4.6964,4.7154,4.7191,4.7712,4.9182,4.8682,4.8193,4.8541,4.9786,5.0315,4.9241,4.9105,4.9266,4.9047,4.9341,4.972,4.9933,5.0513,5.089,5.0903,5.0895,5.0882,5.078,5.081,5.0814,5.0816,5.0703,5.066,5.0864,5.0895,5.0895,5.2687,5.2307,5.1543,5.0721,4.9768,4.8754,4.8296,4.8296,4.8296,4.7889,4.7155,4.6314,4.5518,4.4794,4.4862,4.5318,4.6118,4.7022,4.7632,4.7914,4.8357,4.8541,4.8546,4.8592,4.8447,4.81,4.8177,4.8037,4.7751,4.7657,4.7719,4.7815,4.8132,4.8432,4.869,4.9171,5.025,5.189,5.1498,5.1134,5.08,4.9678,4.9112,4.9173,4.7593,4.6677,4.6602,4.5391,4.4466,4.4028,4.3648,4.2875,4.1651,4.1312,4.0659,0.0,0.0,0.0,0.0,0.0,0.0,0.0,0.0,0.0,0.0,0.0,4.06,4.0969,4.1854,4.2389,4.2391,4.2352,4.2371,4.2374,4.2712,4.3104,4.3577,4.3968,4.4408,4.4816,4.4859,4.5051,4.5554,4.6013,4.6468,4.6848,4.6552,4.6943,4.8476,4.8415,4.8233,4.8654,4.9208,4.9345,4.8381,4.8013,4.7944,4.831,4.8467,4.8736,4.9548,5.0016,5.0335,5.0337,5.0288,5.0115,4.9785,4.9676,4.9682,4.9674,4.9713,5.0006,5.0668,5.0861,5.0866,5.2752,5.2609,5.2049,5.17,5.136,4.9326,4.8448,4.8489,4.8448,4.8003,4.7227,4.6429,4.619,4.6387,4.629,4.6698,4.7494,4.7486,4.7813,4.8471,4.8503,4.8471,4.8471,4.8532,4.8583,4.8601,4.872,4.8813,4.8901,4.8842,4.8925,4.9164,4.9854,5.0263,5.0288,4.9907,5.07,5.2669,5.2092,5.1807,5.1774,4.9683,4.8591,4.85,4.6982,4.6012,4.5803,4.5063,4.4652,4.4554,4.3925,4.3233,4.2474,4.1717,4.0692,0.0,4.0014,0.0,0.0,0.0,0.0,0.0,0.0,0.0,0.0,4.1822,4.2212,4.3158,4.3239,4.3278,4.3278,4.3276,4.3258,4.3267,4.3866,4.4329,4.4485,4.5156,4.5592,4.5592,4.5592,4.5592,4.5592,4.5592,4.5898,4.6471,4.6086,4.6201,4.7437,4.7819,4.8093,4.8875,4.8308,4.7839,4.7957,4.742,4.7185,4.7765,4.7634,4.7641,4.9014,4.9365,4.9431,4.9428,4.9373,4.911,4.8413,4.8319,4.8329,4.8369,4.8394,4.8833,5.001,5.048,5.0641,5.2408,5.1987,5.1862,5.1125,4.998,4.9522,4.9344,4.9348,4.9344,4.8898,4.8039,4.7227,4.7246,4.782,4.7325,4.7431,4.8143,4.8236,4.8296,4.833,4.833,4.8362,4.8335,4.8349,4.8401,4.8513,4.8541,4.8642,4.8818,4.8656,4.8633,4.8718,4.9469,4.9885,5.0065,0.0,0.0,0.0,5.1672,5.1041,4.9831,4.9984,4.9488,4.8318,4.7326,0.0,4.5722,4.494,4.452,4.451,4.4418,0.0,0.0,0.0,0.0,0.0,0.0,0.0,0.0,0.0,0.0,0.0,4.2423,4.2242,4.184,4.1822,4.2421,4.3893,4.4085,4.4088,4.4049,4.4071,4.4079,4.4085,4.4207,4.457,4.5237,4.5513,4.5592,4.5592,4.5592,4.5592,4.5592,4.5592,4.5669,4.5859,4.571,4.5708,4.6054,4.6735,4.6931,4.6477,4.6386,4.6527,4.7191,4.6625,4.618,4.6338,4.6825,4.7172,4.7616,4.8193,4.8532,4.856,4.8482,4.8396,4.8125,4.8118,4.8021,4.8116,4.8123,4.8252,4.8636,4.9241,4.9746,5.2392,5.2098,5.1752,5.1155,0.0,5.0545,5.0132,4.9368,4.9074,4.8705,4.8264,4.7893,4.7929,4.8269,4.7959,4.7986,4.8296,4.8386,4.8349,4.8296,4.8296,4.8296,4.8296,4.8296,4.833,4.8409,4.8414,4.8494,4.8629,4.8494,4.8522,4.872,4.9385,4.9999,5.0644,5.1871,5.235,5.2051,5.1321,5.0591,4.9857,4.9519,4.8946,4.8217,4.6975,0.0,0.0,0.0,0.0,0.0,0.0,0.0,0.0,4.3495,0.0,4.243,4.2412,4.2486,4.2582,4.271,4.2953,4.3418,4.3507,4.3395,4.3011,4.3361,4.3974,4.4786,4.4921,4.4938,4.4934,4.4925,4.4966,4.4949,4.4934,4.5118,4.5513,4.5592,4.5592,4.5592,4.5592,4.5592,4.5592,4.5592,4.5592,4.5592,4.5592,4.5592,4.5633,4.595,4.6031,4.5712,4.605,4.6287,4.6334,4.6094,4.5764,4.5823,4.6112,4.6578,4.6986,4.7352,4.7617,4.7617,4.7585,4.7464,4.6984,4.6875,4.6882,4.6866,4.6875,4.6927,4.6981,4.791,4.8952,5.2419,5.2267,5.1813,5.1464,5.1268,5.1522,5.069,4.9169,0.0,0.0,0.0,4.8282,4.8287,4.8296,4.8282,4.8287,4.8296,4.8282,4.8282,4.8296,4.8296,4.8296,4.8296,4.8296,4.8375,4.8526,4.8375,4.8413,4.8678,4.8413,4.8466,4.8753,4.9472,5.0525,5.1682,5.2016,5.2257,5.2394,5.1157,5.0415,5.0239,4.9137,4.8394,4.8171,4.6611,4.5709,4.5544,4.4814,4.4397,4.445,4.4509,4.4247,4.373,4.3689,4.3382,4.278,4.2888,4.2981,4.3006,4.3109,4.35,4.4251,4.436,4.4386,4.4401,4.4953,4.5326,4.5482,4.5566,4.5592,4.5592,4.5592,4.5592,4.5592,4.5592,4.5592,4.5592,4.5592,4.5592,4.5592,4.5592,4.5592,4.5592,4.5592,4.5592,4.5592,4.5592,4.5592,4.5592,4.5633,4.5671,4.5674,4.608,4.6373,4.5896,4.573,4.5677,4.5692,4.5704,4.5974,4.6529,4.6735,4.6698,4.6699,4.6696,4.64,4.5789,4.5774,4.5676,4.5637,4.5663,4.5678,4.5721,4.6667,4.786,5.2144,5.1606,5.2179,5.1701,5.0617,5.13,5.069,4.9159,4.8392,4.8141,4.8292,4.8256,4.8265,4.8296,4.8251,4.8256,4.8296,4.8256,4.8256,4.8296,4.8296,4.8296,4.8296,4.8296,4.8673,4.9348,4.8673,4.8719,4.929,4.8678,4.8325,4.8542,4.9877,5.1499,5.2929,5.1324,5.0749,5.1546,5.1365,5.0629,4.9359,4.9807,4.9409,4.8067,4.7062,4.6168,4.546,4.4703,4.4299,4.431,4.4422,4.4486,4.4452,4.4366,4.4353,4.4369,4.437,4.4449,4.4474,4.4648,4.487,4.5089,4.513,4.5176,4.5202,4.4751,4.4748,4.5405,4.5566,4.5592,4.5592,4.5592,4.5592,4.5592,4.5592,4.5592,4.5592,4.5592,4.5592,4.5592,4.5592,4.5592,4.5592,4.5592,4.5592,4.5592,4.5592,4.5592,4.5592,4.5592,4.5592,4.5592,4.5674,4.577,4.5686,4.5705,4.5681,4.5682,4.5682,4.576,4.5949,4.5981,4.5954,4.5892,4.5888,4.5787,4.5592,4.5597,4.5603,4.5592,4.5603,4.5603,4.5592,4.5898,4.6357,5.2297,5.2053,5.2421,5.2159,5.1545,5.1483,5.08,4.9668,4.8852,4.8337,4.8126,4.8087,4.8101,4.8136,4.8187,4.8217,4.8261,4.827,4.8265,4.8229,4.8277,4.8267,4.827,4.8272,4.8485,4.8861,4.8489,4.8526,4.8825,4.8485,4.8362,4.8529,5.0132,5.1615,5.2705,5.2205,5.1902,5.1918,5.1124,5.0134,4.9058,4.9449,4.9086,4.7925,4.7486,4.669,4.5421,4.5083,4.4714,4.4315,4.4379,4.4468,4.453,4.4541,4.4575,4.4642,4.4721,4.4792,4.4824,4.5042,4.5186,4.5275,4.528,4.5321,4.5359,4.506,4.5054,4.5405,4.5548,4.5592,4.5592,4.5592,4.5592,4.5592,4.5592,4.5592,4.5592,4.5592,4.5592,4.5592,4.5592,4.5592,4.5592,4.5592,4.5592,4.5592,4.5592,4.5592,4.5592,4.5592,4.5592,4.5592,4.5594,4.5642,4.5622,4.5625,4.5633,4.5654,4.5656,4.5656,4.5656,4.5637,4.5667,4.5663,4.5642,4.5594,4.5592,4.5592,4.5592,4.5592,4.5592,4.5592,4.5592,4.5592,4.5893,5.248,5.248,5.248,5.2408,5.216,5.158,5.0761,4.9878,4.9175,4.8514,4.7984,4.7983,4.7972,4.8007,4.8098,4.8133,4.8163,4.8175,4.8212,4.8207,4.827,4.8243,4.8236,4.8267,4.8411,4.8526,4.8406,4.8411,4.8558,4.8416,4.856,4.9119,5.0374,5.1502,5.2523,5.2934,5.2905,5.2327,5.1223,5.0197,4.9418,4.9353,4.8988,4.8355,4.7934,4.7169,4.6019,4.5774,4.5419,4.4905,4.4725,4.4688,4.4748,4.4654,4.4572,4.4589,4.4708,4.4837,4.4941,4.509,4.5215,4.528,4.528,4.528,4.5291,4.536,4.5422,4.541,4.5525,4.5579,4.559,4.5592,4.5592,4.5592,4.5592,4.5592,4.5592,4.5592,4.5592,4.5592,4.5592,4.5592,4.5592,4.5592,4.5592,4.5592,4.5592,4.5592,4.5592,4.5592,4.5592,4.5592,4.5592,4.5594,4.5592,4.5594,4.5597,4.5592,4.5597,4.5603,4.5601,4.5597,4.5594,4.5597,4.5594,4.5592,4.5592,4.5592,4.5592,4.5592,4.5592,4.5592,4.5592,4.5592,4.6009,5.248,5.248,5.248,5.2051,5.1441,5.1327,5.0463,4.9153,4.8914,4.8454,4.7783,4.7866,4.7932,4.7977,4.7937,4.7989,4.8002,4.7947,4.805,4.8177,4.8202,4.8214,4.8272,4.8292,4.871,4.9233,4.8673,4.8673,4.927,4.8673,4.9082,5.0408,5.0749,5.1659,5.295,5.257,5.2294,5.2314,5.2171,5.1705,5.0924,5.0269,4.9866,4.9787,4.8443,4.7635,4.7384,4.6859,4.6492,4.6429,4.5795,4.5505,4.5495,4.4912,4.4499,4.454,4.4636,4.4808,4.5039,4.5088,4.5173,4.527,4.528,4.528,4.528,4.5372,4.5421,4.5465,4.5493,4.5505,4.5588,4.559,4.559,4.5592,4.5592,4.5592,4.5592,4.5592,4.5592,4.5592,4.5592,4.5592,4.5592,4.5592,4.5592,4.5592,4.5592,4.5592,4.5592,4.5592,4.5592,4.5592,4.5592,4.5592,4.5592,4.5592,4.5592,4.5592,4.5592,4.5592,4.5592,4.5592,4.5592,4.5592,4.5592,4.5592,4.5592,4.5592,4.5592,4.5592,4.5592,4.5592,4.5592,4.5669,4.6237,5.248,5.248,5.248,5.2051,5.1368,5.1296,5.0379,4.8951,4.8878,4.8449,4.7766,4.7777,4.7788,4.7798,4.7881,4.7922,4.7963,4.7947,4.7968,4.8039,4.8068,4.8087,4.8126,4.8185,4.8463,4.8783,4.8453,4.8485,4.8788,4.8972,4.9664,5.0729,5.1279,5.2107,5.3192,5.292,5.2793,5.2895,5.2871,5.2656,5.2188,5.0709,4.9654,4.9191,4.8615,4.8111,4.767,4.7375,4.7053,4.6645,4.595,4.5578,4.5625,4.4915,4.4489,4.4489,4.4582,4.4718,4.4918,4.4987,4.5077,4.5193,4.5239,4.528,4.5321,4.5769,4.6068,4.6033,4.5709,4.545,4.5505,4.5534,4.5521,4.5547,4.5592,4.5592,4.5592,4.5592,4.5592,4.5592,4.5592,4.5592,4.5592,4.5592,4.5592,4.5592,4.5592,4.5592,4.5592,4.5592,4.5592,4.5592,4.5592,4.5592,4.5592,4.5592,4.5592,4.5592,4.5592,4.5592,4.5592,4.5592,4.5592,4.5592,4.5592,4.5592,4.5592,4.5592,4.5592,4.5592,4.5592,4.5592,4.5592,4.6011,4.6853,5.248,5.2486,5.2268,5.1695,5.0964,5.0741,4.9867,4.8661,4.8558,4.8232,4.773,4.7694,4.7694,4.7699,4.7814,4.7845,4.7861,4.7901,4.7917,4.7902,4.7952,4.7967,4.8002,4.8148,4.8226,4.8295,4.8292,4.8411,4.871,4.9522,5.033,5.1132,5.194,5.2637,5.3177,5.3214,5.322,5.3251,5.3214,5.2989,5.2359,5.0942,4.9818,4.9265,4.8855,4.847,4.7904,4.7924,4.77,4.7194,4.6453,4.6074,4.6146,4.5284,4.4691,4.4567,4.4756,4.4868,4.4846,4.4938,4.5129,4.5417,4.54,4.5509,4.5924,4.6326,4.6607,4.6857,4.6176,4.5747,4.5748,4.5592,4.5487,4.5502,4.5513,4.5554,4.5554,4.5592,4.5592,4.5592,4.5592,4.5592,4.5592,4.5592,4.5592,4.5592,4.5592,4.5592,4.5592,4.5592,4.5592,4.5592,4.5592,4.5592,4.5592,4.5592,4.5592,4.5592,4.5592,4.5592,4.5592,4.5592,4.5592,4.5592,4.5592,4.5592,4.5592,4.5592,4.5592,4.5592,4.5592,4.5708,4.605,4.6545,4.7272,5.248,5.2371,5.1689,5.0934,5.0106,4.9391,4.8594,4.7839,4.7797,4.7725,4.7689,4.7694,4.7694,4.7694,4.7704,4.7704,4.7704,4.7715,4.7809,4.7876,4.7897,4.7922,4.8007,4.8143,4.8192,4.8217,4.8358,4.8778,4.9569,5.0367,5.1164,5.1945,5.2669,5.3141,5.3188,5.3183,5.3214,5.3188,5.3177,5.2517,5.1237,5.088,5.072,5.061,4.9341,4.8596,4.8569,4.8591,4.8567,4.8693,4.7807,4.738,4.7417,4.624,4.5196,4.4748,4.5263,4.543,4.5041,4.5079,4.5469,4.6165,4.5856,4.6001,4.7239,4.7018,4.7059,4.7676,4.7038,4.6619,4.6631,4.593,4.5443,4.5439,4.5425,4.5466,4.5502,4.5491,4.5511,4.5592,4.5592,4.559,4.559,4.5592,4.5592,4.5592,4.5592,4.5592,4.5592,4.5592,4.5592,4.5592,4.5592,4.5592,4.5592,4.5592,4.5592,4.5592,4.5592,4.5592,4.5592,4.5592,4.5592,4.5592,4.5592,4.5592,4.5592,4.5592,4.5592,4.5592,4.5592,4.5782,4.6088,4.6661,4.7385,5.2196,5.1725,5.1441,5.056,4.9324,4.9028,4.8444,4.773,4.7694,4.7694,4.7694,4.7694,4.7694,4.7694,4.7694,4.7694,4.7694,4.7694,4.7715,4.7783,4.7788,4.785,4.7917,4.7999,4.8063,4.8256,4.8771,4.9485,5.0362,5.1174,5.1688,5.2055,5.281,5.3209,5.3209,5.3209,5.3209,5.3209,5.3209,5.2926,5.226,5.1348,5.1042,5.1482,5.0112,4.9535,5.0047,4.9634,4.939,4.9427,4.8207,4.7571,4.759,4.6779,4.6158,4.599,4.6173,4.6259,4.6128,4.6255,4.654,4.6871,4.6864,4.6943,4.7565,4.7873,4.8178,4.8395,4.8269,4.8064,4.7791,4.6528,4.5433,4.5407,4.5419,4.5395,4.5431,4.5419,4.5485,4.5536,4.5554,4.5581,4.5559,4.5573,4.559,4.5554,4.5554,4.5592,4.5592,4.5592,4.5592,4.5592,4.5592,4.5592,4.5592,4.5592,4.5592,4.5592,4.5592,4.5592,4.5592,4.5592,4.5592,4.5592,4.5592,4.5592,4.5592,4.5592,4.5592,4.5592,4.5592,4.5746,4.5975,4.6894,4.769,5.2015,5.1296,5.1006,5.012,4.892,4.8625,4.819,4.773,4.7694,4.7694,4.7694,4.7694,4.7694,4.7694,4.7694,4.7694,4.7694,4.7694,4.7694,4.7694,4.7694,4.7767,4.7829,4.7871,4.8124,4.8594,4.9364,5.0287,5.1159,5.173,5.2134,5.2417,5.2957,5.3209,5.3209,5.3209,5.3209,5.3209,5.3209,5.3104,5.27,5.1499,5.1059,5.1331,5.0331,5.0029,5.0824,5.0377,5.0153,4.9969,4.8854,4.8001,4.7638,4.7471,4.7155,4.6789,4.6909,4.6974,4.6794,4.7029,4.7339,4.7598,4.7598,4.7744,4.8311,4.8694,4.8998,4.9229,4.9051,4.8927,4.8588,4.7255,4.605,4.5757,4.551,4.5367,4.538,4.539,4.54,4.548,4.5501,4.5487,4.5473,4.5543,4.5532,4.5511,4.5554,4.5592,4.5592,4.5592,4.5592,4.5592,4.5592,4.5592,4.5592,4.5592,4.5592,4.5592,4.5592,4.5592,4.5592,4.5592,4.5592,4.5592,4.5631,4.5592,4.5592,4.5592,4.5631,4.5669,4.5708,4.5821,4.6473,4.7355,4.8195,5.1979,5.1151,5.0427,4.9582,4.8739,4.8087,4.772,4.7694,4.7694,4.7694,4.7694,4.7694,4.7694,4.773,4.7797,4.7761,4.7839,4.7906,4.7911,4.7833,4.7875,4.7906,4.7932,4.8089,4.8546,4.9263,5.0138,5.1098,5.1961,5.2076,5.2443,5.3031,5.3135,5.3209,5.3209,5.3209,5.3209,5.3209,5.3209,5.2858,5.2018,5.1316,5.0986,5.0986,5.0235,5.0161,5.0849,5.0775,5.0717,5.0644,4.9853,4.8859,4.7917,4.8233,4.8104,4.7136,4.7421,4.746,4.703,4.7204,4.7822,4.8308,4.8041,4.8406,4.9413,4.9314,4.9275,4.9705,4.9388,4.8976,4.8864,4.8112,4.7149,4.6475,4.576,4.5395,4.5324,4.5364,4.5408,4.5426,4.5419,4.541,4.5417,4.545,4.5491,4.5523,4.5541,4.5588,4.5592,4.5592,4.5592,4.5592,4.5592,4.5592,4.5592,4.5592,4.5592,4.5592,4.5592,4.5592,4.5592,4.5592,4.5592,4.5631,4.5936,4.5975,4.6088,4.6126,4.6244,4.6244,4.6129,4.6321,4.7127,4.8048,4.8819,5.1224,5.0427,4.9619,4.8811,4.8087,4.7797,4.7694,4.7694,4.7694,4.7694,4.7694,4.7694,4.7694,4.7833,4.8263,4.8516,4.8552,4.9034,4.9075,4.8703,4.9075,4.9298,4.9309,4.9378,4.9862,5.0675,5.1112,5.1793,5.2511,5.2679,5.2888,5.3162,5.3209,5.3209,5.3209,5.3209,5.3209,5.3209,5.3209,5.3067,5.2779,5.205,5.1872,5.2297,5.1688,5.14,5.1583,5.1096,5.0839,5.0802,4.9991,4.9161,4.851,4.86,4.8585,4.828,4.8371,4.8496,4.8344,4.8409,4.8677,4.9049,4.9029,4.9318,4.9851,4.9731,4.9685,4.9999,4.9755,4.9628,4.9505,4.8875,4.787,4.6538,4.62,4.5843,4.5542,4.5436,4.5398,4.5418,4.5424,4.5429,4.5409,4.5436,4.5436,4.545,4.5482,4.5555,4.5584,4.5592,4.5592,4.5592,4.5592,4.5592,4.5592,4.5592,4.5592,4.5592,4.5592,4.5592,4.5592,4.5594,4.5592,4.5821,4.6165,4.6394,4.6545,4.6699,4.6894,4.7122,4.7276,4.7622,4.8045,4.8625,4.932,5.118,5.0427,4.9669,4.8889,4.8118,4.787,4.7657,4.7631,4.7625,4.7625,4.7625,4.7625,4.7838,4.818,4.8659,4.9027,4.9391,5.0118,5.0198,4.977,4.9903,5.0106,5.0179,5.0432,5.085,5.1464,5.187,5.2355,5.2986,5.3023,5.3114,5.3209,5.3471,5.3471,5.3287,5.3471,5.3544,5.3251,5.3209,5.3209,5.3031,5.2417,5.2239,5.2564,5.1982,5.1578,5.1541,5.1316,5.1242,5.1179,5.0817,5.0163,4.9221,4.9188,4.9151,4.8899,4.8871,4.8838,4.8897,4.8986,4.9251,4.9335,4.9565,4.9721,4.981,4.9851,4.9913,4.9936,4.992,4.9944,4.986,4.9502,4.8577,4.7472,4.7006,4.6655,4.6257,4.6233,4.608,4.6,4.5839,4.5656,4.5408,4.5375,4.5404,4.5402,4.5465,4.5498,4.5536,4.5592,4.5594,4.5594,4.5592,4.5592,4.5592,4.5592,4.5592,4.5592,4.5592,4.5592,4.5592,4.5594,4.5633,4.6165,4.6545,4.6968,4.712,4.7505,4.7774,4.8082,4.8274,4.8351,4.8545,4.8933,4.9512,5.1734,5.0958,5.0282,4.9399,4.8623,4.7941,4.7593,4.7482,4.7477,4.7549,4.7585,4.7693,4.8139,4.8772,4.9025,4.9475,5.0143,5.0848,5.1157,5.0933,5.0682,5.0485,5.0755,5.1293,5.1645,5.1908,5.2409,5.2755,5.2953,5.3175,5.3198,5.3287,5.3995,5.4064,5.366,5.4069,5.41,5.3471,5.3324,5.3319,5.3219,5.2532,5.2134,5.2202,5.161,5.1206,5.1206,5.1463,5.1793,5.1997,5.1977,5.13,5.0208,4.9991,4.9723,4.9037,4.8856,4.8861,4.8881,4.9,4.9148,4.9217,4.9449,4.9687,4.9673,4.98,4.9876,4.9869,4.9917,4.9889,4.9896,4.9817,4.9428,4.8884,4.7931,4.7442,4.7626,4.7552,4.7162,4.6693,4.6527,4.632,4.5712,4.5681,4.5704,4.5773,4.5853,4.5932,4.5735,4.5832,4.5674,4.5633,4.5631,4.5592,4.5592,4.5592,4.5592,4.5592,4.5594,4.5633,4.5631,4.5631,4.5859,4.6432,4.7081,4.7466,4.7966,4.843,4.8661,4.8856,4.8933,4.8815,4.9086,4.955,4.9822,5.0818,5.0032,4.9238,4.8457,4.7762,4.7479,4.7432,4.7358,4.7394,4.7748,4.8114,4.8258,4.8712,4.9496,5.0044,5.0482,5.0829,5.1448,5.1862,5.1796,5.1676,5.2017,5.2479,5.2731,5.2863,5.298,5.2681,5.268,5.2906,5.3416,5.3535,5.3282,5.4552,5.4845,5.4326,5.4882,5.4845,5.4216,5.4069,5.3733,5.3256,5.3031,5.2884,5.2847,5.2632,5.2192,5.1688,5.1279,5.1422,5.1951,5.2029,5.1648,5.0704,5.0605,5.0267,4.9621,4.9446,4.9238,4.8826,4.8831,4.8947,4.9056,4.9231,4.9378,4.9483,4.9644,4.9721,4.9779,4.9814,4.9886,4.9889,4.9889,4.9765,4.9535,4.8468,4.7678,4.7694,4.7587,4.7502,4.7322,4.7313,4.7184,4.6987,4.6942,4.6994,4.7061,4.7093,4.7019,4.66,4.6461,4.6456,4.5825,4.5629,4.5592,4.5592,4.5592,4.5592,4.5592,4.5633,4.5674,4.5708,4.5706,4.6124,4.662,4.7584,4.8122,4.8894,4.9589,4.9668,4.9627,4.982,4.9858,5.0051,5.0399,5.0399,5.1048,5.0545,4.9808,4.9261,4.8788,4.8465,4.8287,4.8242,4.8231,4.8446,4.8847,4.8924,4.9378,5.019,5.0641,5.1042,5.1443,5.1826,5.1981,5.2077,5.2291,5.2556,5.29,5.3147,5.3261,5.2984,5.2729,5.2591,5.2739,5.331,5.3538,5.3862,5.4933,5.5322,5.5034,5.5647,5.5732,5.4992,5.462,5.4142,5.3739,5.3361,5.3209,5.3209,5.3172,5.2926,5.2454,5.2045,5.192,5.203,5.1998,5.1677,5.0993,5.0914,5.0534,4.9823,4.9454,4.9016,4.8716,4.8655,4.8772,4.8901,4.9047,4.9158,4.9318,4.9496,4.9581,4.9566,4.9743,4.9821,4.9807,4.9848,4.9886,4.9772,4.9084,4.8562,4.8524,4.8638,4.8454,4.8263,4.8169,4.8002,4.7814,4.7758,4.7812,4.7802,4.7746,4.7611,4.7393,4.736,4.7192,4.6629,4.6199,4.6242,4.609,4.6013,4.5939,4.5862,4.6176,4.6138,4.6242,4.6276,4.6851,4.7502,4.8199,4.8894,4.9666,5.0245,5.0322,5.0361,5.0668,5.0707,5.0707,5.0707,5.0748,5.1797,5.1666,5.1102,5.0802,5.0473,4.9934,4.9416,4.9436,4.9317,4.9424,4.9609,4.9603,5.0134,5.0934,5.0952,5.1292,5.197,5.189,5.1882,5.2066,5.2428,5.2729,5.2502,5.3228,5.3349,5.3026,5.2773,5.2836,5.3145,5.331,5.359,5.4278,5.5183,5.5605,5.569,5.6413,5.6418,5.5579,5.5133,5.4541,5.41,5.3623,5.3398,5.3209,5.3209,5.3172,5.3067,5.292,5.2627,5.2008,5.206,5.1735,5.112,5.0999,5.0601,4.9916,4.9285,4.8807,4.8646,4.8689,4.8626,4.8757,4.8892,4.901,4.9141,4.9288,4.9363,4.9372,4.9574,4.967,4.9739,4.98,4.9876,4.9851,4.981,4.9889,4.9972,4.9972,4.9712,4.9131,4.9047,4.8656,4.8269,4.7961,4.8115,4.8725,4.8622,4.852,4.8304,4.8174,4.801,4.7712,4.7335,4.7045,4.6778,4.6509,4.636,4.6323,4.6832,4.7063,4.7312,4.7498,4.8036,4.8575,4.8853,4.9435,5.0245,5.063,5.0707,5.0707,5.0707,5.0707,5.0707,5.0707,5.0745,5.1073,5.0482,5.0577,5.0211,4.9669,4.946,4.9407,4.9418,4.9383,4.9817,5.0168,5.0281,5.077,5.1486,5.1426,5.1628,5.1778,5.1777,5.1752,5.1859,5.2567,5.2823,5.2912,5.362,5.4323,5.4467,5.4302,5.4225,5.4367,5.4328,5.4435,5.4464,5.5576,5.6125,5.5868,5.6859,5.6969,5.5946,5.5935,5.5201,5.4027,5.3995,5.377,5.3282,5.3209,5.3209,5.3067,5.2601,5.2187,5.2035,5.1977,5.1902,5.1572,5.1131,5.0769,5.0406,4.9787,4.9346,4.926,4.884,4.8518,4.8573,4.8754,4.8844,4.8886,4.9093,4.92,4.9284,4.9372,4.951,4.967,4.9714,4.9755,4.981,4.9851,4.9889,4.9931,4.9931,4.9796,4.9709,4.9656,4.9634,4.9499,4.9422,4.9486,4.964,4.9563,4.9465,4.9237,4.8982,4.884,4.8644,4.8219,4.7892,4.7699,4.7432,4.7204,4.717,4.7602,4.8143,4.8392,4.8454,4.8878,4.9115,4.9279,4.9935,5.063,5.0707,5.0707,5.0707,5.0707,5.0707,5.0707,5.0707,5.1089,5.0891,5.0709,5.0815,5.0704,5.0447,5.0411,5.0411,5.0423,5.0417,5.0667,5.0994,5.1072,5.1322,5.1679,5.1708,5.1679,5.1708,5.1714,5.1935,5.2262,5.2762,5.3298,5.4005,5.435,5.4893,5.5093,5.4694,5.4657,5.4816,5.5014,5.5052,5.5268,5.6177,5.6421,5.6223,5.7036,5.6932,5.6308,5.6124,5.5537,5.462,5.4326,5.4027,5.3356,5.3209,5.3209,5.3135,5.2847,5.2606,5.2475,5.2213,5.1791,5.1577,5.1392,5.1211,5.0729,5.0041,4.9642,4.941,4.8929,4.8457,4.8503,4.8601,4.8655,4.8721,4.8912,4.8986,4.9047,4.9172,4.9364,4.9533,4.9569,4.9618,4.9648,4.9683,4.9724,4.9803,4.9848,4.9906,4.9961,4.9908,4.9971,5.006,5.0085,5.0151,4.9948,4.9971,4.9915,4.9996,4.9781,4.9742,4.9518,4.9024,4.8699,4.8584,4.8392,4.8202,4.8285,4.8603,4.918,4.9632,4.9618,4.9567,4.9731,4.9897,5.013,5.0632,5.0668,5.0707,5.0707,5.0707,5.0707,5.0707,5.0705,5.1395,5.0912,5.118,5.1184,5.1347,5.1533,5.1498,5.1408,5.1498,5.1552,5.1372,5.1645,5.1651,5.1567,5.1702,5.1708,5.1708,5.175,5.1964,5.2327,5.2762,5.3077,5.3856,5.4741,5.5011,5.5084,5.4629,5.4927,5.5044,5.5237,5.5172,5.5552,5.621,5.6443,5.6541,5.6717,5.6774,5.6816,5.6633,5.6235,5.58,5.5401,5.4876,5.4252,5.3361,5.3209,5.3209,5.3209,5.3099,5.3135,5.3177,5.2532,5.1801,5.1342,5.1353,5.1688,5.0949,5.0335,4.9968,4.9794,4.9143,4.8601,4.8545,4.8518,4.8521,4.8601,4.8715,4.8778,4.8866,4.8963,4.916,4.9307,4.9382,4.9378,4.9404,4.9418,4.9472,4.961,4.9769,4.9872,4.9946,4.994,4.9976,5.0057,5.0107,5.0182,5.028,5.0262,5.0324,5.0361,5.0388,5.024,5.0236,4.974,4.9579,4.9505,4.9433,4.9204,4.9207,4.9524,4.9906,5.0442,5.0317,5.0154,5.0392,5.0553,5.0671,5.0632,5.0668,5.0707,5.0707,5.0707,5.0707,5.0705,5.0702,5.1656,5.0495,5.0564,5.0804,5.0904,5.0937,5.0944,5.1006,5.0944,5.1019,5.1125,5.1357,5.1376,5.1463,5.1597,5.1702,5.1702,5.1849,5.2241,5.2736,5.3184,5.3599,5.4443,5.5163,5.5377,5.5571,5.6141,5.6201,5.6305,5.6364,5.6235,5.6085,5.6261,5.6423,5.6583,5.6668,5.6754,5.6805,5.678,5.6492,5.6124,5.5763,5.5286,5.4509,5.3361,5.3209,5.3209,5.3209,5.3209,5.3209,5.3172,5.3062,5.2533,5.1956,5.1447,5.1426,5.1468,5.1022,5.0624,5.0482,4.9858,4.9066,4.8587,4.8504,4.8504,4.8534,4.8581,4.8652,4.8701,4.88,4.8945,4.9061,4.9243,4.9328,4.9382,4.9512,4.9558,4.9636,4.9706,4.9959,5.0179,5.0096,4.993,5.0012,5.0079,5.0129,5.0185,5.0224,5.0274,5.0295,5.0379,5.0358,5.0391,5.0419,5.0406,5.0426,5.0356,5.0245,5.013,5.025,5.025,5.0594,5.063,5.0707,5.0897,5.082,5.0668,5.0668,5.0707,5.0707,5.0707,5.0707,5.0745,5.0921,5.1172,5.1857,5.025,5.0397,5.0544,5.066,5.0811,5.0824,5.0824,5.0824,5.0831,5.087,5.1012,5.1059,5.1112,5.1188,5.1243,5.1499,5.2119,5.24,5.3155,5.3917,5.4485,5.5056,5.574,5.5805,5.6114,5.6479,5.6651,5.6822,5.7038,5.6801,5.6671,5.6788,5.6879,5.6811,5.6635,5.6685,5.6754,5.6751,5.6449,5.6235,5.6051,5.5537,5.4326,5.355,5.3209,5.3209,5.3209,5.3209,5.3209,5.3209,5.3172,5.2962,5.2622,5.2297,5.2008,5.1945,5.1646,5.1426,5.1315,5.0669,4.9866,4.9127,4.9039,4.8795,4.8545,4.8491,4.8558,4.8601,4.8642,4.8895,4.9387,4.9463,4.9748,5.0169,5.0233,5.027,5.0342,5.0164,5.0318,5.0576,5.0305,5.0127,4.9963,5.0022,5.0063,5.0117,5.0214,5.0238,5.0282,5.033,5.0391,5.0467,5.0538,5.0629,5.0649,5.069,5.0808,5.0849,5.0861,5.0861,5.0894,5.101,5.1161,5.1354,5.1164,5.1012,5.0745,5.0748,5.0707,5.082,5.1123,5.138,5.1431,5.1759,5.2394,4.9978,5.0257,5.0264,5.0418,5.0592,5.0654,5.064,5.0619,5.064,5.0626,5.0743,5.0743,5.0749,5.0796,5.0942,5.1395,5.245,5.2563,5.349,5.4681,5.5226,5.5723,5.6204,5.6403,5.6444,5.6483,5.6606,5.674,5.6926,5.7002,5.7201,5.7173,5.7302,5.7219,5.687,5.6673,5.6736,5.6706,5.6232,5.6207,5.626,5.5427,5.4252,5.3476,5.3287,5.3209,5.3209,5.3209,5.3209,5.3209,5.3209,5.3172,5.3172,5.3172,5.2884,5.238,5.227,5.2202,5.1829,5.1465,5.0608,4.9552,4.9561,4.9122,4.8587,4.8394,4.8493,4.8518,4.8578,4.891,4.9506,4.9745,5.0214,5.0784,5.0989,5.1069,5.1005,5.0934,5.0887,5.0875,5.0538,5.0586,5.0723,5.0744,5.093,5.0631,5.0732,5.0384,5.04,5.0289,5.0337,5.0459,5.0534,5.0612,5.0675,5.067,5.0901,5.1167,5.1233,5.1289,5.1395,5.1462,5.1731,5.2072,5.1892,5.1705,5.1284,5.1048,5.1346,5.1646,5.1875,5.2044,5.2153,5.2384,5.29,4.9486,4.9781,4.9789,4.9884,5.0077,5.0099,5.0084,5.0092,5.0106,5.0235,5.0418,5.0439,5.0551,5.0695,5.0792,5.1653,5.2579,5.3078,5.3683,5.4874,5.5447,5.5906,5.6335,5.639,5.6383,5.6444,5.6539,5.668,5.6796,5.6939,5.7029,5.71,5.7282,5.734,5.7189,5.6787,5.6857,5.7371,5.6882,5.6562,5.6542,5.5836,5.4992,5.4252,5.3581,5.3209,5.3209,5.3209,5.3209,5.3209,5.3209,5.3209,5.3209,5.3209,5.3177,5.3067,5.2994,5.2742,5.2192,5.1841,5.1145,5.006,4.9713,4.9145,4.8849,4.8521,4.8509,4.8325,4.8489,4.9093,4.9798,4.9877,5.0318,5.0879,5.1416,5.1345,5.1322,5.1463,5.1453,5.1633,5.1432,5.1649,5.1857,5.1831,5.1797,5.1478,5.1138,5.0786,5.0473,5.035,5.0283,5.0404,5.0799,5.0914,5.1129,5.1052,5.1362,5.1629,5.1731,5.1839,5.2008,5.222,5.2672,5.2867,5.2721,5.2562,5.2241,5.2159,5.228,5.2398,5.2585,5.2729,5.2859,5.3173,5.361,4.9115,4.9609,4.9582,4.9654,4.9713,4.9713,4.972,4.9713,4.9728,4.9838,4.9949,4.992,4.9971,5.0191,5.058,5.1557,5.2656,5.3204,5.4079,5.4915,5.5523,5.5808,5.6056,5.6141,5.6182,5.6369,5.6444,5.6478,5.6647,5.6835,5.6991,5.7017,5.7212,5.732,5.7363,5.7116,5.7255,5.7472,5.7342,5.6891,5.6249,5.5763,5.5212,5.4405,5.3654,5.3282,5.3209,5.3209,5.3209,5.3209,5.3209,5.3209,5.3209,5.3209,5.3172,5.3172,5.3172,5.2994,5.269,5.2281,5.1423,5.067,5.0266,5.0147,4.9708,4.9297,4.926,4.9738,4.9336,4.9696,5.0625,5.0997,5.1527,5.1923,5.2056,5.2129,5.2066,5.1836,5.1915,5.2145,5.2354,5.2511,5.2561,5.2427,5.2118,5.1627,5.1337,5.1051,5.0609,5.027,5.0283,5.0344,5.082,5.1294,5.1606,5.1798,5.2184,5.2453,5.2491,5.259,5.273,5.3037,5.3448,5.372,5.3703,5.3476,5.3218,5.3096,5.3007,5.3112,5.3255,5.3497,5.378,5.4338,5.4806,4.8622,4.9252,4.9373,4.9441,4.9486,4.9486,4.9493,4.9493,4.95,4.9553,4.9597,4.9587,4.961,4.9789,5.0392,5.1254,5.2695,5.3147,5.4182,5.4957,5.5413,5.5518,5.5771,5.5879,5.6056,5.628,5.6369,5.641,5.6519,5.6713,5.6874,5.6946,5.7098,5.7201,5.7307,5.7314,5.7376,5.7504,5.7624,5.7194,5.6424,5.5786,5.5289,5.4609,5.3838,5.3209,5.3209,5.3209,5.3209,5.3209,5.3209,5.3209,5.3209,5.3209,5.3209,5.3209,5.3209,5.3172,5.2978,5.2637,5.1909,5.1328,5.0862,5.0639,5.0605,5.0211,5.0041,5.0577,5.0256,5.0702,5.1546,5.1897,5.2238,5.2632,5.302,5.3177,5.3177,5.2685,5.2454,5.2674,5.2877,5.3024,5.3037,5.2856,5.2425,5.1835,5.1478,5.1302,5.1021,5.0707,5.0862,5.1105,5.1459,5.1966,5.2148,5.2496,5.2923,5.3268,5.3265,5.3501,5.3728,5.3922,5.4211,5.4394,5.4503,5.4532,5.4333,5.3997,5.3727,5.378,5.3957,5.4361,5.4748,5.5301,5.573,4.7904,4.861,4.9038,4.9305,4.9456,4.9486,4.9505,4.9475,4.9497,4.9566,4.9581,4.952,4.9839,5.0264,5.0272,5.1104,5.299,5.2413,5.3522,5.456,5.506,5.5242,5.5487,5.5728,5.5922,5.6113,5.6423,5.6525,5.6495,5.6767,5.6827,5.6832,5.6933,5.7074,5.7163,5.7237,5.7331,5.7461,5.7553,5.7661,5.7018,5.6339,5.5499,5.5148,5.4095,5.3209,5.3209,5.3209,5.3209,5.3209,5.3209,5.3209,5.3209,5.3209,5.3209,5.3209,5.3209,5.3209,5.3088,5.2894,5.2616,5.194,5.1359,5.1046,5.1188,5.0919,5.0824,5.0986,5.0912,5.1206,5.1767,5.2107,5.258,5.2894,5.3209,5.3209,5.3214,5.3172,5.2994,5.3208,5.3311,5.3296,5.339,5.3158,5.2921,5.2348,5.2122,5.1918,5.1987,5.1816,5.2041,5.2272,5.2466,5.2731,5.2791,5.3139,5.3612,5.3927,5.4051,5.449,5.4888,5.5012,5.4824,5.4998,5.5042,5.5225,5.5317,5.4868,5.4515,5.4462,5.4582,5.4865,5.5268,5.5731,5.6161,4.7761,4.8531,4.8704,4.8876,4.9072,4.908,4.9118,4.927,4.9652,4.9863,4.9845,4.9532,4.9668,5.0181,5.0837,5.1437,5.2753,5.3336,5.3835,5.4287,5.4659,5.4892,5.5197,5.5572,5.5961,5.6474,5.6893,5.7139,5.7153,5.7115,5.6881,5.6866,5.6819,5.6868,5.6946,5.7091,5.7224,5.7338,5.7443,5.7534,5.7406,5.6705,5.585,5.5347,5.4547,5.3596,5.3272,5.3209,5.3209,5.3209,5.3209,5.3209,5.3209,5.3209,5.3209,5.3209,5.3209,5.3209,5.3083,5.2794,5.2302,5.2119,5.1721,5.171,5.1972,5.183,5.1898,5.194,5.1793,5.1903,5.2559,5.2747,5.2968,5.3141,5.3209,5.3209,5.3251,5.3293,5.3183,5.3225,5.3287,5.3322,5.3409,5.3445,5.3219,5.2898,5.2746,5.2624,5.2677,5.2736,5.2892,5.3038,5.3221,5.3382,5.3441,5.3845,5.4285,5.4536,5.475,5.5017,5.5314,5.532,5.5215,5.5396,5.545,5.5373,5.5373,5.5402,5.5249,5.5,5.5029,5.5249,5.5674,5.6173,5.6762,4.7602,4.8306,4.8348,4.8517,4.8707,4.8769,4.8848,4.9016,4.9484,4.994,5.0049,4.9668,4.983,5.0503,5.1033,5.1823,5.2584,5.3223,5.3794,5.4144,5.4399,5.4589,5.4877,5.5201,5.5653,5.6519,5.7178,5.7384,5.7341,5.7525,5.7344,5.7011,5.6747,5.6713,5.6865,5.6962,5.7087,5.7226,5.7326,5.74,5.7395,5.6466,5.5827,5.515,5.4281,5.3599,5.3224,5.314,5.3209,5.3209,5.3209,5.3209,5.3209,5.3209,5.3209,5.3209,5.3209,5.3209,5.3041,5.2758,5.2375,5.2443,5.2433,5.2668,5.2863,5.2669,5.2632,5.2889,5.2632,5.2601,5.3209,5.3104,5.3356,5.3545,5.3251,5.3214,5.3419,5.3503,5.3335,5.3198,5.3246,5.3288,5.3308,5.3405,5.3454,5.3358,5.3482,5.34,5.3436,5.3447,5.3475,5.364,5.3787,5.3944,5.4094,5.4362,5.4618,5.4694,5.4925,5.5086,5.5268,5.5351,5.5383,5.5425,5.539,5.5403,5.5406,5.5428,5.5431,5.5395,5.56,5.5906,5.6285,5.6868,5.7634,4.7354,4.7976,4.8017,4.822,4.8499,4.8715,4.8793,4.8858,4.9094,4.9562,5.0145,5.0101,5.0499,5.1042,5.137,5.1933,5.2606,5.2892,5.331,5.4008,5.4199,5.4343,5.4573,5.4888,5.5303,5.5414,5.6323,5.7126,5.7098,5.7306,5.7355,5.7168,5.6694,5.6573,5.6799,5.6943,5.6984,5.7017,5.7131,5.7239,5.7078,5.6116,5.5643,5.494,5.4192,5.3548,5.3096,5.3108,5.314,5.3146,5.3203,5.3209,5.3209,5.3209,5.3209,5.3209,5.3209,5.3209,5.3172,5.3167,5.3046,5.3072,5.302,5.3214,5.324,5.3177,5.3177,5.3476,5.3141,5.3109,5.3214,5.3324,5.3734,5.3739,5.3408,5.357,5.3817,5.3797,5.3629,5.3476,5.3282,5.3188,5.323,5.3319,5.3518,5.3705,5.4065,5.4157,5.4058,5.4037,5.3956,5.3968,5.4138,5.4453,5.4587,5.476,5.4906,5.4978,5.5014,5.5099,5.5272,5.54,5.5447,5.5434,5.5742,5.6053,5.5777,5.5466,5.5846,5.6254,5.6435,5.6722,5.7069,5.7521,5.821,4.7192,4.7984,4.7869,4.796,4.8179,4.8501,4.8683,4.8863,4.9235,4.9864,5.0535,5.0563,5.1016,5.1571,5.1856,5.2285,5.3051,5.331,5.3739,5.3814,5.4005,5.4159,5.4359,5.4647,5.5112,5.5796,5.6538,5.6788,5.6768,5.7066,5.6765,5.644,5.6564,5.6521,5.6633,5.6746,5.6743,5.6878,5.6949,5.6984,5.707,5.6523,5.5849,5.5091,5.4428,5.3726,5.2954,5.2984,5.3055,5.3071,5.3098,5.3182,5.3188,5.3193,5.3203,5.3209,5.3209,5.3209,5.3209,5.3172,5.3172,5.3345,5.358,5.358,5.3345,5.3765,5.3917,5.3843,5.3586,5.366,5.3843,5.399,5.4158,5.3828,5.3728,5.4283,5.4524,5.4275,5.4075,5.387,5.3691,5.345,5.3387,5.3713,5.3952,5.3918,5.4219,5.426,5.4136,5.4261,5.4259,5.4192,5.4351,5.479,5.5102,5.5211,5.5418,5.5549,5.5265,5.4941,5.5148,5.564,5.5603,5.5639,5.6214,5.6709,5.6446,5.631,5.684,5.7213,5.7439,5.7501,5.7677,5.8126,5.871,4.7507,4.7886,4.8042,4.8035,4.8067,4.8284,4.8633,4.9088,4.9478,5.0231,5.1069,5.1145,5.1556,5.2177,5.2421,5.2648,5.3399,5.3467,5.3633,5.3692,5.3833,5.3988,5.4149,5.4394,5.494,5.5752,5.6253,5.6438,5.6915,5.7014,5.6861,5.6595,5.6367,5.6446,5.6532,5.6593,5.6624,5.6753,5.6812,5.6848,5.6825,5.6479,5.5899,5.5057,5.4381,5.3846,5.3013,5.275,5.2872,5.2893,5.299,5.3055,5.3065,5.3098,5.3114,5.3124,5.3198,5.3203,5.3209,5.3209,5.3209,5.3209,5.3742,5.3684,5.3449,5.391,5.4205,5.4216,5.4032,5.4179,5.4399,5.4546,5.4656,5.4363,5.4589,5.5113,5.5386,5.5133,5.4793,5.4598,5.441,5.4065,5.3765,5.4107,5.4475,5.4391,5.4318,5.4346,5.4456,5.4652,5.4755,5.4662,5.4797,5.5326,5.558,5.5612,5.5838,5.6102,5.5831,5.5434,5.5821,5.6348,5.6091,5.5955,5.6576,5.7039,5.7061,5.7212,5.7733,5.8213,5.8561,5.8561,5.8386,5.8772,5.9366,4.8186,4.7869,4.8511,4.8455,4.8117,4.8206,4.8734,4.9539,4.9631,5.0426,5.1723,5.1731,5.2115,5.271,5.2819,5.2965,5.3161,5.3204,5.3357,5.3551,5.3592,5.3783,5.3899,5.4047,5.4671,5.5246,5.579,5.632,5.7146,5.7347,5.7253,5.7024,5.6773,5.6628,5.6595,5.6648,5.668,5.6691,5.668,5.6746,5.674,5.619,5.5482,5.4674,5.3996,5.3321,5.2668,5.2507,5.2598,5.266,5.2702,5.2778,5.2833,5.291,5.2953,5.3049,5.3119,5.3146,5.3209,5.3209,5.3209,5.3209,5.324,5.3223,5.3421,5.3925,5.4383,5.4698,5.4662,5.4693,5.4803,5.5176,5.5543,5.5524,5.5637,5.5991,5.6353,5.6159,5.5778,5.5544,5.5385,5.512,5.4759,5.4886,5.5123,5.505,5.5079,5.5327,5.5409,5.5513,5.5529,5.5257,5.5491,5.5935,5.6117,5.6153,5.6382,5.6718,5.6646,5.6384,5.6807,5.6954,5.6769,5.675,5.7116,5.749,5.7939,5.8277,5.86,5.9015,5.9333,5.9369,5.9161,5.9574,6.0068,4.8587,4.9003,4.858,4.8346,4.8377,4.8394,4.8795,4.9393,4.9834,5.0666,5.1627,5.2039,5.2364,5.2676,5.2685,5.2808,5.2912,5.299,5.3024,5.317,5.3349,5.345,5.3618,5.3844,5.4394,5.502,5.5569,5.6075,5.6688,5.7193,5.7164,5.6786,5.7075,5.6937,5.677,5.6959,5.6766,5.6628,5.6539,5.6593,5.6474,5.5979,5.5202,5.4439,5.3812,5.305,5.2396,5.2322,5.2362,5.2403,5.2472,5.2526,5.2652,5.2702,5.2752,5.3006,5.306,5.3092,5.3156,5.3209,5.3293,5.3377,5.3335,5.3203,5.3428,5.3989,5.4698,5.4992,5.5286,5.539,5.5684,5.6088,5.6104,5.5976,5.6272,5.685,5.7086,5.6818,5.6438,5.6404,5.6277,5.5912,5.5589,5.5711,5.586,5.5806,5.59,5.6171,5.6337,5.6425,5.625,5.5951,5.6201,5.6623,5.673,5.6812,5.7032,5.7267,5.7206,5.7116,5.7064,5.7142,5.7252,5.7461,5.7762,5.8408,5.9165,5.9321,5.9159,5.951,5.9764,5.9899,6.0046,6.0255,6.0366,4.833,4.86,4.835,4.8278,4.8398,4.87,4.9162,4.9758,5.0314,5.1007,5.1851,5.2255,5.2445,5.2525,5.2542,5.2597,5.2764,5.2781,5.2834,5.2981,5.3109,5.3508,5.3687,5.4034,5.489,5.5425,5.5825,5.6216,5.6744,5.6749,5.6672,5.6966,5.7357,5.6785,5.6461,5.6523,5.6643,5.6498,5.6417,5.6444,5.6284,5.5993,5.5336,5.4381,5.378,5.3082,5.213,5.2132,5.215,5.215,5.2236,5.2324,5.2419,5.2507,5.2647,5.2923,5.3343,5.3476,5.3668,5.3965,5.4023,5.4075,5.4023,5.4154,5.4305,5.4766,5.5139,5.5433,5.58,5.6124,5.6633,5.6969,5.6556,5.6191,5.6924,5.7655,5.7547,5.7341,5.7248,5.7209,5.6949,5.6567,5.6465,5.6594,5.6612,5.6541,5.6715,5.7155,5.7254,5.7239,5.6919,5.653,5.69,5.7274,5.7345,5.7389,5.7654,5.7813,5.7838,5.7707,5.7518,5.7629,5.794,5.8147,5.8361,5.894,5.9432,5.9521,5.9516,5.9795,5.9897,5.9884,5.9977,6.021,6.0295,4.7766,4.7484,4.7987,4.8239,4.828,4.902,4.9763,5.0428,5.0863,5.1516,5.2238,5.2391,5.24,5.2436,5.2436,5.2498,5.2562,5.2589,5.2783,5.296,5.3216,5.3631,5.4231,5.4598,5.5253,5.6155,5.6617,5.6466,5.7174,5.73,5.7214,5.7262,5.6694,5.6267,5.6127,5.6226,5.6333,5.6295,5.6231,5.6238,5.6361,5.6199,5.5768,5.4473,5.3911,5.3432,5.229,5.1886,5.1888,5.192,5.1957,5.206,5.2372,5.2317,5.2543,5.2959,5.3447,5.3737,5.4034,5.444,5.4963,5.5201,5.5475,5.5193,5.5126,5.5223,5.5465,5.5946,5.6308,5.6712,5.7183,5.7446,5.7248,5.7082,5.7432,5.785,5.7796,5.7668,5.7643,5.7629,5.7525,5.7217,5.7113,5.72,5.7259,5.7205,5.7315,5.7848,5.7893,5.7842,5.7573,5.7122,5.7405,5.7698,5.7714,5.7815,5.8164,5.8354,5.8312,5.8275,5.8055,5.8309,5.8733,5.8686,5.8642,5.8934,5.9313,5.9401,5.9483,5.9576,5.9676,5.9753,5.9897,6.0098,6.025,4.8238,4.8556,4.8751,4.8533,4.825,4.9376,5.0101,5.0493,5.1276,5.178,5.2158,5.232,5.24,5.24,5.2391,5.2469,5.252,5.2646,5.2803,5.3219,5.3512,5.4033,5.4633,5.4693,5.5485,5.6193,5.6572,5.6866,5.7835,5.7988,5.7687,5.738,5.6908,5.6705,5.5856,5.6009,5.6151,5.6049,5.5915,5.6028,5.6244,5.5798,5.519,5.4491,5.4073,5.3307,5.2411,5.2031,5.1878,5.1754,5.1772,5.217,5.2808,5.2454,5.2642,5.3164,5.3597,5.3897,5.4276,5.4838,5.5322,5.5429,5.5474,5.5457,5.5449,5.5568,5.5855,5.6404,5.6859,5.7262,5.7593,5.7782,5.7935,5.7904,5.7836,5.7904,5.8002,5.8002,5.8002,5.8002,5.8002,5.7892,5.7745,5.7757,5.7847,5.7859,5.7828,5.7994,5.7963,5.794,5.798,5.7698,5.7842,5.803,5.8032,5.8022,5.8249,5.8382,5.8315,5.8396,5.8476,5.854,5.8625,5.8782,5.888,5.9041,5.9148,5.9225,5.9304,5.9401,5.9474,5.9567,5.965,5.9803,6.0013,4.7734,4.8114,4.8753,4.8776,4.8753,5.0001,5.0658,5.0853,5.1396,5.1785,5.1995,5.2248,5.24,5.24,5.2391,5.2614,5.2714,5.2879,5.3361,5.3796,5.4095,5.4434,5.4682,5.4903,5.5611,5.6304,5.6638,5.7189,5.821,5.7449,5.6807,5.6847,5.6987,5.6407,5.5528,5.5747,5.5869,5.5749,5.5531,5.5692,5.5957,5.5417,5.4863,5.4369,5.3943,5.3272,5.2833,5.247,5.2571,5.2636,5.2827,5.3035,5.3427,5.3321,5.3389,5.3806,5.4204,5.4488,5.4786,5.5243,5.5772,5.5956,5.6103,5.6333,5.6589,5.6708,5.6551,5.7,5.7336,5.774,5.7776,5.7966,5.7966,5.7935,5.7935,5.7971,5.8002,5.8002,5.8002,5.8002,5.8002,5.7966,5.7855,5.7855,5.7946,5.7946,5.8002,5.8002,5.8002,5.8002,5.8048,5.8119,5.8116,5.8153,5.806,5.8057,5.819,5.8255,5.8288,5.8251,5.8242,5.8395,5.8482,5.8614,5.8724,5.8877,5.8982,5.9046,5.9167,5.9281,5.9332,5.9383,5.9469,5.9559,5.9833,4.6942,4.7104,4.8438,4.9003,4.9238,5.0552,5.1195,5.1223,5.1424,5.1601,5.1794,5.214,5.232,5.2391,5.2433,5.2846,5.3102,5.3169,5.3756,5.4356,5.4741,5.5151,5.5332,5.5414,5.5837,5.6136,5.6445,5.697,5.7656,5.6731,5.613,5.6076,5.5458,5.4708,5.4865,5.4923,5.5007,5.5242,5.5264,5.5324,5.5193,5.5029,5.4739,5.44,5.4045,5.3708,5.3314,5.3126,5.3434,5.3593,5.3787,5.3982,5.4037,5.4028,5.4167,5.4456,5.4876,5.5224,5.5616,5.6082,5.6651,5.7041,5.7183,5.7258,5.7407,5.7393,5.7236,5.7383,5.7719,5.7923,5.796,5.8002,5.8002,5.8002,5.8002,5.8002,5.8002,5.8002,5.8002,5.8002,5.8002,5.8002,5.8002,5.8002,5.8002,5.8002,5.8002,5.8002,5.8002,5.8002,5.8025,5.8037,5.8048,5.8037,5.8025,5.8054,5.8105,5.8142,5.8159,5.8054,5.8025,5.8215,5.8348,5.836,5.8508,5.8677,5.8781,5.8852,5.8992,5.9152,5.9191,5.9234,5.9309,5.9406,5.9627,4.6918,4.7039,4.8405,4.9003,4.9238,5.0561,5.1228,5.1214,5.1406,5.1527,5.1619,5.1813,5.2068,5.2391,5.24,5.2656,5.2937,5.3259,5.3888,5.447,5.5212,5.588,5.6069,5.5733,5.5716,5.5815,5.592,5.6021,5.6663,5.6192,5.563,5.5379,5.5293,5.4805,5.4513,5.4518,5.4486,5.4695,5.4718,5.4679,5.5113,5.5121,5.5335,5.5014,5.4556,5.4416,5.4188,5.3738,5.3773,5.3857,5.4098,5.4465,5.4594,5.455,5.4594,5.4897,5.5323,5.5472,5.5845,5.6315,5.6757,5.6929,5.6962,5.7059,5.7218,5.736,5.7322,5.7454,5.7744,5.7914,5.7979,5.7997,5.8002,5.8002,5.8002,5.8002,5.8002,5.8002,5.8002,5.8002,5.8002,5.8002,5.8002,5.8002,5.8002,5.8002,5.8002,5.8002,5.8002,5.8002,5.8002,5.8002,5.8002,5.8002,5.8008,5.8008,5.8037,5.8031,5.8025,5.8008,5.8045,5.813,5.8221,5.8243,5.8318,5.8465,5.8561,5.8646,5.8851,5.9011,5.9034,5.9048,5.9167,5.9272,5.9523]},{"header":{"parameterUnit":"m.s-1","parameterCategory":1,"la1":31.0,"la2":29.5877,"lo1":-88.7671,"lo2":-86.6584,"dy":0.0162,"dx":0.0185,"nx":115,"ny":88,"refTime":"2023-03-12T12:00:00:Z","depth":0,"parameterNumber":3,"parameterNumberName":"V-component_of_WINDS"},"data":[0.0,0.0,0.0,0.0,0.0,0.0,0.0,0.0,0.0,0.0,0.0,0.0,0.0,0.0,0.0,0.0,0.0,0.0,0.0,0.0,0.0,0.0,0.0,0.0,0.0,0.0,0.0,0.0,0.0,0.0,0.0,0.0,0.0,0.0,0.0,0.0,0.0,0.0,0.0,0.0,0.0,0.0,0.0,0.0,0.0,0.0,0.0,0.0,0.0,0.0,0.0,0.0,0.0,0.0,0.0,0.0,0.0,0.0,0.0,0.0,0.0,0.0,0.0,0.0,0.0,0.0,0.0,0.0,0.0,0.0,0.0,0.0,0.0,0.0,0.0,0.0,0.0,0.0,0.0,0.0,0.0,0.0,0.0,0.0,0.0,0.0,0.0,0.0,0.0,0.0,0.0,0.0,0.0,0.0,0.0,0.0,0.0,0.0,0.0,0.0,0.0,0.0,0.0,0.0,0.0,0.0,0.0,0.0,0.0,0.0,0.0,0.0,0.0,0.0,0.0,0.0,0.0,0.0,0.0,0.0,0.0,0.0,0.0,0.0,0.0,0.0,0.0,0.0,0.0,0.0,0.0,0.0,0.0,0.0,0.0,0.0,0.0,0.0,0.0,0.0,0.0,0.0,0.0,0.0,0.0,0.0,0.0,0.0,0.0,0.0,0.0,0.0,0.0,0.0,0.0,0.0,0.0,0.0,0.0,0.0,0.0,0.0,0.0,0.0,0.0,0.0,0.0,0.0,0.0,0.0,0.0,0.0,0.0,0.0,0.0,0.0,0.0,0.0,0.0,0.0,0.0,0.0,0.0,0.0,0.0,0.0,0.0,0.0,0.0,0.0,0.0,0.0,0.0,0.0,0.0,0.0,0.0,0.0,0.0,0.0,0.0,0.0,0.0,0.0,0.0,0.0,0.0,0.0,0.0,0.0,0.0,0.0,0.0,0.0,0.0,0.0,0.0,0.0,0.0,0.0,0.0,0.0,0.0,0.0,0.0,0.0,0.0,0.0,0.0,0.0,0.0,0.0,0.0,0.0,0.0,0.0,0.0,0.0,0.0,0.0,0.0,0.0,0.0,0.0,0.0,0.0,0.0,0.0,0.0,0.0,0.0,0.0,0.0,0.0,0.0,0.0,0.0,0.0,0.0,0.0,0.0,0.0,0.0,0.0,0.0,0.0,0.0,0.0,0.0,0.0,0.0,0.0,0.0,0.0,0.0,0.0,0.0,0.0,0.0,0.0,0.0,0.0,0.0,0.0,0.0,0.0,0.0,0.0,0.0,0.0,0.0,0.0,0.0,0.0,0.0,0.0,0.0,0.0,0.0,0.0,0.0,0.0,0.0,0.0,0.0,0.0,0.0,0.0,0.0,0.0,0.0,0.0,0.0,0.0,0.0,0.0,0.0,0.0,0.0,0.0,0.0,0.0,0.0,0.0,0.0,0.0,0.0,0.0,0.0,0.0,0.0,0.0,0.0,0.0,0.0,0.0,0.0,0.0,0.0,0.0,0.0,0.0,0.0,0.0,0.0,0.0,0.0,0.0,0.0,0.0,0.0,0.0,0.0,0.0,0.0,0.0,0.0,0.0,0.0,0.0,0.0,0.0,0.0,0.0,0.0,0.0,0.0,0.0,0.0,0.0,0.0,0.0,0.0,0.0,0.0,0.0,0.0,0.0,0.0,0.0,0.0,0.0,0.0,0.0,0.0,0.0,0.0,0.0,0.0,0.0,0.0,0.0,0.0,0.0,0.0,0.0,0.0,0.0,0.0,0.0,0.0,0.0,0.0,0.0,0.0,0.0,0.0,0.0,0.0,0.0,0.0,0.0,0.0,0.0,0.0,0.0,0.0,0.0,0.0,0.0,0.0,0.0,0.0,0.0,0.0,0.0,0.0,0.0,0.0,0.0,0.0,0.0,0.0,0.0,0.0,0.0,0.0,0.0,0.0,0.0,0.0,0.0,0.0,0.0,0.0,0.0,0.0,0.0,0.0,0.0,0.0,0.0,0.0,0.0,0.0,0.0,0.0,0.0,0.0,0.0,0.0,0.0,0.0,0.0,0.0,0.0,0.0,0.0,0.0,0.0,0.0,0.0,0.0,0.0,0.0,0.0,0.0,0.0,0.0,0.0,0.0,0.0,0.0,0.0,0.0,0.0,0.0,0.0,0.0,0.0,0.0,0.0,0.0,0.0,0.0,0.0,0.0,0.0,0.0,0.0,0.0,0.0,0.0,0.0,0.0,0.0,0.0,0.0,0.0,0.0,0.0,0.0,0.0,0.0,0.0,0.0,0.0,0.0,0.0,0.0,0.0,0.0,0.0,0.0,0.0,0.0,0.0,0.0,0.0,0.0,0.0,0.0,0.0,0.0,0.0,0.0,0.0,0.0,0.0,0.0,0.0,0.0,0.0,0.0,0.0,0.0,0.0,0.0,0.0,0.0,0.0,0.0,0.0,0.0,0.0,0.0,0.0,0.0,0.0,0.0,0.0,0.0,0.0,0.0,0.0,0.0,0.0,0.0,0.0,0.0,0.0,0.0,0.0,0.0,0.0,0.0,0.0,0.0,0.0,0.0,0.0,0.0,0.0,0.0,0.0,0.0,0.0,0.0,0.0,0.0,0.0,0.0,0.0,0.0,0.0,0.0,0.0,0.0,0.0,0.0,0.0,0.0,0.0,0.0,0.0,0.0,0.0,0.0,0.0,0.0,0.0,0.0,0.0,0.0,0.0,0.0,0.0,0.0,0.0,0.0,0.0,0.0,0.0,0.0,0.0,0.0,0.0,0.0,0.0,0.0,0.0,0.0,0.0,0.0,0.0,0.0,0.0,0.0,0.0,0.0,0.0,0.0,0.0,0.0,0.0,0.0,0.0,0.0,0.0,0.0,0.0,0.0,0.0,0.0,0.0,0.0,0.0,0.0,0.0,0.0,0.0,0.0,0.0,0.0,0.0,0.0,0.0,0.0,0.0,0.0,0.0,0.0,0.0,0.0,0.0,0.0,0.0,0.0,0.0,0.0,0.0,0.0,0.0,0.0,0.0,0.0,0.0,0.0,0.0,0.0,0.0,0.0,0.0,0.0,0.0,0.0,0.0,0.0,0.0,0.0,0.0,0.0,0.0,0.0,0.0,0.0,0.0,0.0,0.0,0.0,0.0,0.0,0.0,0.0,0.0,0.0,0.0,0.0,0.0,0.0,0.0,0.0,0.0,0.0,0.0,0.0,0.0,0.0,0.0,0.0,0.0,0.0,0.0,0.0,0.0,0.0,0.0,0.0,0.0,0.0,0.0,0.0,0.0,0.0,0.0,0.0,0.0,0.0,0.0,0.0,0.0,0.0,0.0,0.0,0.0,0.0,0.0,0.0,0.0,0.0,0.0,0.0,0.0,0.0,0.0,0.0,0.0,0.0,0.0,0.0,0.0,0.0,0.0,0.0,0.0,0.0,0.0,0.0,0.0,0.0,0.0,0.0,0.0,0.0,0.0,0.0,0.0,0.0,0.0,0.0,0.0,0.0,0.0,0.0,0.0,0.0,0.0,0.0,0.0,0.0,0.0,0.0,0.0,0.0,0.0,0.0,0.0,0.0,0.0,0.0,0.0,0.0,0.0,0.0,0.0,0.0,0.0,0.0,0.0,0.0,0.0,0.0,0.0,0.0,0.0,0.0,0.0,0.0,0.0,0.0,0.0,0.0,0.0,0.0,0.0,0.0,0.0,0.0,0.0,0.0,0.0,0.0,0.0,0.0,0.0,0.0,0.0,0.0,0.0,0.0,0.0,0.0,0.0,0.0,0.0,0.0,0.0,0.0,0.0,0.0,0.0,0.0,0.0,0.0,0.0,0.0,0.0,0.0,0.0,0.0,0.0,0.0,0.0,0.0,0.0,0.0,0.0,0.0,0.0,0.0,0.0,0.0,0.0,0.0,0.0,0.0,0.0,0.0,0.0,0.0,0.0,0.0,0.0,0.0,0.0,0.0,0.0,0.0,0.0,0.0,0.0,0.0,0.0,0.0,0.0,0.0,0.0,0.0,0.0,0.0,0.0,0.0,0.0,0.0,0.0,0.0,0.0,0.0,0.0,0.0,0.0,0.0,0.0,0.0,0.0,0.0,0.0,0.0,0.0,0.0,0.0,0.0,0.0,0.0,0.0,0.0,0.0,0.0,0.0,0.0,0.0,0.0,0.0,0.0,0.0,0.0,0.0,0.0,0.0,0.0,0.0,0.0,0.0,0.0,0.0,0.0,0.0,0.0,0.0,0.0,0.0,0.0,0.0,0.0,0.0,0.0,0.4112,0.0,0.0,0.0,0.0,0.0,0.0,0.0,0.0,0.0,0.0,0.0,0.0,0.0,0.0,0.0,0.0,0.0,0.0,0.0,0.0,0.0,0.0,0.0,0.0,0.0,0.0,0.0,0.0,0.0,0.0,0.0,0.0,0.0,0.0,0.0,0.0,0.0,0.0,0.0,0.0,0.0,0.0,0.0,0.0,0.0,0.0,0.0,0.0,0.0,0.0,0.0,0.0,0.0,0.0,0.0,0.0,0.0,0.0,0.0,0.0,0.0,0.0,0.0,0.0,0.0,0.0,0.0,0.0,0.0,0.0,0.0,0.0,0.0,0.0,0.0,0.0,0.0,0.0,0.0,0.0,0.0,0.0,0.0,0.0,0.0,0.0,0.0,0.0,0.0,0.0,0.0,0.0,0.0,0.0,0.0,0.0,0.0,0.0,0.0,0.0,0.0,0.0,0.0,0.0,0.0,0.0,0.0,0.0,0.0,0.0,0.491,0.4702,0.4613,0.4496,0.4375,0.0,0.0,0.0,0.0,0.0,0.0,0.0,0.0,0.0,0.0,0.0,0.0,0.0,0.0,0.0,0.0,0.0,0.0,0.0,0.0,0.0,0.0,0.0,0.0,0.0,0.0,0.0,0.0,0.0,0.0,0.0,0.0,0.0,0.0,0.0,0.0,0.0,0.0,0.0,0.0,0.0,0.0,0.0,0.0,0.0,0.0,0.0,0.0,0.0,0.0,0.0,0.0,0.0,0.0,0.0,0.0,0.0,0.0,0.0,0.0,0.0,0.0,0.0,0.0,0.0,0.0,0.0,0.0,0.0,0.0,0.0,0.0,0.0,0.0,0.0,0.0,0.0,0.0,0.0,0.0,0.0,0.0,0.0,0.0,0.0,0.0,0.0,0.0,0.0,0.0,0.0,0.0,0.0,0.0,0.0,0.0,0.0,0.0,0.0,0.0,0.0,0.0,0.0,0.0,0.0,0.0,0.0,0.0,0.0,0.0,0.0,0.0,0.4859,0.473,0.4561,0.0,0.0,0.0,0.0,0.0,0.0,0.0,0.0,0.0,0.0,0.0,0.0,0.0,0.0,0.0,0.0,0.0,0.0,0.0,0.0,0.0,0.0,0.0,0.0,0.0,0.0,0.0,0.0,0.0,0.0,0.0,0.0,0.0,0.0,0.0,0.0,0.0,0.0,0.0,0.0,0.0,0.0,0.0,0.0,0.0,0.0,0.0,0.0,0.0,0.0,0.0,0.0,0.0,0.0,0.0,0.0,0.0,0.0,0.0,0.0,0.0,0.0,0.0,0.0,0.0,0.0,0.0,0.0,0.0,0.0,0.0,0.0,0.0,0.0,0.0,0.0,0.0,0.0,0.0,0.0,0.0,0.0,0.0,0.0,0.0,0.0,0.0,0.0,0.0,0.0,0.0,0.0,0.0,0.0,0.0,0.0,0.0,0.0,0.0,0.0,0.0,0.0,0.0,0.0,0.0,0.0,0.0,0.0,0.0,0.0,0.5135,0.5416,0.5267,0.0,0.4779,0.0,0.0,0.0,0.0,0.0,0.0,0.0,0.0,0.0,0.0,0.0,0.0,0.0,0.0,0.0,0.0,0.0,0.0,0.0,0.0,0.0,0.0,0.0,0.0,0.0,0.0,0.0,0.0,0.0,0.0,0.0,0.0,0.0,0.0,0.0,0.0,0.0,0.0,0.0,0.0,0.0,0.0,0.0,0.0,0.0,0.0,0.0,0.0,0.0,0.0,0.0,0.0,0.0,0.0,0.0,0.0,0.0,0.0,0.0,0.0,0.0,0.0,0.0,0.0,0.0,0.0,0.0,0.0,0.0,0.0,0.0,0.0,0.0,0.0,0.0,0.0,0.0,0.0,0.0,0.0,0.0,0.0,0.0,0.0,0.0,0.0,0.0,0.0,0.0,0.0,0.0,0.0,0.0,0.0,0.0,0.0,0.0,0.0,0.0,0.0,0.0,0.0,0.0,0.0,0.0,0.0,0.0,0.0,0.0,0.0,0.53,0.5668,0.544,0.5099,0.0,0.0,0.0,0.0,0.0,0.0,0.0,0.0,0.0,0.0,0.0,0.0,0.0,0.0,0.0,0.0,0.0,0.0,0.0,0.0,0.0,0.0,0.0,0.0,0.0,0.0,0.0,0.0,0.0,0.0,0.0,0.0,0.0,0.0,0.0,0.0,0.0,0.0,0.0,0.0,0.0,0.0,0.0,0.0,0.0,0.0,0.0,0.0,0.0,0.0,0.0,0.0,0.0,0.0,0.0,0.0,0.0,0.0,0.0,0.0,0.0,0.0,0.0,0.0,0.0,0.0,0.0,0.0,0.0,0.0,0.0,0.0,0.0,0.0,0.0,0.0,0.0,0.0,0.0,0.0,0.0,0.0,0.0,0.0,0.0,0.0,0.0,0.0,0.0,0.0,0.0,0.0,0.0,0.0,0.0,0.0,0.0,0.0,0.0,0.0,0.0,0.0,0.0,0.0,0.0,0.0,0.0,0.0,0.0,0.0,0.5285,0.5454,0.58,0.5557,0.5154,0.4668,0.0,0.0,0.0,0.0,0.0,0.0,0.0,0.0,0.0,0.0,0.0,0.0,0.0,0.0,0.0,0.0,0.0,0.0,0.0,0.0,0.0,0.0,0.0,0.0,0.0,0.0,0.0,0.0,0.0,0.0,0.0,0.0,0.0,0.0,0.0,0.0,0.0,0.0,0.0,0.0,0.0,0.0,0.0,0.0,0.0,0.0,0.0,0.0,0.0,0.0,0.0,0.0,0.0,0.0,0.0,0.0,0.0,0.0,0.0,0.0,0.0,0.0,0.0,0.0,0.0,0.0,0.0,0.0,0.0,0.0,0.0,0.0,0.0,0.0,0.0,0.0,0.0,0.0,0.0,0.0,0.0,0.0,0.0,0.0,0.0,0.0,0.0,0.0,0.0,0.0,0.0,0.0,0.0,0.0,0.0,0.0,0.0,0.0,0.0,0.0,0.0,0.0,0.0,0.0,0.0,0.0,0.0,0.0,0.5986,0.5664,0.5632,0.5872,0.5556,0.5261,0.0,0.0,0.0,0.0,0.0,0.0,0.0,0.0,0.0,0.0,0.0,0.0,0.0,0.0,0.0,0.0,0.0,0.0,0.0,0.0,0.0,0.0,0.0,0.0,0.0,0.0,0.0,0.0,0.0,0.0,0.0,0.0,0.0,0.0,0.0,0.0,0.0,0.0,0.0,0.0,0.0,0.0,0.0,0.0,0.0,0.0,0.0,0.0,0.0,0.0,0.0,0.0,0.0,0.0,0.0,0.0,0.0,0.0,0.0,0.0,0.0,0.0,0.0,0.0,0.0,0.0,0.0,0.0,0.0,0.0,0.0,0.0,0.0,0.0,0.0,0.0,0.0,0.0,0.0,0.0,0.0,0.0,0.0,0.0,0.0,0.0,0.0,0.0,0.0,0.0,0.0,0.0,0.0,0.0,0.0,0.0,0.0,0.0,0.0,0.0,0.0,0.0,0.0,0.0,0.0,0.0,0.0,0.0,0.0,0.5398,0.5599,0.5684,0.5637,0.5572,0.5362,0.0,0.0,0.0,0.0,0.0,0.0,0.0,0.0,0.0,0.0,0.0,0.0,0.0,0.0,0.0,0.0,0.0,0.0,0.0,0.0,0.0,0.0,0.0,0.0,0.0,0.0,0.0,0.0,0.0,0.0,0.0,0.0,0.0,0.0,0.0,0.0,0.0,0.0,0.0,0.0,0.0,0.0,0.0,0.0,0.0,0.0,0.0,0.0,0.0,0.0,0.0,0.0,0.0,0.0,0.0,0.0,0.0,0.0,0.0,0.0,0.0,0.0,0.0,0.0,0.0,0.0,0.0,0.0,0.0,0.0,0.0,0.0,0.0,0.0,0.0,0.0,0.0,0.0,0.0,0.0,0.0,0.0,0.0,0.0,0.0,0.0,0.0,0.0,0.0,0.0,0.0,0.0,0.0,0.0,0.0,0.0,0.0,0.0,0.0,0.0,0.0,0.0,0.0,0.0,0.0,0.0,0.0,0.0,0.0,0.5311,0.0,0.5857,0.5632,0.5584,0.5384,0.0,0.0,0.0,0.0,0.0,0.0,0.0,0.0,0.0,0.0,0.0,0.0,0.0,0.0,0.0,0.0,0.0,0.0,0.0,0.0,0.0,0.0,0.0,0.0,0.0,0.0,0.0,0.0,0.0,0.0,0.0,0.0,0.0,0.0,0.0,0.0,0.0,0.0,0.0,0.0,0.0,0.0,0.0,0.0,0.0,0.0,0.0,0.0,0.0,0.0,0.0,0.0,0.0,0.0,0.0,0.0,0.0,0.0,0.0,0.0,0.0,0.0,0.0,0.0,0.0,0.0,0.0,0.0,0.0,0.0,0.0,0.0,0.0,0.0,0.0,0.0,0.0,0.0,0.0,0.0,0.0,0.0,0.0,0.0,0.0,0.0,0.0,0.0,0.0,0.0,0.0,0.0,0.0,0.0,0.0,0.0,0.0,0.0,0.0,0.0,0.0,0.0,0.0,0.0,0.0,0.0,0.0,0.0,0.5687,0.5866,0.6117,0.6146,0.5909,0.5637,0.5286,0.0,0.0,0.0,0.0,0.0,0.0,0.0,0.0,0.0,0.0,0.0,0.0,0.0,0.0,0.0,0.0,0.0,0.0,0.0,0.0,0.0,0.0,0.0,0.0,0.0,0.0,0.0,0.0,0.0,0.0,0.0,0.0,0.0,0.0,0.0,0.0,0.0,0.0,0.0,0.0,0.0,0.0,0.0,0.0,0.0,0.0,0.0,0.0,0.0,0.0,0.0,0.0,0.0,0.0,0.0,0.0,0.0,0.0,0.0,0.0,0.0,0.0,0.0,0.0,0.0,0.0,0.0,0.0,0.0,0.0,0.0,0.0,0.0,0.0,0.0,0.0,0.0,0.0,0.0,0.0,0.0,0.0,0.0,0.0,0.0,0.0,0.0,0.0,0.0,0.0,0.0,0.0,0.0,0.0,0.0,0.0,0.0,0.0,0.0,0.0,0.0,0.0,0.0,0.0,0.0,0.0,0.0,0.0,0.0,0.5436,0.573,0.5986,0.6139,0.5692,0.5464,0.0,0.0,0.0,0.0,0.0,0.0,0.0,0.0,0.0,0.0,0.0,0.0,0.0,0.0,0.0,0.0,0.0,0.0,0.0,0.0,0.0,0.0,0.0,0.0,0.0,0.0,0.0,0.0,0.0,0.0,0.0,0.0,0.0,0.0,0.0,0.0,0.0,0.0,0.0,0.0,0.0,0.0,0.0,0.0,0.0,0.0,0.0,0.0,0.0,0.0,0.0,0.0,0.0,0.0,0.0,0.0,0.0,0.0,0.0,0.0,0.0,0.0,0.0,0.0,0.0,0.0,0.0,0.0,0.0,0.0,0.0,0.0,0.0,0.0,0.0,0.0,0.0,0.0,0.0,0.0,0.0,0.0,0.0,0.0,0.0,0.0,0.0,0.0,0.0,0.0,0.0,0.0,0.0,0.0,0.0,0.0,0.0,0.0,0.0,0.0,0.0,0.0,0.0,0.0,0.0,0.0,0.0,0.0,0.0,0.5885,0.6149,0.63,0.6353,0.6002,0.5796,0.5714,0.0,0.0,0.0,0.0,0.0,0.0,0.0,0.0,0.0,0.0,0.0,0.0,0.0,0.0,0.0,0.0,0.0,0.0,0.0,0.0,0.0,0.0,0.0,0.0,0.0,0.0,0.0,0.0,0.0,0.0,0.0,0.0,0.0,0.0,0.0,0.0,0.0,0.0,0.0,0.0,0.0,0.0,0.0,0.0,0.0,0.0,0.0,0.0,0.0,0.0,0.0,0.0,0.0,0.0,0.0,0.0,0.0,0.0,0.0,0.0,0.0,0.0,0.0,0.0,0.0,0.0,0.0,0.0,0.0,0.0,0.0,0.0,0.0,0.0,0.0,0.0,0.0,0.0,0.0,0.0,0.0,0.0,0.0,0.0,0.0,0.0,0.0,0.0,0.0,0.0,0.0,0.0,0.0,0.0,0.0,0.0,0.0,0.0,0.0,0.0,0.0,0.0,0.0,0.0,0.0,0.0,0.0,0.0,0.7027,0.7272,0.7146,0.6552,0.658,0.6276,0.0,0.0,0.0,0.0,0.0,0.0,0.0,0.0,0.0,0.0,0.0,0.0,0.0,0.0,0.0,0.0,0.0,0.0,0.0,0.0,0.0,0.0,0.0,0.0,0.0,0.0,0.0,0.0,0.0,0.0,0.0,0.0,0.0,0.0,0.0,0.0,0.0,0.0,0.0,0.0,0.0,0.0,0.0,0.0,0.0,0.0,0.0,0.0,0.0,0.0,0.0,0.0,0.0,0.0,0.0,0.0,0.0,0.0,0.0,0.0,0.0,0.0,0.0,0.0,0.0,0.0,0.0,0.0,0.0,0.0,0.0,0.0,0.0,0.0,0.0,0.0,0.0,0.0,0.0,0.0,0.0,0.0,0.0,0.0,0.0,0.0,0.0,0.0,0.0,0.0,0.0,0.0,0.0,0.0,0.0,0.0,0.0,0.0,0.0,0.0,0.0,0.0,0.0,0.0,0.0,0.0,0.0,0.0,0.0,0.7389,0.8328,0.8532,0.7814,0.7219,0.6725,0.0,0.0,0.0,0.0,0.0,0.0,0.0,0.0,0.0,0.0,0.0,0.0,0.0,0.0,0.0,0.0,0.0,0.0,0.0,0.0,0.0,0.0,0.0,0.0,0.0,0.0,0.0,0.0,0.0,0.0,0.0,0.0,0.0,0.0,0.0,0.0,0.0,0.0,0.0,0.0,0.0,0.0,0.0,0.0,0.0,0.0,0.0,0.0,0.0,0.0,0.0,0.0,0.0,0.0,0.0,0.0,0.0,0.0,0.0,0.0,0.0,0.0,0.0,0.0,0.0,0.0,0.0,0.0,0.0,0.0,0.0,0.0,0.0,0.0,0.0,0.0,0.0,0.0,0.0,0.0,0.0,0.0,0.0,0.0,0.0,0.0,0.0,0.0,0.0,0.0,0.0,0.0,0.0,0.0,0.0,0.0,0.0,0.0,0.0,0.0,0.0,0.0,0.0,0.0,0.0,0.0,0.0,0.0,0.7684,0.8204,0.9286,0.9586,0.9012,0.8283,0.7537,0.0,0.0,0.0,0.0,0.0,0.0,0.0,0.0,0.0,0.0,0.0,0.0,0.0,0.0,0.0,0.0,0.0,0.0,0.0,0.0,0.0,0.0,0.0,0.0,0.0,0.0,0.0,0.0,0.0,0.0,0.0,0.0,0.0,0.0,0.0,0.0,0.0,0.0,0.0,0.0,0.0,0.0,0.0,0.0,0.0,0.0,0.0,0.0,0.0,0.0,0.0,0.0,0.0,0.0,0.0,0.0,0.0,0.0,0.0,0.0,0.0,0.0,0.0,0.0,0.0,0.0,0.0,0.0,0.0,0.0,0.0,0.0,0.0,0.0,0.0,0.0,0.0,0.0,0.0,0.0,0.0,0.0,0.0,0.0,0.0,0.0,0.0,0.0,0.0,0.0,0.0,0.0,0.0,0.0,0.0,0.0,0.0,0.0,0.0,0.0,0.0,0.0,0.0,0.0,0.0,0.0,0.0,0.0,0.8462,0.9225,1.0082,1.0355,1.0026,0.9397,0.8423,0.0,0.0,0.0,0.0,0.0,0.0,0.0,0.0,0.0,0.0,0.0,0.0,0.0,0.0,0.0,0.0,0.0,0.0,0.0,0.0,0.0,0.0,0.0,0.0,0.0,0.0,0.0,0.0,0.0,0.0,0.0,0.0,0.0,0.0,0.0,0.0,0.0,0.0,0.0,0.0,0.0,0.0,0.0,0.0,0.0,0.0,0.0,0.0,0.0,0.0,0.0,0.0,0.0,0.0,0.0,0.0,0.0,0.0,0.0,0.0,0.0,0.0,0.0,0.0,0.0,0.0,0.0,0.0,0.0,0.0,0.0,0.0,0.0,0.0,0.0,0.0,0.0,0.0,0.0,0.0,0.0,0.0,0.0,0.0,0.0,0.0,0.0,0.0,0.0,0.0,0.0,0.0,0.0,0.0,0.0,0.0,0.0,0.0,0.0,0.0,0.0,0.0,0.0,0.0,0.0,0.0,0.0,0.0,0.8876,0.9366,1.0204,1.0534,1.0252,0.9342,0.8405,0.0,0.0,0.0,0.0,0.0,0.0,0.0,0.0,0.0,0.0,0.0,0.0,0.0,0.0,0.0,0.0,0.0,0.0,0.0,0.0,0.0,0.0,0.0,0.0,0.0,0.0,0.0,0.0,0.0,0.0,0.0,0.0,0.0,0.0,0.0,0.0,0.0,0.0,0.0,0.0,0.0,0.0,0.0,0.0,0.0,0.0,0.0,0.0,0.0,0.0,0.0,0.0,0.0,0.0,0.0,0.0,0.0,0.0,0.0,0.0,0.0,0.0,0.0,0.0,0.0,0.0,0.0,0.0,0.0,0.0,0.0,0.0,0.0,0.0,0.0,0.0,0.0,0.0,0.0,0.0,0.0,0.0,0.0,0.0,0.0,0.0,0.0,0.0,0.0,0.0,0.0,0.0,0.0,0.0,0.0,0.0,0.0,0.0,0.0,0.0,0.0,0.0,0.0,0.0,0.0,0.0,0.0,0.0,0.9016,0.9671,1.0282,1.0523,1.027,0.9566,0.872,0.0,0.0,0.0,0.0,0.0,0.0,0.0,0.0,0.0,0.0,0.0,0.0,0.0,0.0,0.0,0.0,0.0,0.0,0.0,0.0,0.0,0.0,0.0,0.0,0.0,0.0,0.0,0.0,0.0,0.0,0.0,0.0,0.0,0.0,0.0,0.0,0.0,0.0,0.0,0.0,0.0,0.0,0.0,0.0,0.0,0.0,0.0,0.0,0.0,0.0,0.0,0.0,0.0,0.0,0.0,0.0,0.0,0.0,0.0,0.0,0.0,0.0,0.0,0.0,0.0,0.0,0.0,0.0,0.0,0.0,0.0,0.0,0.0,0.0,0.0,0.0,0.0,0.0,0.0,0.0,0.0,0.0,0.0,0.0,0.0,0.0,0.0,0.0,0.0,0.0,0.0,0.0,0.0,0.0,0.0,0.0,0.0,0.0,0.0,0.0,0.0,0.0,0.0,0.0,0.0,0.0,0.0,0.8281,0.9139,1.0013,1.0351,1.0442,1.0292,0.9849,0.9102,0.8048,0.0,0.0,0.0,0.0,0.0,0.0,0.0,0.0,0.0,0.0,0.0,0.0,0.0,0.0,0.0,0.0,0.0,0.0,0.0,0.0,0.0,0.0,0.0,0.0,0.0,0.0,0.0,0.0,0.0,0.0,0.0,0.0,0.0,0.0,0.0,0.0,0.0,0.0,0.0,0.0,0.0,0.0,0.0,0.0,0.0,0.0,0.0,0.0,0.1361,0.0,0.0,0.0,0.0,0.0,0.0,0.0,0.0,0.0,0.0,0.0,0.0,0.0,0.0,0.0,0.0,0.0,0.0,0.0,0.0,0.0,0.0,0.0,0.0,0.0,0.0,0.0,0.0,0.0,0.0,0.0,0.0,0.0,0.0,0.0,0.0,0.0,0.0,0.0,0.0,0.0,0.0,0.0,0.0,0.0,0.0,0.0,0.0,0.0,0.0,0.0,0.0,0.0,0.0,0.0,0.0,0.8615,0.8925,0.9483,1.0238,1.0421,1.0442,1.0292,0.9849,0.9088,0.8074,0.0,0.0,0.0,0.0,0.0,0.0,0.0,0.0,0.0,0.0,0.0,0.0,0.0,0.0,0.0,0.0,0.0,0.0,0.0,0.0,0.0,0.0,0.0,0.0,0.0,0.0,0.0,0.0,0.0,0.0,0.0,0.0,0.0,0.0,0.0,0.0,0.0,0.0,0.0,0.0,0.0,0.0,0.0,0.0,0.0,0.0,0.0,0.0,0.0,0.1256,0.0,0.0,0.0,0.0,0.0,0.0,0.0,0.0,0.0,0.0,0.0,0.0,0.0,0.0,0.0,0.0,0.0,0.0,0.0,0.0,0.0,0.0,0.0,0.0,0.0,0.0,0.0,0.0,0.0,0.0,0.0,0.0,0.0,0.0,0.0,0.0,0.0,0.0,0.0,0.0,0.0,0.0,0.0,0.0,0.0,0.0,0.0,0.0,0.0,0.0,0.0,0.0,0.0,0.0,0.0,0.8395,0.9007,0.9628,1.0281,1.036,1.0367,1.0301,0.9723,0.8994,0.0,0.0,0.0,0.0,0.0,0.0,0.0,0.0,0.0,0.0,0.0,0.0,0.0,0.0,0.0,0.0,0.0,0.0,0.0,0.0,0.0,0.0,0.0,0.0,0.0,0.0,0.0,0.0,0.0,0.0,0.0,0.0,0.0,0.0,0.0,0.0,0.0,0.0,0.0,0.0,0.0,0.0,0.0,0.0,0.0,0.0,0.0,0.0,0.0,0.1432,0.1341,0.0,0.0,0.0,0.0,0.0,0.0,0.0,0.0,0.0,0.0,0.0,0.0,0.0,0.0,0.0,0.0,0.0,0.0,0.0,0.0,0.0,0.0,0.0,0.0,0.0,0.0,0.0,0.0,0.0,0.0,0.0,0.0,0.0,0.0,0.0,0.0,0.0,0.0,0.0,0.0,0.0,0.0,0.0,0.0,0.0,0.0,0.0,0.0,0.0,0.0,0.0,0.0,0.0,0.0,0.0,0.8097,0.8932,0.9655,1.0218,1.0236,1.0236,1.0238,0.9574,0.8913,0.0,0.0,0.0,0.0,0.0,0.0,0.0,0.0,0.0,0.0,0.0,0.0,0.0,0.0,0.0,0.0,0.0,0.0,0.0,0.0,0.0,0.0,0.0,0.0,0.0,0.0,0.0,0.0,0.0,0.0,0.0,0.0,0.0,0.0,0.0,0.0,0.0,0.0,0.0,0.0,0.0,0.0,0.0,0.0183,0.0,0.0,0.0,0.0,0.1551,0.1477,0.0,0.0,0.0,0.0,0.0,0.0,0.0,0.0,0.0,0.0,0.0,0.0,0.0,0.0,0.0,0.0,0.0,0.0,0.0,0.0,0.0,0.0,0.0,0.0,0.0,0.0,0.0,0.0,0.0,0.0,0.0,0.0,0.0,0.0,0.0,0.0,0.0,0.0,0.0,0.0,0.0,0.0,0.0,0.0,0.0,0.0,0.0,0.0,0.0,0.0,0.0,0.0,0.0,0.0,0.0,0.0,0.8412,0.8947,0.9484,1.0008,1.0033,1.0042,1.0019,0.9491,0.8913,0.0,0.0,0.0,0.0,0.0,0.0,0.0,0.0,0.0,0.0,0.0,0.0,0.0,0.0,0.0,0.0,0.0,0.0,0.0,0.0,0.0,0.0,0.0,0.0,0.0,0.0,0.0,0.0,0.0,0.0,0.0,0.0,0.0,0.0,0.0,0.0,0.0,0.0,0.0,0.0,0.0,0.0,0.0,0.082,0.1468,0.0,0.0,0.1553,0.1646,0.1578,0.0,0.0,0.0,0.0,0.0,0.0,0.0,0.0,0.0,0.0,0.0,0.0,0.0,0.0,0.0,0.0,0.0,0.0,0.0,0.0,0.0,0.0,0.0,0.0,0.0,0.0,0.0,0.0,0.0,0.0,0.0,0.0,0.0,0.0,0.0,0.0,0.0,0.0,0.0,0.0,0.0,0.0,0.0,0.0,0.0,0.0,0.0,0.0,0.0,0.0,0.0,0.0,0.0,0.0,0.0,0.7852,0.8498,0.9036,0.953,0.9979,1.0006,0.9965,0.9886,0.9259,0.8716,0.0,0.0,0.0,0.0,0.0,0.0,0.0,0.0,0.0,0.0,0.0,0.0,0.0,0.0,0.0,0.0,0.0,0.0,0.0,0.0,0.0,0.0,0.0,0.0,0.0,0.0,0.0,0.0,0.0,0.0,0.0,0.0,0.0,0.0,0.0,0.0,0.0,0.0,0.0,0.0,0.0,0.0,0.0,0.0907,0.0,0.0,0.0,0.1584,0.168,0.0,0.0,0.0,0.0,0.0,0.0,0.0,0.0,0.0,0.0,0.0,0.0,0.0,0.0,0.0,0.0,0.0,0.0,0.0,0.0,0.0,0.0,0.0,0.0,0.0,0.0,0.0,0.0,0.0,0.0,0.0,0.0,0.0,0.0,0.0,0.0,0.0,0.0,0.0,0.0,0.0,0.0,0.0,0.0,0.0,0.0,0.0,0.0,0.0,0.0,0.0,0.0,0.0,0.0,0.0,0.0,0.0,0.8505,0.907,0.9544,0.9925,0.9961,0.9893,0.9731,0.9069,0.0,0.0,0.0,0.0,0.0,0.0,0.0,0.0,0.0,0.0,0.0,0.0,0.0,0.0,0.0,0.0,0.0,0.0,0.0,0.0,0.0,0.0,0.0,0.0,0.0,0.0,0.0,0.3241,0.0,0.0,0.0,0.0,0.0,0.0,0.0,0.0,0.0,0.0,0.0,0.0,0.0,0.0,0.0345,0.0052,0.0933,0.1646,0.0,0.0,0.1645,0.1687,0.1707,0.171,0.0,0.0,0.0,0.0,0.0,0.0,0.0,0.0,0.0,0.0,0.0,0.0,0.0,0.0,0.0,0.0,0.0,0.0,0.0,0.0,0.0,0.0,0.0,0.0,0.0,0.0,0.0,0.0,0.0,0.0,0.0,0.0,0.0,0.0,0.0,0.0,0.0,0.0,0.0,0.0,0.0,0.0,0.0,0.0,0.0,0.0,0.0,0.0,0.0,0.0,0.0,0.0,0.0,0.0,0.8024,0.8492,0.8961,0.9417,0.98,0.982,0.9737,0.9604,0.9014,0.8587,0.0,0.0,0.0,0.0,0.0,0.0,0.0,0.0,0.0,0.0,0.0,0.0,0.0,0.0,0.0,0.0,0.0,0.0,0.0,0.0,0.0,0.0,0.0,0.0,0.0,0.0,0.0,0.0,0.0,0.0,0.0,0.0,0.0,0.0,0.0,0.0,0.0,0.0,0.0,0.0,0.0,0.1272,0.0156,0.1016,0.1768,0.0,0.171,0.1696,0.1712,0.176,0.1743,0.1614,0.0,0.0,0.0,0.0,0.0,0.0,0.0,0.0,0.0,0.0,0.0,0.0,0.0,0.0,0.0,0.0,0.0,0.0,0.0,0.0,0.0,0.0,0.0,0.0,0.0,0.0,0.0,0.0,0.0,0.0,0.0,0.0,0.0,0.0,0.0,0.0,0.0,0.0,0.0,0.0,0.0,0.0,0.0,0.0,0.0,0.0,0.0,0.0,0.0,0.0,0.0,0.0,0.0,0.7943,0.8485,0.8838,0.9265,0.978,0.9792,0.9707,0.9469,0.9356,0.9088,0.0,0.0,0.0,0.0,0.0,0.0,0.0,0.0,0.0,0.0,0.0,0.0,0.0,0.0,0.0,0.0,0.0,0.0,0.0,0.0,0.0,0.0,0.0,0.0,0.0,0.0,0.0,0.0,0.3697,0.3734,0.3905,0.0,0.0,0.0,0.0,0.0,0.0,0.0,0.0,0.0,0.0,0.156,0.1283,0.2901,0.0,0.0,0.2626,0.2534,0.2836,0.2598,0.2375,0.2229,0.1807,0.0,0.0,0.0,0.0,0.0,0.0,0.0,0.0,0.0,0.0,0.0,0.0,0.0,0.0,0.0,0.0,0.0,0.0,0.0,0.0,0.0,0.0,0.0,0.0,0.0,0.0,0.0,0.0,0.0,0.0,0.0,0.0,0.0,0.0,0.0,0.0,0.0,0.0,0.0,0.0,0.0,0.0,0.0,0.0,0.0,0.0,0.0,0.0,0.0,0.0,0.0,0.0,0.7889,0.8479,0.8771,0.9197,0.9793,0.9792,0.9754,0.9664,0.9643,0.9424,0.0,0.0,0.0,0.0,0.0,0.0,0.0,0.0,0.0,0.0,0.0,0.0,0.0,0.0,0.0,0.0,0.0,0.0,0.0,0.0,0.0,0.0,0.0,0.0,0.0,0.0,0.0,0.0,0.4299,0.4317,0.4217,0.0,0.0,0.0,0.0,0.0,0.0,0.0,0.0,0.0,0.0,0.2379,0.3056,0.4327,0.4917,0.4164,0.3461,0.3139,0.3467,0.3261,0.3009,0.2758,0.0,0.0,0.0,0.0,0.0,0.0,0.0,0.0,0.0,0.0,0.0,0.0,0.0,0.0,0.0,0.0,0.0,0.0,0.0,0.0,0.0,0.0,0.0,0.0,0.0,0.0,0.0,0.8646,0.0,0.0,0.7775,0.0,0.0,0.0,0.0,0.0,0.0,0.0,0.0,0.0,0.0,0.0,0.0,0.0,0.0,0.0,0.0,0.0,0.0,0.0,0.0,0.0,0.0,0.7913,0.8505,0.8784,0.9211,0.978,0.9807,0.9964,1.0214,0.979,0.9536,0.9566,0.0,0.0,0.0,0.0,0.0,0.0,0.0,0.0,0.0,0.0,0.0,0.0,0.0,0.0,0.0,0.0,0.0,0.0,0.0,0.0,0.0,0.0,0.0,0.0,0.0,0.0,0.5033,0.5366,0.5359,0.0,0.0,0.0,0.0,0.0,0.0,0.0,0.0,0.0,0.3024,0.3175,0.3871,0.5505,0.4898,0.4477,0.4949,0.4058,0.3326,0.3367,0.3545,0.3523,0.0,0.0,0.0,0.0,0.0,0.0,0.0,0.0,0.0,0.0,0.0,0.0,0.0,0.0,0.0,0.0,0.0,0.0,0.0,0.0,0.0,0.0,0.0,0.0,0.0,0.0,0.0,1.0363,0.9687,0.0,0.0,0.0,0.0,0.0,0.0,0.0,0.0,0.0,0.0,0.0,0.9368,0.903,0.0,0.0,0.0,0.0,0.0,0.0,0.0,0.0,0.0,0.0,0.0,0.0,0.8365,0.894,0.9105,0.9482,1.0113,1.0223,1.0081,0.9715,1.0053,1.0115,0.9879,0.0,0.0,0.0,0.0,0.0,0.0,0.0,0.0,0.0,0.0,0.0,0.0,0.0,0.0,0.0,0.0,0.0,0.0,0.0,0.0,0.0,0.0,0.0,0.0,0.0,0.6025,0.0,0.0,0.0,0.0,0.0,0.0,0.0,0.0,0.0,0.0,0.0,0.3692,0.3638,0.3663,0.4148,0.5409,0.5328,0.5066,0.0,0.0,0.0,0.0,0.0,0.0,0.0,0.0,0.0,0.0,0.0,0.0,0.0,0.0,0.4614,0.3302,0.2774,0.2529,0.2525,0.0,0.0,0.0,0.0,0.0,0.0,0.0,0.0,0.0,0.0,0.0,0.0,0.0,0.0,1.1412,0.0,1.0593,0.0,0.0,0.0,0.0,0.0,0.0,0.0,0.0,0.9886,1.0145,1.0676,1.0115,0.9964,0.0,0.9861,0.9378,0.0,0.0,0.0,0.0,0.0,0.0,0.0,0.0,0.8674,0.9219,0.9428,0.9835,1.0421,1.0605,1.0565,1.0262,1.0677,1.0746,1.0427,1.0055,0.9683,0.0,0.0,0.0,0.0,0.0,0.0,0.0,0.0,0.0,0.0,0.0,0.0,0.0,0.0,0.0,0.0,0.0,0.0,0.0,0.0,0.0,0.0,0.0,0.6461,0.0,0.0,0.0,0.0,0.0,0.0,0.0,0.0,0.0,0.4904,0.4817,0.4752,0.4732,0.4977,0.5304,0.57,0.0,0.0,0.0,0.0,0.0,0.0,0.0,0.5131,0.5235,0.4678,0.4221,0.4184,0.5307,0.608,0.5638,0.0,0.0,0.4473,0.3998,0.3761,0.3788,0.3881,0.3959,0.4023,0.428,0.4623,0.0,0.0,0.0,0.0,0.0,0.0,0.0,0.0,1.2344,1.231,0.0,1.1808,0.0,0.0,0.0,0.0,0.0,0.9912,0.0,0.0,1.147,1.1843,1.2182,1.1628,1.1377,1.1394,1.0867,1.059,1.0581,0.9791,0.0,0.0,0.0,0.0,0.0,0.0,0.8884,0.9326,0.9756,1.0229,1.0712,1.0957,1.1298,1.1733,1.1558,1.1347,1.1162,1.0622,1.0203,0.9896,0.9301,0.0,0.0,0.0,0.0,0.0,0.0,0.0,0.0,0.0,0.0,0.0,0.0,0.0,0.0,0.0,0.0,0.0,0.0,0.0,0.0,0.6947,0.0,0.0,0.0,0.0,0.0,0.0,0.0,0.0,0.0,0.0,0.5196,0.5521,0.5984,0.6285,0.0,0.0,0.0,0.0,0.637,0.6094,0.6033,0.6013,0.6022,0.6323,0.6412,0.5987,0.0,0.0,0.6272,0.6747,0.6926,0.6169,0.6067,0.6065,0.6107,0.5478,0.5027,0.5077,0.4947,0.4901,0.5031,0.5383,0.5709,1.6248,0.0,0.0,0.0,0.0,1.4538,1.4663,1.4829,1.4811,1.4337,1.3554,1.3222,0.0,0.0,0.0,0.0,0.0,0.0,1.2079,1.2584,1.251,1.2759,1.3314,1.2774,1.2415,1.2243,1.2134,1.1837,1.1386,1.1152,1.0634,0.9914,0.0,0.0,0.0,0.0,0.9926,1.0002,0.9897,1.0316,1.1264,1.1067,1.1172,1.1647,1.1287,1.0983,1.0787,1.0936,1.0667,0.9946,1.0094,0.0,0.0,0.0,0.0,0.0,0.0,0.0,0.0,0.0,0.0,0.0,0.0,0.0,0.0,0.0,0.0,0.0,0.0,0.0,0.6985,0.7051,0.711,0.0,0.0,0.0,0.0,0.0,0.0,0.0,0.0,0.0,0.678,0.6979,0.7192,0.0,0.0,0.8052,0.7604,0.7749,0.773,0.7291,0.6765,0.0,0.6561,0.6381,0.6321,0.6498,0.6677,0.6794,0.6896,0.7076,0.7125,0.6873,0.6865,0.6862,0.6831,0.6246,0.5771,0.5754,0.5842,0.5951,0.6007,0.625,0.6464,1.7369,1.6381,1.5817,1.5548,1.5523,1.5673,1.5844,1.5995,1.6047,1.5637,1.4944,1.4664,1.3675,1.221,1.1782,0.0,0.0,0.0,1.3335,1.3938,1.3785,1.4047,1.4561,1.3951,1.3612,1.353,1.3168,1.2815,1.2531,1.2242,1.1863,1.1383,0.0,0.0,1.0297,1.0578,1.0857,1.1156,1.1085,1.1427,1.2159,1.185,1.1734,1.1769,1.1454,1.1218,1.1129,1.1125,1.1009,1.0736,1.0606,1.0306,0.0,0.0,0.0,0.0,0.0,0.0,0.0,0.0,0.0,0.0,0.0,0.6347,0.6454,0.0,0.0,0.0,0.6816,0.6954,0.7078,0.7109,0.0,0.0,0.0,0.0,0.0,0.0,0.0,0.6973,0.7155,0.7387,0.7601,0.7818,0.7972,0.804,0.8273,0.8313,0.8031,0.0,0.8451,0.8209,0.7597,0.7187,0.7269,0.6991,0.6817,0.6924,0.6945,0.701,0.716,0.7196,0.7196,0.7196,0.7196,0.7196,0.7196,0.6803,0.6484,0.6465,0.6556,0.6642,0.6711,0.6829,0.6956,1.8129,1.8036,1.7515,1.6952,1.6444,1.6673,1.662,1.6404,1.6404,1.6378,1.6314,1.5996,1.5334,1.4384,1.3205,0.0,1.3402,1.3716,1.435,1.5196,1.5218,1.5497,1.5912,1.5153,1.4857,1.4995,1.4028,1.3646,1.3771,1.3166,1.2969,1.3151,1.1847,1.1344,1.1639,1.1488,1.1778,1.251,1.2828,1.3057,1.3155,1.302,1.2689,1.2212,1.1971,1.1856,1.1904,1.1324,1.1285,1.1885,1.0987,1.0582,1.0945,0.0,0.0,0.0,0.0,0.0,0.0,0.0,0.0,0.0,0.0,0.0,0.0,0.0,0.0,0.0,0.6861,0.0,0.7121,0.713,0.0,0.0,0.0,0.7225,0.7599,0.762,0.7627,0.7611,0.0,0.0,0.7816,0.8098,0.8368,0.8556,0.8452,0.8269,0.8025,0.8362,0.8673,0.8783,0.8367,0.7988,0.7845,0.7699,0.7449,0.7163,0.7182,0.7187,0.7185,0.721,0.721,0.7238,0.7224,0.7252,0.7265,0.7268,0.7252,0.7254,0.7109,0.7043,0.718,0.7221,0.7216,1.9103,1.8663,1.8344,1.7836,1.7301,1.7367,1.7341,1.7301,1.7287,1.7064,1.6674,1.6384,1.5792,1.4968,1.4432,1.4483,1.5033,1.5281,1.5591,1.6011,1.6221,1.6397,1.6476,1.6301,1.5909,1.5386,1.5119,1.4613,1.3918,1.4168,1.4211,1.4008,1.3727,1.308,1.22,1.2831,1.3022,1.2742,1.3064,1.3143,1.298,1.3118,1.3149,1.3028,1.2457,1.219,1.2196,1.192,1.1722,1.1681,1.1485,1.124,1.0999,1.0214,0.0,0.0,0.0,0.0,0.0,0.0,0.0,0.0,0.0,0.6926,0.7003,0.0,0.6953,0.0,0.7115,0.729,0.7324,0.7324,0.0,0.0,0.7119,0.7311,0.7846,0.7888,0.7857,0.7746,0.7782,0.7843,0.7933,0.8153,0.8321,0.8368,0.86,0.8574,0.8092,0.8474,0.8769,0.86,0.8275,0.7941,0.773,0.7325,0.7034,0.6907,0.7058,0.7168,0.7059,0.7141,0.7265,0.7451,0.7507,0.759,0.7745,0.7806,0.7779,0.7765,0.7465,0.7218,0.7446,0.7507,0.7507,1.9813,1.9492,1.9079,1.8712,1.836,1.7835,1.7608,1.7608,1.7608,1.7356,1.6974,1.6657,1.6217,1.5684,1.5488,1.5604,1.5922,1.6177,1.6445,1.6703,1.6857,1.6922,1.6908,1.6776,1.6475,1.6036,1.593,1.5478,1.4827,1.5126,1.506,1.4619,1.4917,1.4605,1.3718,1.4027,1.4231,1.4314,1.4266,1.3971,1.3404,1.3369,1.3217,1.2989,1.2544,1.2343,1.2473,1.2162,1.1993,1.1965,1.1874,1.1589,1.1027,1.0624,1.002,0.0,0.0,0.0,0.0,0.0,0.0,0.0,0.0,0.0,0.0,0.0,0.7296,0.7224,0.738,0.7498,0.7487,0.748,0.7376,0.7127,0.7231,0.7491,0.7954,0.7988,0.7968,0.7902,0.7885,0.7918,0.7994,0.8088,0.8207,0.83,0.8405,0.8436,0.8289,0.8414,0.8545,0.8634,0.8414,0.8064,0.7663,0.7229,0.6898,0.6816,0.6825,0.6876,0.6991,0.7308,0.7551,0.7537,0.76,0.7699,0.7788,0.7729,0.7688,0.7743,0.7485,0.7376,0.77,0.7729,0.7701,2.0299,2.0129,1.9622,1.933,1.9123,1.809,1.7649,1.7649,1.7649,1.7501,1.7233,1.6913,1.6655,1.6455,1.6378,1.6394,1.6484,1.6743,1.699,1.7239,1.7265,1.7239,1.7239,1.6948,1.6802,1.6749,1.6523,1.6244,1.5977,1.6032,1.5779,1.5281,1.5823,1.5953,1.5615,1.5258,1.547,1.6244,1.5725,1.5039,1.4146,1.3793,1.3347,1.2783,1.2561,1.2558,1.2729,1.2325,1.22,1.2408,1.2194,1.1761,1.1121,1.1081,1.0524,0.0,0.9008,0.0,0.0,0.0,0.0,0.0,0.0,0.0,0.0,0.7563,0.7598,0.7634,0.7624,0.7631,0.7631,0.7643,0.7518,0.7228,0.7439,0.7742,0.7982,0.8,0.8001,0.8001,0.8001,0.8001,0.8001,0.8001,0.8067,0.8194,0.8126,0.8147,0.8338,0.819,0.821,0.8728,0.8572,0.8073,0.7596,0.7232,0.696,0.6766,0.6575,0.6523,0.6861,0.7433,0.7774,0.7539,0.7641,0.7806,0.7709,0.7558,0.7492,0.7742,0.7584,0.7557,0.7865,0.7896,0.7879,2.0216,1.9566,1.9455,1.8972,1.8237,1.8009,1.7929,1.7916,1.7929,1.7782,1.7515,1.7233,1.7182,1.7317,1.6846,1.6898,1.7344,1.72,1.7266,1.7516,1.7516,1.7543,1.7503,1.7463,1.7318,1.712,1.704,1.6749,1.6231,1.6709,1.6775,1.6404,1.6988,1.7101,1.6812,0.0,0.0,0.0,1.6029,1.5422,1.4835,1.4732,1.4337,1.3599,1.3375,0.0,1.3016,1.2767,1.2674,1.271,1.2462,0.0,0.0,0.0,0.0,0.0,0.0,0.0,0.0,0.0,0.0,0.0,0.7528,0.7651,0.7236,0.7339,0.754,0.774,0.7773,0.7761,0.7755,0.7858,0.781,0.755,0.7758,0.7947,0.7989,0.8,0.8001,0.8001,0.8001,0.8001,0.8001,0.8001,0.8014,0.806,0.8008,0.8021,0.8082,0.8044,0.8051,0.8156,0.7997,0.763,0.7184,0.7007,0.6812,0.6538,0.6438,0.6498,0.6705,0.7082,0.7456,0.7528,0.7774,0.8058,0.8256,0.8295,0.8171,0.8308,0.8269,0.821,0.8043,0.7978,0.8032,2.0687,2.026,1.9963,1.9556,0.0,1.8961,1.8728,1.8427,1.7983,1.7742,1.7582,1.7461,1.7474,1.7569,1.7278,1.7318,1.7608,1.7477,1.7463,1.7608,1.7608,1.7608,1.7608,1.7608,1.7516,1.7411,1.7397,1.7173,1.6789,1.7173,1.7093,1.6523,1.7231,1.7369,1.693,1.7199,1.712,1.6646,1.6105,1.5558,1.502,1.4786,1.4382,1.3812,1.3609,0.0,0.0,0.0,0.0,0.0,0.0,0.0,0.0,1.1693,0.0,1.0825,1.0575,1.0274,0.9868,0.9481,0.891,0.817,0.8531,0.8496,0.779,0.7829,0.7952,0.8073,0.7984,0.7886,0.791,0.7959,0.7954,0.7825,0.791,0.7994,0.8,0.8001,0.8001,0.8001,0.8001,0.8001,0.8001,0.8001,0.8001,0.8001,0.8001,0.8001,0.7995,0.7999,0.7987,0.7996,0.7874,0.7642,0.7352,0.712,0.6954,0.6823,0.6737,0.6792,0.697,0.742,0.7742,0.7742,0.7936,0.8182,0.8205,0.8147,0.8108,0.8198,0.8147,0.8077,0.7994,0.8125,0.8288,2.1145,2.1001,2.0557,2.0272,2.013,1.9907,1.9458,1.8843,0.0,0.0,0.0,1.7648,1.7635,1.7608,1.7648,1.7635,1.7608,1.7648,1.7648,1.7608,1.7608,1.7608,1.7608,1.7608,1.7622,1.7662,1.7622,1.7516,1.7357,1.7516,1.7252,1.6668,1.7337,1.752,1.7026,1.7011,1.6901,1.6598,1.6237,1.573,1.5105,1.4701,1.4321,1.3969,1.3738,1.3621,1.3626,1.3341,1.3098,1.2917,1.2855,1.2492,1.1871,1.1873,1.1662,1.1188,1.0606,1.022,1.0114,0.9668,0.9345,0.9192,0.9429,0.9308,0.8643,0.8458,0.8375,0.8391,0.815,0.8001,0.8001,0.8001,0.8001,0.8001,0.8001,0.8001,0.8001,0.8001,0.8001,0.8001,0.8001,0.8001,0.8001,0.8001,0.8001,0.8001,0.8001,0.8001,0.8001,0.7995,0.8002,0.7989,0.7931,0.7838,0.7616,0.7422,0.726,0.716,0.7086,0.7127,0.737,0.7808,0.8024,0.7788,0.8037,0.8142,0.8009,0.7865,0.7746,0.797,0.7821,0.7734,0.7946,0.8202,0.8412,2.0886,2.0442,2.0587,2.0203,1.9541,1.9724,1.9458,1.887,1.847,1.8029,1.7621,1.7832,1.7806,1.7608,1.7846,1.7832,1.7608,1.7832,1.7832,1.7608,1.7608,1.7608,1.7608,1.7608,1.7716,1.7916,1.7716,1.7702,1.7849,1.7702,1.7529,1.7503,1.8061,1.8284,1.8096,1.7235,1.6735,1.6686,1.6612,1.6222,1.5444,1.5317,1.5017,1.4595,1.4276,1.4129,1.417,1.3707,1.3425,1.3389,1.3014,1.2651,1.2341,1.25,1.2404,1.1902,1.1746,1.1599,1.1347,1.0642,1.0025,0.9571,0.9567,0.9538,0.9415,0.8686,0.8281,0.8377,0.815,0.8001,0.8001,0.8001,0.8001,0.8001,0.8001,0.8001,0.8001,0.8001,0.8001,0.8001,0.8001,0.8001,0.8001,0.8001,0.8001,0.8001,0.8001,0.8001,0.8001,0.8001,0.8001,0.8001,0.7989,0.789,0.7684,0.7572,0.7478,0.7223,0.7223,0.7235,0.729,0.7579,0.7742,0.7641,0.7898,0.8022,0.8001,0.7976,0.7939,0.8001,0.7939,0.7939,0.8001,0.8067,0.8161,2.103,2.08,2.093,2.0743,2.0385,2.0328,1.9931,1.9393,1.9228,1.8721,1.8068,1.8173,1.8134,1.8042,1.8016,1.7938,1.7819,1.7793,1.7806,1.7793,1.7661,1.7687,1.7793,1.7674,1.7662,1.7769,1.7649,1.7662,1.7756,1.7662,1.7543,1.7424,1.7814,1.8072,1.8148,1.7801,1.7476,1.7183,1.6719,1.6229,1.5748,1.5547,1.5271,1.4924,1.4759,1.4554,1.4294,1.4066,1.3804,1.3509,1.3159,1.2856,1.2638,1.2601,1.248,1.2236,1.1944,1.1675,1.1397,1.0502,0.9862,0.9636,0.9612,0.9607,0.9616,0.8937,0.8554,0.8595,0.8249,0.8001,0.8001,0.8001,0.8001,0.8001,0.8001,0.8001,0.8001,0.8001,0.8001,0.8001,0.8001,0.8001,0.8001,0.8001,0.8001,0.8001,0.8001,0.8001,0.8001,0.8001,0.8001,0.8001,0.7988,0.7945,0.7827,0.7814,0.7764,0.764,0.7627,0.7627,0.7627,0.7739,0.7796,0.7821,0.7945,0.7988,0.8001,0.8001,0.8001,0.8001,0.8001,0.8001,0.8001,0.8001,0.8092,2.1203,2.1203,2.1203,2.1174,2.1057,2.0823,2.0348,1.982,1.979,1.934,1.866,1.8554,1.8475,1.8383,1.8253,1.8161,1.8082,1.7937,1.7951,1.7964,1.7793,1.7753,1.7885,1.7687,1.7635,1.7662,1.7648,1.7635,1.7689,1.7622,1.7569,1.7515,1.7715,1.7922,1.8197,1.8323,1.8168,1.7683,1.7046,1.6537,1.6281,1.5976,1.5711,1.5508,1.5286,1.4985,1.4606,1.4474,1.4171,1.3715,1.3368,1.3078,1.2871,1.2633,1.2492,1.2431,1.1993,1.1504,1.1088,1.0293,0.9727,0.9612,0.9612,0.9612,0.9562,0.9229,0.8919,0.8775,0.8373,0.8075,0.8013,0.8001,0.8001,0.8001,0.8001,0.8001,0.8001,0.8001,0.8001,0.8001,0.8001,0.8001,0.8001,0.8001,0.8001,0.8001,0.8001,0.8001,0.8001,0.8001,0.8001,0.8001,0.8001,0.7988,0.8001,0.7988,0.7976,0.8001,0.7976,0.7939,0.7951,0.7976,0.7988,0.7976,0.7988,0.8001,0.8001,0.8001,0.8001,0.8001,0.8001,0.8001,0.8001,0.8001,0.8113,2.1203,2.1203,2.1203,2.1013,2.0751,2.0721,2.0356,1.9844,1.9809,1.9592,1.9169,1.896,1.8685,1.8462,1.8672,1.8647,1.8396,1.8646,1.849,1.8043,1.7977,1.7832,1.7674,1.7621,1.7729,1.7889,1.7716,1.7716,1.7902,1.7716,1.7849,1.8316,1.8408,1.8532,1.8751,1.8535,1.8262,1.7965,1.79,1.7693,1.7441,1.6942,1.667,1.6658,1.5872,1.5449,1.5339,1.4929,1.4534,1.4209,1.3742,1.3344,1.3099,1.2865,1.2747,1.2745,1.2261,1.1614,1.0852,1.0474,1.0105,0.9661,0.9612,0.9612,0.9612,0.9554,0.9318,0.8902,0.8547,0.8267,0.8026,0.8013,0.8013,0.8001,0.8001,0.8001,0.8001,0.8001,0.8001,0.8001,0.8001,0.8001,0.8001,0.8001,0.8001,0.8001,0.8001,0.8001,0.8001,0.8001,0.8001,0.8001,0.8001,0.8001,0.8001,0.8001,0.8001,0.8001,0.8001,0.8001,0.8001,0.8001,0.8001,0.8001,0.8001,0.8001,0.8001,0.8001,0.8001,0.8001,0.8001,0.8001,0.8001,0.8014,0.8166,2.1203,2.1203,2.1203,2.1013,2.0722,2.0692,2.0355,1.9824,1.9795,1.9605,1.9314,1.9182,1.905,1.8919,1.8921,1.8817,1.8712,1.8646,1.8593,1.8516,1.8331,1.8173,1.8068,1.7911,1.7834,1.7756,1.7635,1.7662,1.7742,1.7809,1.8076,1.8464,1.8664,1.8788,1.8885,1.8951,1.8841,1.8553,1.8739,1.876,1.8561,1.7584,1.6931,1.6713,1.6222,1.5879,1.5719,1.5365,1.4963,1.4567,1.4172,1.3785,1.3353,1.2998,1.2783,1.2783,1.2455,1.1956,1.1343,1.0735,1.0174,0.9645,0.9616,0.9612,0.9607,0.9755,0.9661,0.9248,0.8872,0.8565,0.8485,0.8324,0.818,0.8031,0.8001,0.8001,0.8001,0.8001,0.8001,0.8001,0.8001,0.8001,0.8001,0.8001,0.8001,0.8001,0.8001,0.8001,0.8001,0.8001,0.8001,0.8001,0.8001,0.8001,0.8001,0.8001,0.8001,0.8001,0.8001,0.8001,0.8001,0.8001,0.8001,0.8001,0.8001,0.8001,0.8001,0.8001,0.8001,0.8001,0.8001,0.8001,0.8001,0.81,0.8275,2.1203,2.1189,2.1101,2.0853,2.0575,2.0501,2.0163,1.9707,1.9649,1.9518,1.9299,1.9285,1.9285,1.9272,1.9091,1.9013,1.8974,1.8763,1.8724,1.8869,1.8633,1.8488,1.8396,1.8122,1.7911,1.7727,1.7621,1.7635,1.7729,1.8009,1.8303,1.8611,1.8905,1.9045,1.9043,1.9286,1.9272,1.907,1.9286,1.9335,1.9009,1.8102,1.7412,1.7099,1.6733,1.6409,1.613,1.5948,1.5628,1.5164,1.4786,1.443,1.4067,1.3266,1.2788,1.2793,1.2702,1.2298,1.1624,1.11,1.0471,0.9718,0.9611,0.966,0.9775,0.9953,0.9946,0.9706,0.9329,0.9087,0.888,0.8656,0.8366,0.8062,0.8,0.7994,0.7994,0.8001,0.8001,0.8001,0.8001,0.8001,0.8001,0.8001,0.8001,0.8001,0.8001,0.8001,0.8001,0.8001,0.8001,0.8001,0.8001,0.8001,0.8001,0.8001,0.8001,0.8001,0.8001,0.8001,0.8001,0.8001,0.8001,0.8001,0.8001,0.8001,0.8001,0.8001,0.8001,0.8001,0.8001,0.8021,0.8107,0.822,0.8375,2.1203,2.1159,2.0867,2.0546,2.0197,1.9986,1.9664,1.9343,1.9342,1.9312,1.9298,1.9285,1.9285,1.9285,1.9259,1.9259,1.9259,1.9233,1.9104,1.8934,1.8882,1.8711,1.8383,1.8135,1.8003,1.7938,1.778,1.7769,1.7996,1.8316,1.8638,1.889,1.9186,1.9374,1.9359,1.9373,1.9401,1.9359,1.9388,1.9147,1.8665,1.8503,1.8257,1.7984,1.7473,1.7,1.6723,1.6657,1.6486,1.6234,1.5678,1.5352,1.5235,1.3752,1.2867,1.2871,1.3059,1.2612,1.1649,1.1658,1.1231,0.9957,0.9721,0.9791,1.0162,1.0262,1.0258,1.0175,0.9985,0.9697,0.9249,0.8967,0.8602,0.8191,0.8048,0.8042,0.8062,0.8124,0.8012,0.8001,0.8001,0.8013,0.8013,0.8001,0.8001,0.8001,0.8001,0.8001,0.8001,0.8001,0.8001,0.8001,0.8001,0.8001,0.8001,0.8001,0.8001,0.8001,0.8001,0.8001,0.8001,0.8001,0.8001,0.8001,0.8001,0.8001,0.8001,0.8001,0.8001,0.8001,0.8001,0.8047,0.8114,0.8241,0.8408,2.1072,2.0882,2.0751,2.0428,1.9944,1.984,1.9619,1.9299,1.9285,1.9285,1.9285,1.9285,1.9285,1.9285,1.9285,1.9285,1.9285,1.9285,1.9233,1.9169,1.9156,1.9,1.8724,1.8621,1.8345,1.8057,1.8129,1.8225,1.833,1.861,1.8797,1.893,1.9254,1.9416,1.9416,1.9416,1.9416,1.9416,1.9416,1.928,1.9053,1.8705,1.8515,1.8563,1.7869,1.7511,1.7585,1.7227,1.6976,1.6869,1.6452,1.6018,1.5463,1.44,1.3755,1.3773,1.3842,1.3689,1.3159,1.2259,1.1456,1.074,1.0416,1.042,1.0681,1.0915,1.0984,1.0729,1.0756,1.06,1.0199,0.9559,0.9063,0.8993,0.8726,0.8644,0.887,0.8726,0.8379,0.8093,0.7994,0.8063,0.8187,0.8113,0.8013,0.7994,0.7994,0.8001,0.8001,0.8001,0.8001,0.8001,0.8001,0.8001,0.8001,0.8001,0.8001,0.8001,0.8001,0.8001,0.8001,0.8001,0.8001,0.8001,0.8001,0.8001,0.8001,0.8001,0.8001,0.8001,0.8001,0.8028,0.8081,0.8269,0.8476,2.0999,2.0692,2.0575,2.0266,1.9796,1.9692,1.9516,1.9299,1.9285,1.9285,1.9285,1.9285,1.9285,1.9285,1.9285,1.9285,1.9285,1.9285,1.9285,1.9285,1.9285,1.9208,1.9052,1.8947,1.873,1.8487,1.8549,1.8645,1.8652,1.8796,1.8943,1.9078,1.9308,1.9416,1.9416,1.9416,1.9416,1.9416,1.9416,1.9361,1.9214,1.8744,1.8584,1.8635,1.8071,1.787,1.8201,1.7824,1.7637,1.7572,1.721,1.6572,1.5694,1.5196,1.4769,1.45,1.4509,1.4431,1.4083,1.2987,1.1968,1.1235,1.1235,1.1297,1.1445,1.169,1.1594,1.1295,1.1197,1.1211,1.0939,1.0274,0.9749,0.9622,0.9272,0.9191,0.9517,0.9273,0.8825,0.8404,0.8292,0.8366,0.8441,0.8274,0.8118,0.8012,0.7994,0.8001,0.8001,0.8001,0.8001,0.8001,0.8001,0.8001,0.8001,0.8001,0.8001,0.8001,0.8001,0.8001,0.8001,0.8001,0.8001,0.8001,0.8007,0.8001,0.8001,0.8001,0.8007,0.8014,0.8021,0.8054,0.8181,0.835,0.8539,2.0984,2.0634,2.0342,2.0033,1.9723,1.9459,1.9325,1.9285,1.9285,1.9285,1.9285,1.9285,1.9285,1.9299,1.9342,1.9327,1.9343,1.9386,1.9373,1.9356,1.9358,1.9386,1.932,1.914,1.9153,1.925,1.9043,1.893,1.896,1.8986,1.912,1.9334,1.9389,1.9416,1.9416,1.9416,1.9416,1.9416,1.9416,1.9239,1.8917,1.8677,1.8557,1.8557,1.8222,1.8195,1.8476,1.8449,1.8381,1.8355,1.7899,1.7077,1.6091,1.6007,1.5775,1.4961,1.4966,1.4708,1.4112,1.38,1.2898,1.1793,1.1895,1.2209,1.2206,1.2281,1.2114,1.1661,1.1473,1.1349,1.1309,1.1094,1.0574,0.9812,0.9609,0.9636,0.9595,0.9591,0.938,0.8894,0.8726,0.8775,0.8738,0.8565,0.8342,0.8168,0.8068,0.8026,0.8001,0.8001,0.8001,0.8001,0.8001,0.8001,0.8001,0.8001,0.8001,0.8001,0.8001,0.8001,0.8001,0.8001,0.8001,0.8007,0.8074,0.8081,0.8114,0.812,0.8128,0.8128,0.8108,0.8142,0.8296,0.8472,0.8594,2.0663,2.0342,2.0047,1.9752,1.9459,1.9342,1.9285,1.9285,1.9285,1.9285,1.9285,1.9285,1.9285,1.9356,1.9545,1.9648,1.9663,1.9827,1.9828,1.9708,1.9828,1.9902,1.9875,1.9809,1.9861,1.9929,1.9668,1.9526,1.9503,1.9499,1.9495,1.9431,1.9416,1.9416,1.9416,1.9416,1.9416,1.9416,1.9416,1.9348,1.9226,1.8945,1.8864,1.9067,1.8797,1.8676,1.8743,1.8597,1.8504,1.849,1.8319,1.7514,1.629,1.6143,1.6065,1.5614,1.5586,1.5582,1.5286,1.4814,1.4188,1.33,1.2765,1.2425,1.2386,1.2385,1.2244,1.1946,1.1959,1.1986,1.1828,1.1776,1.1272,1.0264,1.0163,0.9967,0.9693,0.9632,0.943,0.9137,0.8907,0.8882,0.8981,0.8845,0.8639,0.8565,0.8391,0.8212,0.805,0.8001,0.8001,0.8001,0.8001,0.8001,0.8001,0.8001,0.8001,0.8001,0.8001,0.8001,0.8001,0.7988,0.8001,0.8054,0.8127,0.818,0.822,0.8247,0.8269,0.8322,0.8349,0.841,0.8485,0.8574,0.8683,2.0873,2.055,2.0131,1.9768,1.9487,1.9371,1.9376,1.9441,1.9454,1.9454,1.9454,1.9454,1.9449,1.9542,1.9814,1.9948,1.9986,2.0376,2.0489,2.0298,2.0178,2.0197,2.0226,2.0328,2.0335,2.0272,2.009,1.9917,1.9794,1.9693,1.9562,1.9416,1.9495,1.9495,1.9428,1.9495,1.9522,1.9415,1.9416,1.9416,1.9334,1.9078,1.8997,1.9132,1.8904,1.8757,1.8744,1.8677,1.8651,1.8596,1.8449,1.761,1.638,1.6354,1.6342,1.611,1.6071,1.6045,1.5991,1.5328,1.4999,1.4584,1.3339,1.2426,1.239,1.2386,1.23,1.2205,1.2273,1.2337,1.2186,1.217,1.1845,1.126,1.0677,1.0276,0.9898,0.9827,0.9795,0.9607,0.9417,0.9341,0.938,0.9154,0.9006,0.9018,0.8696,0.8304,0.8093,0.8001,0.7988,0.7988,0.8001,0.8001,0.8001,0.8001,0.8001,0.8001,0.8001,0.8001,0.8001,0.7988,0.7995,0.8127,0.822,0.8295,0.8335,0.8403,0.8451,0.8505,0.8539,0.8553,0.8574,0.8628,0.8716,2.1479,2.1107,2.0491,2.0068,1.9799,1.9506,1.9532,1.9698,1.9711,1.9741,1.9756,1.9801,1.9848,1.9953,2.026,2.0399,2.0418,2.0964,2.1239,2.1065,2.0751,2.0509,2.0571,2.0805,2.0768,2.0529,2.043,2.0185,1.9881,1.9733,1.9445,1.9428,1.9653,1.9694,1.9547,1.9679,1.9708,1.9495,1.9441,1.9456,1.9387,1.9104,1.8943,1.8984,1.8784,1.8637,1.8637,1.8731,1.8851,1.8861,1.8454,1.7789,1.6998,1.6787,1.6727,1.6437,1.6362,1.6349,1.6163,1.567,1.5334,1.5503,1.4048,1.2561,1.2774,1.259,1.245,1.2477,1.2446,1.2395,1.2368,1.2363,1.2309,1.2231,1.1355,1.0694,1.0409,1.0379,1.0334,1.0285,1.0129,0.9978,1.0017,0.9606,0.9493,0.9352,0.8952,0.8539,0.809,0.7991,0.7989,0.7995,0.8007,0.8001,0.8001,0.8001,0.8001,0.8001,0.7988,0.7995,0.8007,0.8007,0.806,0.8187,0.8328,0.8396,0.8485,0.8553,0.8594,0.8615,0.8628,0.8621,0.8655,0.8723,0.8757,2.144,2.1093,2.0663,2.0304,2.0043,1.991,1.992,1.9996,2.0011,2.0176,2.0315,2.0375,2.0505,2.0755,2.1065,2.1233,2.1314,2.1656,2.1881,2.1836,2.1719,2.1613,2.162,2.1724,2.161,2.1321,2.1018,2.0701,2.0226,2.0204,1.9999,1.9443,1.9838,1.9945,1.9773,1.9958,1.9945,1.9733,1.9679,1.9574,1.94,1.9334,1.9281,1.9267,1.9173,1.9012,1.8797,1.8664,1.8843,1.9214,1.8889,1.8448,1.7955,1.7765,1.7431,1.7025,1.6935,1.6819,1.6574,1.6191,1.5963,1.588,1.5198,1.4714,1.4072,1.3041,1.2743,1.283,1.2695,1.2409,1.2395,1.2395,1.2408,1.2365,1.1958,1.1736,1.1671,1.1452,1.1131,1.0871,1.0733,1.0596,1.0403,1.0246,1.0002,0.9682,0.9327,0.8887,0.8361,0.8023,0.8048,0.8029,0.802,0.8001,0.8001,0.8001,0.8001,0.8001,0.7995,0.7989,0.8021,0.8033,0.8133,0.8247,0.8404,0.8499,0.8621,0.873,0.873,0.8737,0.8771,0.8777,0.8811,0.8858,0.8858,2.1899,2.1683,2.1222,2.091,2.0725,2.0588,2.0606,2.0711,2.0737,2.083,2.0986,2.1004,2.1135,2.1321,2.1659,2.1814,2.1869,2.2166,2.2299,2.2374,2.2567,2.2444,2.2234,2.2252,2.2181,2.1828,2.1421,2.1032,2.0658,2.0481,2.01,1.9904,2.0045,2.0119,1.9997,2.0254,2.025,1.9998,1.988,1.9706,1.9559,1.9455,1.9416,1.9416,1.9402,1.928,1.9092,1.8959,1.9074,1.9227,1.8974,1.8713,1.8765,1.8296,1.7849,1.7399,1.727,1.7102,1.6893,1.659,1.6245,1.5977,1.5907,1.5691,1.5181,1.431,1.4013,1.363,1.3125,1.2827,1.2722,1.2559,1.2409,1.2381,1.2395,1.2389,1.238,1.2085,1.1689,1.1309,1.1024,1.0876,1.0641,1.0533,1.0286,0.9956,0.9646,0.912,0.8583,0.8324,0.8149,0.8196,0.8159,0.8141,0.8101,0.8088,0.8061,0.8048,0.8064,0.8057,0.8141,0.8173,0.8287,0.8416,0.8512,0.8621,0.8743,0.8831,0.8845,0.8852,0.8906,0.8912,0.8912,0.8912,0.8905,2.2724,2.2633,2.1972,2.1679,2.1555,2.1324,2.1343,2.1592,2.1572,2.1618,2.1683,2.1697,2.175,2.1768,2.2121,2.2219,2.2227,2.2512,2.2626,2.2791,2.3035,2.303,2.2472,2.2662,2.2577,2.2236,2.1624,2.1364,2.1119,2.0481,2.0186,2.0243,2.0273,2.0256,2.0252,2.055,2.0535,2.0212,2.0067,1.9868,1.9708,1.9534,1.9468,1.9416,1.9416,1.9402,1.9348,1.9294,1.9301,1.9397,1.8804,1.8782,1.9097,1.8405,1.8012,1.7722,1.7513,1.7343,1.7212,1.6854,1.6433,1.6166,1.6004,1.5895,1.5745,1.554,1.5166,1.4318,1.3748,1.3396,1.3139,1.2749,1.245,1.2386,1.239,1.2395,1.2387,1.2387,1.2136,1.1541,1.1211,1.0996,1.0756,1.0523,1.0364,1.0315,1.0044,0.9761,0.9239,0.8874,0.8682,0.8574,0.8466,0.8309,0.8248,0.8201,0.8148,0.8129,0.8166,0.8206,0.8369,0.8442,0.8538,0.8633,0.8628,0.8703,0.8831,0.8899,0.8912,0.8912,0.8912,0.8912,0.8912,0.8912,0.8919,2.3478,2.3173,2.2585,2.2159,2.1936,2.1827,2.1852,2.1922,2.1906,2.2082,2.2254,2.2288,2.2439,2.2654,2.2695,2.2818,2.2766,2.2867,2.2923,2.2971,2.3301,2.3398,2.3196,2.3332,2.3181,2.284,2.2527,2.2098,2.1639,2.1315,2.093,2.0414,2.0675,2.0653,2.0334,2.0695,2.0735,2.0346,2.0376,2.0109,1.9681,1.9653,1.9587,1.9443,1.9416,1.9416,1.9348,1.9145,1.914,1.9213,1.9031,1.8779,1.8659,1.85,1.8353,1.8206,1.7967,1.7808,1.7701,1.725,1.6869,1.671,1.6298,1.59,1.5899,1.5892,1.5557,1.4891,1.4318,1.3832,1.3396,1.277,1.2449,1.239,1.2386,1.2395,1.2391,1.2391,1.2286,1.2149,1.2036,1.1959,1.1684,1.1325,1.1042,1.0707,1.0507,1.0401,0.9961,0.9438,0.9135,0.8906,0.8624,0.8458,0.8424,0.8364,0.831,0.8278,0.83,0.8381,0.8546,0.8639,0.8715,0.8716,0.8689,0.8791,0.8899,0.8912,0.8912,0.8912,0.8912,0.8912,0.8912,0.8912,0.8994,2.4053,2.3613,2.3292,2.2874,2.2493,2.2477,2.2477,2.245,2.2464,2.2575,2.2704,2.2722,2.2833,2.2992,2.3022,2.2992,2.3022,2.3008,2.3089,2.3217,2.3439,2.3677,2.4009,2.4003,2.3833,2.3368,2.3005,2.2587,2.2199,2.1809,2.1391,2.0939,2.1074,2.0867,2.0498,2.0777,2.0722,2.0494,2.0428,2.0214,1.988,1.9773,1.9681,1.9469,1.9416,1.9416,1.9389,1.9267,1.9245,1.9262,1.9068,1.8627,1.8296,1.8467,1.8623,1.8464,1.8183,1.8022,1.7862,1.7582,1.7279,1.7265,1.6868,1.659,1.6272,1.607,1.5843,1.5523,1.4989,1.4345,1.3751,1.2863,1.2515,1.2393,1.2416,1.2412,1.2417,1.24,1.2327,1.2269,1.2155,1.1896,1.1687,1.1578,1.1291,1.0759,1.065,1.0539,1.0342,0.9831,0.9416,0.9122,0.8782,0.8601,0.858,0.8546,0.8499,0.8473,0.8474,0.8575,0.871,0.8791,0.8852,0.8825,0.8784,0.8811,0.8885,0.8906,0.8912,0.8912,0.8912,0.8912,0.8912,0.8926,0.9062,2.4643,2.4172,2.4072,2.3722,2.3316,2.3299,2.3309,2.3299,2.3273,2.3293,2.3163,2.3149,2.3145,2.3036,2.3022,2.3022,2.3024,2.3119,2.3263,2.3439,2.3597,2.396,2.4372,2.4439,2.4273,2.3754,2.3457,2.3082,2.2616,2.2151,2.183,2.1647,2.1367,2.1105,2.0854,2.0699,2.0697,2.063,2.0468,2.0292,2.013,1.9973,1.9746,1.9455,1.9416,1.9416,1.9416,1.9376,1.9389,1.9388,1.9104,1.8599,1.826,1.8343,1.8797,1.8544,1.8289,1.8156,1.8062,1.7795,1.7569,1.7609,1.7569,1.7331,1.6868,1.6537,1.635,1.6084,1.5659,1.503,1.4401,1.3855,1.313,1.2877,1.2823,1.2924,1.2859,1.2712,1.2304,1.2164,1.2191,1.2041,1.17,1.1482,1.1154,1.0888,1.0784,1.0682,1.0504,1.018,0.9723,0.9325,0.8994,0.8784,0.8757,0.8716,0.8662,0.8649,0.8649,0.873,0.8838,0.8872,0.89,0.89,0.8885,0.8892,0.8885,0.8906,0.8912,0.8912,0.8912,0.8912,0.8926,0.894,0.9152,2.5486,2.5348,2.4865,2.457,2.4501,2.4487,2.4448,2.4487,2.442,2.4197,2.3795,2.3753,2.347,2.3175,2.3036,2.3036,2.3186,2.3362,2.3497,2.3644,2.3864,2.4275,2.4578,2.4673,2.4524,2.4392,2.4055,2.361,2.3059,2.2649,2.2287,2.2055,2.1747,2.1437,2.1099,2.0867,2.0728,2.0684,2.0561,2.0428,2.0279,2.0105,1.984,1.9455,1.9416,1.9416,1.9416,1.9416,1.9416,1.9402,1.9362,1.9218,1.8975,1.8773,1.8718,1.8717,1.8571,1.841,1.8343,1.7885,1.7662,1.7609,1.7609,1.7609,1.7411,1.7278,1.696,1.6576,1.6284,1.5844,1.5351,1.5026,1.4743,1.4423,1.4534,1.5063,1.4806,1.3858,1.276,1.2686,1.2534,1.2232,1.1891,1.1605,1.1386,1.114,1.0962,1.0916,1.082,1.0421,0.9931,0.9553,0.9188,0.9044,0.8934,0.8879,0.8831,0.8811,0.8804,0.8804,0.8878,0.8899,0.8912,0.896,0.8947,0.8906,0.8906,0.8912,0.8912,0.8912,0.8912,0.8919,0.905,0.9196,0.9363,2.5967,2.5679,2.539,2.5069,2.4851,2.4823,2.4823,2.4823,2.4809,2.464,2.4434,2.4337,2.4225,2.3972,2.3946,2.3861,2.3821,2.3863,2.3997,2.4111,2.4276,2.453,2.4817,2.4864,2.4746,2.4594,2.4394,2.3992,2.3371,2.3021,2.2717,2.2423,2.2191,2.1825,2.1298,2.1053,2.0867,2.0761,2.0563,2.0468,2.0401,2.0214,1.9773,1.9507,1.9416,1.9416,1.9416,1.9416,1.9416,1.9416,1.9402,1.9408,1.9315,1.918,1.8945,1.889,1.8798,1.8718,1.8566,1.8052,1.7628,1.7608,1.7622,1.7609,1.7609,1.753,1.7344,1.6868,1.663,1.6493,1.6375,1.6146,1.5641,1.5338,1.5658,1.6061,1.5963,1.4948,1.428,1.364,1.2981,1.2571,1.2096,1.1851,1.1673,1.1441,1.119,1.108,1.1061,1.0655,1.0166,0.9781,0.9409,0.9127,0.9016,0.9009,0.9016,0.9009,0.894,0.894,0.8974,0.8994,0.9035,0.9069,0.9022,0.8981,0.8919,0.8905,0.8912,0.8947,0.9029,0.9146,0.93,0.9462,0.9681,2.6486,2.5953,2.594,2.5638,2.5207,2.5169,2.5197,2.5152,2.5197,2.5138,2.4989,2.4989,2.4889,2.4792,2.476,2.4721,2.4685,2.472,2.4766,2.4793,2.4914,2.5047,2.5024,2.5057,2.4965,2.478,2.4595,2.4286,2.3744,2.3356,2.3074,2.2828,2.2716,2.2287,2.167,2.1419,2.1142,2.0885,2.0588,2.0544,2.0512,2.0174,1.9746,1.948,1.9428,1.9416,1.9416,1.9416,1.9416,1.9416,1.9416,1.9402,1.9402,1.9402,1.9281,1.9065,1.9025,1.8984,1.8752,1.8494,1.8108,1.7928,1.7672,1.7622,1.7609,1.7569,1.7411,1.6988,1.6816,1.6931,1.7001,1.666,1.6361,1.6378,1.6506,1.6763,1.7081,1.6673,1.5923,1.5024,1.3778,1.3141,1.2926,1.252,1.2418,1.182,1.1552,1.1141,1.1072,1.0847,1.0427,1.0023,0.9637,0.9223,0.9092,0.912,0.9161,0.9224,0.9077,0.8986,0.9062,0.9132,0.918,0.927,0.9165,0.9102,0.9014,0.9001,0.9111,0.9208,0.9264,0.9426,0.9695,0.9945,1.0163,2.7395,2.6854,2.684,2.6663,2.6382,2.6341,2.6368,2.6354,2.6327,2.6081,2.5638,2.5596,2.5376,2.5086,2.4979,2.5263,2.5591,2.5727,2.5641,2.5588,2.5745,2.5589,2.5211,2.5088,2.5103,2.4965,2.4749,2.4425,2.4054,2.3712,2.3495,2.3324,2.2871,2.2514,2.2257,2.1887,2.1595,2.145,2.1197,2.0937,2.065,2.0306,1.9998,1.9746,1.9535,1.9416,1.9416,1.9416,1.9416,1.9416,1.9416,1.9416,1.9416,1.9416,1.9388,1.9348,1.9321,1.9213,1.9012,1.8949,1.8805,1.8359,1.7941,1.7675,1.7689,1.7675,1.7596,1.7529,1.7305,1.7355,1.7588,1.7479,1.7403,1.769,1.805,1.8482,1.8775,1.8035,1.7341,1.6543,1.5342,1.4597,1.4138,1.3631,1.314,1.2478,1.188,1.1492,1.1103,1.0932,1.0688,1.0298,0.9917,0.9523,0.9433,0.9419,0.9461,0.9525,0.9398,0.9243,0.9405,0.9546,0.9465,0.9485,0.9415,0.9416,0.9432,0.9447,0.9439,0.9446,0.9509,0.9803,1.017,1.0396,1.0603,2.8054,2.7252,2.7219,2.7171,2.7062,2.7062,2.7049,2.7062,2.7035,2.6831,2.6541,2.6595,2.65,2.625,2.6348,2.65,2.6667,2.6708,2.6614,2.6414,2.6502,2.6265,2.5824,2.564,2.5548,2.5134,2.4965,2.4888,2.4502,2.3961,2.3588,2.3526,2.3151,2.2778,2.2668,2.2337,2.2086,2.1846,2.1528,2.1059,2.0542,2.0279,2.0079,1.9785,1.9562,1.9443,1.9416,1.9416,1.9416,1.9416,1.9416,1.9416,1.9416,1.9416,1.9402,1.9402,1.9402,1.9321,1.9243,1.9336,1.9178,1.885,1.8249,1.7773,1.7954,1.7943,1.7929,1.8103,1.7835,1.7873,1.8176,1.8294,1.8437,1.8722,1.9043,1.9183,1.9354,1.9188,1.8512,1.7733,1.6979,1.6227,1.5382,1.457,1.3919,1.3172,1.2562,1.208,1.1568,1.1116,1.0874,1.0586,1.021,0.9825,0.9856,0.9893,0.9952,1.0003,1.001,0.991,1.0011,1.0069,0.9997,1.0032,1.012,1.0062,0.9953,0.9751,0.9585,0.9664,0.975,1.0157,1.0545,1.0747,1.0995,2.8516,2.7812,2.7597,2.7476,2.7395,2.7395,2.7381,2.7381,2.7368,2.7273,2.7192,2.7292,2.7411,2.7492,2.7449,2.7414,2.7614,2.7593,2.7458,2.7307,2.7177,2.6872,2.6434,2.6205,2.5824,2.5334,2.5134,2.5042,2.4795,2.4348,2.3868,2.3697,2.3432,2.3074,2.2809,2.2685,2.2529,2.22,2.1886,2.1366,2.0746,2.0443,2.0209,1.991,1.9629,1.9416,1.9416,1.9416,1.9416,1.9416,1.9416,1.9416,1.9416,1.9416,1.9416,1.9416,1.9416,1.9402,1.9364,1.9386,1.9327,1.8984,1.878,1.8368,1.8575,1.84,1.8183,1.8424,1.8276,1.8423,1.873,1.8793,1.8884,1.9059,1.9363,1.9388,1.9388,1.9257,1.9092,1.8475,1.7885,1.7693,1.677,1.5625,1.4724,1.392,1.3283,1.2702,1.2205,1.1663,1.1334,1.114,1.0791,1.0455,1.0343,1.0397,1.0452,1.052,1.0535,1.0551,1.0611,1.0634,1.0584,1.0665,1.0718,1.0569,1.0362,1.0038,0.9776,1.0134,1.0458,1.0628,1.089,1.111,1.1354,2.873,2.892,2.8188,2.7718,2.7449,2.7395,2.7441,2.7495,2.7454,2.7492,2.7465,2.7414,2.7644,2.7844,2.783,2.8019,2.864,2.831,2.814,2.8006,2.7885,2.7524,2.7025,2.6525,2.6114,2.5887,2.5491,2.5167,2.5043,2.4812,2.4378,2.4069,2.3728,2.3386,2.3168,2.3089,2.2855,2.2526,2.2182,2.19,2.1389,2.0977,2.0544,2.014,1.9722,1.9416,1.9416,1.9416,1.9416,1.9416,1.9416,1.9416,1.9416,1.9416,1.9416,1.9416,1.9416,1.9416,1.9405,1.9366,1.9102,1.8905,1.89,1.907,1.9138,1.8738,1.8545,1.8557,1.8531,1.8637,1.881,1.8901,1.9089,1.9252,1.9416,1.9416,1.9401,1.9402,1.9206,1.8956,1.8666,1.8351,1.8075,1.6904,1.5817,1.4995,1.3753,1.314,1.3022,1.2575,1.2134,1.1828,1.1496,1.1193,1.0906,1.0962,1.1182,1.1201,1.1181,1.1179,1.1183,1.1161,1.1107,1.1033,1.1011,1.0891,1.0831,1.0681,1.0658,1.0926,1.112,1.11,1.1276,1.1544,1.1777,2.8893,2.9052,2.8761,2.8468,2.8207,2.8194,2.8127,2.8018,2.8217,2.8319,2.8273,2.7953,2.8029,2.8391,2.858,2.8788,2.9317,2.9148,2.8965,2.8865,2.8663,2.8214,2.7614,2.7029,2.658,2.6316,2.5778,2.5421,2.539,2.5187,2.4844,2.4487,2.41,2.3883,2.3697,2.3448,2.312,2.2731,2.2465,2.223,2.191,2.1555,2.1055,2.0504,2.0191,1.9723,1.9472,1.9416,1.9416,1.9416,1.9416,1.9416,1.9416,1.9416,1.9416,1.9416,1.9416,1.9416,1.9419,1.9411,1.9279,1.9211,1.9273,1.9414,1.9383,1.8977,1.8905,1.8905,1.8851,1.8891,1.9146,1.9199,1.9279,1.9374,1.9416,1.9416,1.9415,1.9413,1.9373,1.9142,1.8968,1.8752,1.8504,1.8158,1.7099,1.6031,1.4736,1.3686,1.3639,1.3409,1.2943,1.2672,1.2409,1.2232,1.197,1.1953,1.1957,1.1903,1.184,1.171,1.1631,1.1601,1.1532,1.1428,1.136,1.1344,1.1344,1.1398,1.1366,1.1221,1.1274,1.1366,1.1628,1.1908,1.2146,2.9153,2.9349,2.9356,2.9152,2.8834,2.8727,2.8594,2.846,2.8588,2.8814,2.8859,2.8424,2.8534,2.9011,2.9186,2.9376,2.9618,2.9597,2.9532,2.9379,2.9153,2.8797,2.8244,2.7692,2.7219,2.6863,2.6284,2.5925,2.5925,2.5706,2.5344,2.4937,2.4564,2.4348,2.3991,2.3759,2.3355,2.3012,2.2762,2.2574,2.2266,2.1852,2.1447,2.0809,2.0345,1.994,1.9602,1.9489,1.9416,1.9416,1.9416,1.9416,1.9416,1.9416,1.9416,1.9416,1.9416,1.9416,1.942,1.9398,1.942,1.9347,1.9376,1.9414,1.9338,1.9186,1.9173,1.9266,1.9173,1.9145,1.9416,1.9361,1.9354,1.9406,1.9415,1.9401,1.941,1.9407,1.9412,1.933,1.9199,1.9083,1.891,1.8634,1.7886,1.6792,1.5573,1.4715,1.4584,1.4243,1.3674,1.3498,1.3395,1.3247,1.3127,1.2847,1.261,1.2627,1.2491,1.2133,1.2031,1.2018,1.1867,1.167,1.1647,1.1776,1.1761,1.1655,1.1451,1.1239,1.1407,1.166,1.1755,1.2023,1.2365,2.9554,2.996,2.9968,2.964,2.9105,2.882,2.8687,2.8654,2.8559,2.8687,2.9006,2.8926,2.9174,2.9562,2.9696,2.9814,2.9896,2.9868,2.976,2.963,2.9524,2.9257,2.8826,2.8307,2.7837,2.7704,2.7091,2.6581,2.6549,2.6191,2.5799,2.5453,2.5075,2.4672,2.4146,2.3805,2.3604,2.3526,2.3246,2.2981,2.2646,2.2211,2.1813,2.1141,2.0582,2.0187,1.9835,1.9576,1.9489,1.9475,1.943,1.9416,1.9416,1.9416,1.9416,1.9416,1.9416,1.9416,1.9402,1.9417,1.9406,1.9448,1.9478,1.9516,1.9444,1.9388,1.9388,1.948,1.9374,1.9347,1.9401,1.9441,1.9458,1.9443,1.9439,1.9564,1.9571,1.9398,1.9403,1.948,1.9443,1.9359,1.9243,1.8996,1.8428,1.7499,1.6352,1.5769,1.5549,1.5049,1.4457,1.4413,1.438,1.4257,1.4054,1.3526,1.3261,1.3294,1.3144,1.2784,1.2554,1.252,1.2308,1.2004,1.2055,1.2282,1.2079,1.1853,1.1759,1.1717,1.1803,1.196,1.2017,1.2144,1.2472,2.974,3.002,3.0203,3.006,2.9633,2.9178,2.8874,2.88,2.9092,2.9409,2.9656,2.9839,3.007,3.0283,3.0336,3.0377,3.0456,3.0238,3.0114,3.006,2.9878,2.9597,2.9227,2.877,2.8385,2.8162,2.7633,2.7296,2.7248,2.6895,2.6432,2.6019,2.5369,2.4888,2.4533,2.427,2.4178,2.396,2.379,2.3604,2.3293,2.298,2.2458,2.1614,2.1166,2.0707,2.0211,1.9909,1.9721,1.9678,1.9605,1.9488,1.9474,1.9459,1.943,1.9416,1.9416,1.9416,1.9416,1.9402,1.9402,1.9498,1.9651,1.9651,1.9498,1.9602,1.9641,1.9614,1.952,1.9547,1.9614,1.9667,1.9662,1.9542,1.9589,1.9891,1.9913,1.957,1.9432,1.9541,1.9575,1.9322,1.9152,1.9169,1.8725,1.8221,1.7177,1.6654,1.639,1.5832,1.5271,1.5364,1.5377,1.5259,1.5006,1.46,1.4429,1.4544,1.4084,1.3444,1.3256,1.3214,1.3029,1.2877,1.2817,1.2751,1.2675,1.2564,1.2341,1.2275,1.234,1.2239,1.2161,1.2305,1.2563,3.0265,3.0177,3.0514,3.0381,2.9962,2.9462,2.9186,2.9186,2.9601,3.0015,3.0364,3.0617,3.0844,3.1023,3.1071,3.0993,3.1025,3.083,3.046,3.0436,3.0186,2.9907,2.9534,2.9246,2.9135,2.8849,2.8469,2.8101,2.8106,2.7904,2.7235,2.6334,2.5521,2.5058,2.4764,2.4626,2.4456,2.4255,2.4115,2.393,2.3683,2.3394,2.2958,2.2332,2.1816,2.1363,2.0816,2.0414,2.0097,2.004,1.9895,1.9721,1.9692,1.9605,1.9562,1.9533,1.9445,1.943,1.9416,1.9416,1.9416,1.9416,1.9777,1.9822,1.9669,1.9772,1.9762,1.9733,1.9666,1.972,1.98,1.9853,1.9893,1.9786,1.9734,2.0008,2.0399,2.0067,1.9859,1.9939,1.977,1.9461,1.9138,1.911,1.9007,1.853,1.801,1.7675,1.7333,1.6839,1.6365,1.6403,1.6362,1.6224,1.6052,1.5799,1.5715,1.5789,1.5156,1.4368,1.4274,1.4262,1.4001,1.3741,1.3664,1.3579,1.3485,1.3356,1.318,1.3006,1.2882,1.2698,1.2394,1.2459,1.2669,3.1087,3.0569,3.0942,3.0739,3.0103,2.9886,2.9773,2.9803,2.9877,3.0374,3.1097,3.116,3.143,3.173,3.1776,3.1609,3.1354,3.1281,3.102,3.0684,3.0533,3.0274,3.0069,2.9882,2.98,2.9723,2.945,2.9026,2.9039,2.8553,2.777,2.6799,2.5948,2.5416,2.5106,2.4889,2.4719,2.4595,2.4425,2.427,2.4085,2.358,2.3248,2.2751,2.2245,2.1831,2.1363,2.1031,2.0802,2.0644,2.0429,2.0342,2.0198,1.9996,1.9881,1.9735,1.9547,1.9475,1.9416,1.9416,1.9416,1.9416,1.9444,1.9717,1.9857,1.9844,1.9844,1.9892,1.9878,1.9907,1.9947,2.0065,2.0199,2.0021,1.9822,2.0223,2.0825,2.0788,2.0578,2.0422,2.0176,1.9875,1.9492,1.9369,1.9283,1.8654,1.8446,1.9051,1.8691,1.8255,1.7825,1.7522,1.743,1.7185,1.699,1.6733,1.6651,1.6616,1.616,1.5504,1.5437,1.5344,1.5128,1.4892,1.4572,1.4367,1.4178,1.4109,1.4102,1.3879,1.3545,1.3026,1.2693,1.2629,1.2751,3.176,3.1766,3.1699,3.1415,3.108,3.0979,3.0639,3.0194,3.0669,3.1181,3.1482,3.2007,3.2148,3.2162,3.2147,3.1946,3.1773,3.1643,3.1585,3.1339,3.1034,3.0859,3.0645,3.0405,3.0384,3.0302,3.0112,2.9914,2.9924,2.9377,2.8307,2.739,2.669,2.606,2.548,2.5248,2.5107,2.4935,2.4749,2.4626,2.4409,2.3978,2.361,2.3108,2.2686,2.228,2.1921,2.1589,2.1389,2.1289,2.0802,2.0558,2.0558,2.0429,2.0299,1.9851,1.9707,1.962,1.9446,1.9416,1.9413,1.9411,1.9412,1.943,1.9611,1.9784,1.9892,1.9998,2.0105,2.016,2.0267,2.0414,2.0368,2.0149,2.0134,2.0604,2.1096,2.1032,2.0821,2.0686,2.0466,2.0212,1.9839,1.9728,1.9541,1.8859,1.8823,1.9599,1.995,1.9463,1.9009,1.867,1.8413,1.8125,1.7785,1.7522,1.7471,1.7372,1.703,1.6783,1.6683,1.6554,1.6315,1.6003,1.5646,1.519,1.4752,1.4773,1.4939,1.4493,1.4107,1.352,1.3037,1.2997,1.2848,3.2008,3.1883,3.1908,3.1804,3.1693,3.1872,3.1736,3.1528,3.1746,3.1892,3.2087,3.2474,3.2612,3.2483,3.2455,3.2291,3.2018,3.1989,3.1903,3.1657,3.1518,3.1381,3.1152,3.102,3.1095,3.102,3.0944,3.0801,3.0649,2.964,2.8507,2.8267,2.7646,2.6574,2.588,2.5648,2.5479,2.5228,2.5026,2.4965,2.4747,2.4437,2.3989,2.354,2.3158,2.2806,2.2447,2.2145,2.2002,2.1902,2.1387,2.1173,2.1145,2.1031,2.0572,2.0183,2.0177,2.0044,1.9866,1.9508,1.9463,1.9432,1.9463,1.956,1.9715,1.9933,2.0052,2.0159,2.0292,2.0428,2.063,2.0735,2.0498,2.0244,2.0631,2.102,2.1088,2.1083,2.0996,2.0875,2.0675,2.0467,2.029,2.0163,1.9995,1.9607,1.958,2.0099,2.0521,2.0445,1.9947,1.9517,1.928,1.9025,1.8684,1.8422,1.849,1.8506,1.8427,1.8195,1.8015,1.7791,1.7576,1.7155,1.67,1.6225,1.5751,1.5723,1.5739,1.529,1.4882,1.4446,1.3881,1.3383,1.3178,3.201,3.1447,3.1819,3.2005,3.2013,3.2523,3.2957,3.3298,3.2775,3.2622,3.2721,3.2698,3.2684,3.2627,3.2627,3.2526,3.2348,3.2305,3.2286,3.192,3.1798,3.1788,3.1924,3.1761,3.172,3.1953,3.1849,3.132,3.0922,3.0187,2.9507,2.9157,2.8112,2.7027,2.6135,2.6293,2.6063,2.5489,2.5441,2.5426,2.5057,2.4746,2.4466,2.4111,2.3739,2.3372,2.3059,2.2813,2.2612,2.2441,2.2256,2.2014,2.2079,2.1603,2.1046,2.0845,2.0885,2.0678,2.0337,1.9916,1.9734,1.9649,1.9577,1.9901,2.0201,2.0048,2.0068,2.0346,2.0494,2.0641,2.0831,2.0909,2.0766,2.0653,2.0833,2.1056,2.1089,2.1097,2.1052,2.0975,2.092,2.0737,2.0682,2.0555,2.0505,2.031,2.0349,2.0716,2.0821,2.0963,2.0671,2.0193,1.9976,1.9726,1.9556,1.938,1.9567,1.9614,1.9493,1.9234,1.8776,1.8752,1.8836,1.8205,1.7545,1.7248,1.692,1.6753,1.6461,1.612,1.5746,1.5453,1.4882,1.422,1.3564,3.2499,3.2655,3.2786,3.262,3.2411,3.3187,3.3437,3.3341,3.3358,3.3226,3.3069,3.2812,3.2684,3.2684,3.2698,3.2647,3.2639,3.2658,3.2775,3.2772,3.2592,3.2486,3.2624,3.2217,3.2256,3.228,3.2088,3.1725,3.1586,3.1056,3.029,2.9355,2.8645,2.8002,2.6437,2.6752,2.6726,2.5932,2.6129,2.5885,2.5318,2.4879,2.4518,2.4261,2.3951,2.356,2.3267,2.3064,2.2928,2.2823,2.278,2.304,2.3529,2.2485,2.194,2.1801,2.1774,2.1554,2.1124,2.064,2.0461,2.0621,2.0724,2.0769,2.068,2.0242,2.014,2.046,2.0695,2.0842,2.0962,2.1013,2.1051,2.1022,2.0979,2.1022,2.1093,2.1093,2.1093,2.1093,2.1093,2.1053,2.1,2.0968,2.0948,2.0916,2.0887,2.1001,2.0972,2.1035,2.0924,2.0556,2.0501,2.0318,2.0195,2.0103,2.0164,2.0138,1.9973,1.9734,1.9495,1.9552,1.9544,1.894,1.8371,1.798,1.7626,1.7368,1.7093,1.6753,1.6494,1.6153,1.5844,1.5257,1.4408,3.2197,3.2472,3.2923,3.2958,3.2923,3.3726,3.4009,3.3859,3.3817,3.365,3.3324,3.2926,3.2684,3.2684,3.2698,3.2857,3.2919,3.3023,3.3283,3.3473,3.3434,3.3255,3.2998,3.2705,3.2737,3.2712,3.2289,3.2028,3.2121,3.1233,3.0284,2.979,2.9606,2.8683,2.712,2.7472,2.74,2.6572,2.6935,2.6601,2.5852,2.5438,2.4768,2.4438,2.4052,2.3735,2.3471,2.3327,2.3389,2.3435,2.3486,2.3595,2.377,2.3236,2.2783,2.2701,2.266,2.2587,2.2065,2.1761,2.1479,2.1655,2.1923,2.1978,2.1422,2.0991,2.0513,2.0764,2.0869,2.1015,2.1029,2.108,2.108,2.1051,2.1051,2.1064,2.1093,2.1093,2.1093,2.1093,2.1093,2.108,2.104,2.104,2.1019,2.1019,2.1093,2.1093,2.1093,2.1093,2.0967,2.0885,2.0777,2.079,2.0703,2.0595,2.057,2.0504,2.0409,2.0396,2.0303,2.0339,2.0208,1.9576,1.8992,1.8511,1.8173,1.7964,1.7561,1.7174,1.6996,1.6818,1.651,1.6185,1.5456,3.1626,3.1735,3.2691,3.3111,3.3251,3.4098,3.4471,3.4429,3.4199,3.3932,3.3636,3.3097,3.2812,3.2698,3.2704,3.3002,3.3182,3.3223,3.3611,3.3903,3.3875,3.388,3.3659,3.3296,3.3199,3.2922,3.2547,3.2417,3.2392,3.1406,3.0714,3.0487,2.974,2.8821,2.8352,2.8155,2.799,2.7524,2.7478,2.7358,2.6826,2.6266,2.5507,2.4845,2.4399,2.4194,2.3929,2.3775,2.3948,2.3879,2.4018,2.4158,2.4129,2.3861,2.3641,2.3466,2.3577,2.3459,2.3233,2.323,2.2871,2.2739,2.3013,2.2826,2.2234,2.1834,2.1364,2.1081,2.1186,2.1082,2.1096,2.1093,2.1093,2.1093,2.1093,2.1093,2.1093,2.1093,2.1093,2.1093,2.1093,2.1093,2.1093,2.1093,2.1093,2.1093,2.1093,2.1093,2.1093,2.1093,2.103,2.0998,2.0967,2.0998,2.103,2.0951,2.0808,2.0821,2.0774,2.0951,2.103,2.0848,2.0591,2.0202,1.9647,1.9136,1.8816,1.8591,1.8141,1.775,1.7481,1.7335,1.7077,1.6737,1.6379,3.1591,3.1691,3.2669,3.3111,3.3251,3.4084,3.4493,3.4443,3.4227,3.4044,3.3904,3.3607,3.3211,3.2698,3.2684,3.2863,3.3078,3.33,3.3693,3.4016,3.4375,3.4559,3.4401,3.3903,3.3477,3.3083,3.2673,3.2344,3.2324,3.165,3.0975,3.054,3.0453,2.9718,2.9023,2.8931,2.899,2.851,2.8466,2.854,2.7779,2.7239,2.6802,2.6388,2.6168,2.5737,2.5304,2.488,2.4524,2.4243,2.4281,2.4606,2.47,2.4609,2.4414,2.4406,2.4505,2.4264,2.4191,2.4286,2.3946,2.3635,2.3759,2.3525,2.3136,2.2993,2.2453,2.1785,2.1679,2.1222,2.1156,2.1109,2.1093,2.1093,2.1093,2.1093,2.1093,2.1093,2.1093,2.1093,2.1093,2.1093,2.1093,2.1093,2.1093,2.1093,2.1093,2.1093,2.1093,2.1093,2.1093,2.1093,2.1093,2.1093,2.1077,2.1077,2.0998,2.1014,2.103,2.1077,2.1091,2.1086,2.0832,2.0536,2.0205,1.9775,1.9488,1.9232,1.898,1.8606,1.8137,1.7824,1.7561,1.7206,1.6752]}]]